[[{"header":{"parameterUnit":"m.s-1","parameterCategory":1,"la1":30.6,"la2":28.766,"lo1":-90.7593,"lo2":-88.6598,"dy":0.0162,"dx":0.0183,"nx":116,"ny":114,"refTime":"2024-04-01T18:00:00:Z","depth":0,"parameterNumber":2,"parameterNumberName":"U-component_of_WINDS"},"data":[0.0,0.0,0.0,0.0,0.0,0.0,0.0,0.0,0.0,0.0,0.0,0.0,0.0,0.0,0.0,0.0,0.0,0.0,0.0,0.0,0.0,0.0,0.0,0.0,0.0,0.0,0.0,0.0,0.0,0.0,0.0,0.0,0.0,0.0,0.0,0.0,0.0,0.0,0.0,0.0,0.0,0.0,0.0,0.0,0.0,0.0,0.0,0.0,0.0,0.0,0.0,0.0,0.0,0.0,0.0,0.0,0.0,0.0,0.0,0.0,0.0,0.0,0.0,0.0,0.0,0.0,0.0,0.0,0.0,0.0,0.0,0.0,0.0,0.0,0.0,0.0,0.0,0.0,0.0,0.0,0.0,0.0,0.0,0.0,0.0,0.0,0.0,0.0,0.0,0.0,0.0,0.0,0.0,0.0,0.0,0.0,0.0,0.0,0.0,0.0,0.0,0.0,0.0,0.0,0.0,0.0,0.0,0.0,0.0,0.0,0.0,0.0,0.0,0.0,0.0,0.0,0.0,0.0,0.0,0.0,0.0,0.0,0.0,0.0,0.0,0.0,0.0,0.0,0.0,0.0,0.0,0.0,0.0,0.0,0.0,0.0,0.0,0.0,0.0,0.0,0.0,0.0,0.0,0.0,0.0,0.0,0.0,0.0,0.0,0.0,0.0,0.0,0.0,0.0,0.0,0.0,0.0,0.0,0.0,0.0,0.0,0.0,0.0,0.0,0.0,0.0,0.0,0.0,0.0,0.0,0.0,0.0,0.0,0.0,0.0,0.0,0.0,0.0,0.0,0.0,0.0,0.0,0.0,0.0,0.0,0.0,0.0,0.0,0.0,0.0,0.0,0.0,0.0,0.0,0.0,0.0,0.0,0.0,0.0,0.0,0.0,0.0,0.0,0.0,0.0,0.0,0.0,0.0,0.0,0.0,0.0,0.0,0.0,0.0,0.0,0.0,0.0,0.0,0.0,0.0,0.0,0.0,0.0,0.0,0.0,0.0,0.0,0.0,0.0,0.0,0.0,0.0,0.0,0.0,0.0,0.0,0.0,0.0,0.0,0.0,0.0,0.0,0.0,0.0,0.0,0.0,0.0,0.0,0.0,0.0,0.0,0.0,0.0,0.0,0.0,0.0,0.0,0.0,0.0,0.0,0.0,0.0,0.0,0.0,0.0,0.0,0.0,0.0,0.0,0.0,0.0,0.0,0.0,0.0,0.0,0.0,0.0,0.0,0.0,0.0,0.0,0.0,0.0,0.0,0.0,0.0,0.0,0.0,0.0,0.0,0.0,0.0,0.0,0.0,0.0,0.0,0.0,0.0,0.0,0.0,0.0,0.0,0.0,0.0,0.0,0.0,0.0,0.0,0.0,0.0,0.0,0.0,0.0,0.0,0.0,0.0,0.0,0.0,0.0,0.0,0.0,0.0,0.0,0.0,0.0,0.0,0.0,0.0,0.0,0.0,0.0,0.0,0.0,0.0,0.0,0.0,0.0,0.0,0.0,0.0,0.0,0.0,0.0,0.0,0.0,0.0,0.0,0.0,0.0,0.0,0.0,0.0,0.0,0.0,0.0,0.0,0.0,0.0,0.0,0.0,0.0,0.0,0.0,0.0,0.0,0.0,0.0,0.0,0.0,0.0,0.0,0.0,0.0,0.0,0.0,0.0,0.0,0.0,0.0,0.0,0.0,0.0,0.0,0.0,0.0,0.0,0.0,0.0,0.0,0.0,0.0,0.0,0.0,0.0,0.0,0.0,0.0,0.0,0.0,0.0,0.0,0.0,0.0,0.0,0.0,0.0,0.0,0.0,0.0,0.0,0.0,0.0,0.0,0.0,0.0,0.0,0.0,0.0,0.0,0.0,0.0,0.0,0.0,0.0,0.0,0.0,0.0,0.0,0.0,0.0,0.0,0.0,0.0,0.0,0.0,0.0,0.0,0.0,0.0,0.0,0.0,0.0,0.0,0.0,0.0,0.0,0.0,0.0,0.0,0.0,0.0,0.0,0.0,0.0,0.0,0.0,0.0,0.0,0.0,0.0,0.0,0.0,0.0,0.0,0.0,0.0,0.0,0.0,0.0,0.0,0.0,0.0,0.0,0.0,0.0,0.0,0.0,0.0,0.0,0.0,0.0,0.0,0.0,0.0,0.0,0.0,0.0,0.0,0.0,0.0,0.0,0.0,0.0,0.0,0.0,0.0,0.0,0.0,0.0,0.0,0.0,0.0,0.0,0.0,0.0,0.0,0.0,0.0,0.0,0.0,0.0,0.0,0.0,0.0,0.0,0.0,0.0,0.0,0.0,0.0,0.0,0.0,0.0,0.0,0.0,0.0,0.0,0.0,0.0,0.0,0.0,0.0,0.0,0.0,0.0,0.0,0.0,0.0,0.0,0.0,0.0,0.0,0.0,0.0,0.0,0.0,0.0,0.0,0.0,0.0,0.0,0.0,0.0,0.0,0.0,0.0,0.0,0.0,0.0,0.0,0.0,0.0,0.0,0.0,0.0,0.0,0.0,0.0,0.0,0.0,0.0,0.0,0.0,0.0,0.0,0.0,0.0,0.0,0.0,0.0,0.0,0.0,0.0,0.0,0.0,0.0,0.0,0.0,0.0,0.0,0.0,0.0,0.0,0.0,0.0,0.0,0.0,0.0,0.0,0.0,0.0,0.0,0.0,0.0,0.0,0.0,0.0,0.0,0.0,0.0,0.0,0.0,0.0,0.0,0.0,0.0,0.0,0.0,0.0,0.0,0.0,0.0,0.0,0.0,0.0,0.0,0.0,0.0,0.0,0.0,0.0,0.0,0.0,0.0,0.0,0.0,0.0,0.0,0.0,0.0,0.0,0.0,0.0,0.0,0.0,0.0,0.0,0.0,0.0,0.0,0.0,0.0,0.0,0.0,0.0,0.0,0.0,0.0,0.0,0.0,0.0,0.0,0.0,0.0,0.0,0.0,0.0,0.0,0.0,0.0,0.0,0.0,0.0,0.0,0.0,0.0,0.0,0.0,0.0,0.0,0.0,0.0,0.0,0.0,0.0,0.0,0.0,0.0,0.0,0.0,0.0,0.0,0.0,0.0,0.0,0.0,0.0,0.0,0.0,0.0,0.0,0.0,0.0,0.0,0.0,0.0,0.0,0.0,0.0,0.0,0.0,0.0,0.0,0.0,0.0,0.0,0.0,0.0,0.0,0.0,0.0,0.0,0.0,0.0,0.0,0.0,0.0,0.0,0.0,0.0,0.0,0.0,0.0,0.0,0.0,0.0,0.0,0.0,0.0,0.0,0.0,0.0,0.0,0.0,0.0,0.0,0.0,0.0,0.0,0.0,0.0,0.0,0.0,0.0,0.0,0.0,0.0,0.0,0.0,0.0,0.0,0.0,0.0,0.0,0.0,0.0,0.0,0.0,0.0,0.0,0.0,0.0,0.0,0.0,0.0,0.0,0.0,0.0,0.0,0.0,0.0,0.0,0.0,0.0,0.0,0.0,0.0,0.0,0.0,0.0,0.0,0.0,0.0,0.0,0.0,0.0,0.0,0.0,0.0,0.0,0.0,0.0,0.0,0.0,0.0,0.0,0.0,0.0,0.0,0.0,0.0,0.0,0.0,0.0,0.0,0.0,0.0,0.0,0.0,0.0,0.0,0.0,0.0,0.0,0.0,0.0,0.0,0.0,0.0,0.0,0.0,0.0,0.0,0.0,0.0,0.0,0.0,0.0,0.0,0.0,0.0,0.0,0.0,0.0,0.0,0.0,0.0,0.0,0.0,0.0,0.0,0.0,0.0,0.0,0.0,0.0,0.0,0.0,0.0,0.0,0.0,0.0,0.0,0.0,0.0,0.0,0.0,0.0,0.0,0.0,0.0,0.0,0.0,0.0,0.0,0.0,0.0,0.0,0.0,0.0,0.0,0.0,0.0,0.0,0.0,0.0,0.0,0.0,0.0,0.0,0.0,0.0,0.0,0.0,0.0,0.0,0.0,0.0,0.0,0.0,0.0,0.0,0.0,0.0,0.0,0.0,0.0,0.0,0.0,0.0,0.0,0.0,0.0,0.0,0.0,0.0,0.0,0.0,0.0,0.0,0.0,0.0,0.0,0.0,0.0,0.0,0.0,0.0,0.0,0.0,0.0,0.0,0.0,0.0,0.0,0.0,0.0,0.0,0.0,0.0,0.0,0.0,0.0,0.0,0.0,0.0,0.0,0.0,0.0,0.0,0.0,0.0,0.0,0.0,0.0,0.0,0.0,0.0,0.0,0.0,0.0,0.0,0.0,0.0,0.0,0.0,0.0,0.0,0.0,0.0,0.0,0.0,0.0,0.0,0.0,0.0,0.0,0.0,0.0,0.0,0.0,0.0,0.0,0.0,0.0,0.0,0.0,0.0,0.0,0.0,0.0,0.0,0.0,0.0,0.0,0.0,0.0,0.0,0.0,0.0,0.0,0.0,0.0,0.0,0.0,0.0,0.0,0.0,0.0,0.0,0.0,0.0,0.0,0.0,0.0,0.0,0.0,0.0,0.0,0.0,0.0,0.0,0.0,0.0,0.0,0.0,0.0,0.0,0.0,0.0,0.0,0.0,0.0,0.0,0.0,0.0,0.0,0.0,0.0,0.0,0.0,0.0,0.0,0.0,0.0,0.0,0.0,0.0,0.0,0.0,0.0,0.0,0.0,0.0,0.0,0.0,0.0,0.0,0.0,0.0,0.0,0.0,0.0,0.0,0.0,0.0,0.0,0.0,0.0,0.0,0.0,0.0,0.0,0.0,0.0,0.0,0.0,0.0,0.0,0.0,0.0,0.0,0.0,0.0,0.0,0.0,0.0,0.0,0.0,0.0,0.0,0.0,0.0,0.0,0.0,0.0,0.0,0.0,0.0,0.0,0.0,0.0,0.0,0.0,0.0,0.0,0.0,0.0,0.0,0.0,0.0,0.0,0.0,0.0,0.0,0.0,0.0,0.0,0.0,0.0,0.0,0.0,0.0,0.0,0.0,0.0,0.0,0.0,0.0,0.0,0.0,0.0,0.0,0.0,0.0,0.0,0.0,0.0,0.0,0.0,0.0,0.0,0.0,0.0,0.0,0.0,0.0,0.0,0.0,0.0,0.0,0.0,0.0,0.0,0.0,0.0,0.0,0.0,0.0,0.0,0.0,0.0,0.0,0.0,0.0,0.0,0.0,0.0,0.0,0.0,0.0,0.0,0.0,0.0,0.0,0.0,0.0,0.0,0.0,0.0,0.0,0.0,0.0,0.0,0.0,0.0,0.0,0.0,0.0,0.0,0.0,0.0,0.0,0.0,0.0,0.0,0.0,0.0,0.0,0.0,0.0,0.0,0.0,0.0,0.0,0.0,0.0,0.0,0.0,0.0,0.0,0.0,0.0,0.0,0.0,0.0,0.0,0.0,0.0,0.0,0.0,0.0,0.0,0.0,0.0,0.0,0.0,0.0,0.0,0.0,0.0,0.0,0.0,0.0,0.0,0.0,0.0,0.0,0.0,0.0,0.0,0.0,0.0,0.0,0.0,0.0,0.0,0.0,0.0,0.0,0.0,0.0,0.0,0.0,0.0,0.0,0.0,0.0,0.0,0.0,0.0,0.0,0.0,0.0,0.0,0.0,0.0,0.0,0.0,0.0,0.0,0.0,0.0,0.0,0.0,0.0,0.0,0.0,0.0,0.0,0.0,0.0,0.0,0.0,0.0,0.0,0.0,0.0,0.0,0.0,0.0,0.0,0.0,0.0,0.0,0.0,0.0,0.0,0.0,0.0,0.0,0.0,0.0,0.0,0.0,0.0,0.0,0.0,0.0,0.0,0.0,0.0,0.0,0.0,0.0,0.0,0.0,0.0,0.0,0.0,0.0,0.0,0.0,0.0,0.0,0.0,0.0,0.0,0.0,0.0,0.0,0.0,0.0,0.0,0.0,0.0,0.0,0.0,0.0,0.0,0.0,0.0,0.0,0.0,0.0,0.0,0.0,0.0,0.0,0.0,0.0,0.0,0.0,0.0,0.0,0.0,0.0,0.0,0.0,0.0,0.0,0.0,0.0,0.0,0.0,0.0,0.0,0.0,0.0,0.0,0.0,0.0,0.0,0.0,0.0,0.0,0.0,0.0,0.0,0.0,2.5341,2.3886,0.0,0.0,0.0,0.0,0.0,0.0,0.0,0.0,0.0,0.0,0.0,0.0,0.0,0.0,0.0,0.0,0.0,0.0,0.0,0.0,0.0,0.0,0.0,2.0566,2.0566,2.0566,2.0566,2.0469,2.0234,0.0,0.0,0.0,0.0,0.0,2.0547,2.0977,2.1406,2.1855,2.2285,2.3734,2.5972,2.6271,2.5558,2.4122,0.0,0.0,0.0,0.0,0.0,0.0,0.0,0.0,0.0,0.0,0.0,0.0,0.0,0.0,0.0,0.0,0.0,0.0,0.0,0.0,0.0,0.0,0.0,0.0,0.0,0.0,0.0,0.0,0.0,0.0,0.0,0.0,0.0,0.0,0.0,0.0,0.0,0.0,0.0,0.0,0.0,0.0,0.0,0.0,0.0,0.0,0.0,0.0,0.0,0.0,0.0,0.0,0.0,0.0,0.0,0.0,0.0,0.0,0.0,0.0,0.0,0.0,0.0,0.0,0.0,0.0,0.0,0.0,0.0,0.0,2.9108,2.7131,0.0,0.0,0.0,0.0,0.0,0.0,0.0,0.0,0.0,0.0,0.0,0.0,0.0,0.0,0.0,0.0,0.0,0.0,0.0,0.0,0.0,2.0586,2.0664,2.0684,2.0703,2.0781,2.0801,2.0801,2.0801,2.0801,0.0,0.0,0.0,2.1348,2.1348,2.1777,2.2291,2.2873,2.4263,2.633,2.9,3.0855,3.0259,2.7366,2.5104,0.0,0.0,0.0,0.0,0.0,0.0,0.0,0.0,0.0,0.0,0.0,0.0,0.0,0.0,0.0,0.0,0.0,0.0,0.0,0.0,0.0,0.0,0.0,0.0,0.0,0.0,0.0,0.0,0.0,0.0,0.0,0.0,0.0,0.0,0.0,0.0,0.0,0.0,0.0,0.0,0.0,0.0,0.0,0.0,0.0,0.0,0.0,0.0,0.0,0.0,0.0,0.0,0.0,0.0,0.0,0.0,0.0,0.0,0.0,0.0,0.0,0.0,0.0,3.6323,3.7532,3.8867,3.8717,3.8683,3.8572,3.4414,3.1978,3.0943,2.935,0.0,0.0,0.0,0.0,0.0,0.0,0.0,0.0,0.0,0.0,0.0,0.0,0.0,0.0,0.0,0.0,0.0,0.0,0.0,2.0723,2.1113,2.1152,2.1289,2.168,2.1719,2.1719,2.1719,2.1719,0.0,0.0,2.1777,2.1797,2.1797,2.2207,2.3043,2.432,2.9609,3.3024,3.4785,3.6056,3.6356,3.5634,3.0496,2.8768,2.9445,0.0,0.0,0.0,0.0,0.0,0.0,0.0,0.0,0.0,0.0,0.0,0.0,0.0,0.0,0.0,0.0,0.0,0.0,0.0,0.0,0.0,0.0,0.0,0.0,0.0,0.0,0.0,0.0,0.0,0.0,0.0,0.0,0.0,0.0,0.0,0.0,0.0,0.0,0.0,0.0,0.0,2.2798,2.436,0.0,0.0,0.0,0.0,0.0,0.0,0.0,0.0,0.0,0.0,0.0,0.0,0.0,3.4968,3.7421,3.9561,4.0781,4.1177,4.3409,4.3988,4.3117,4.3795,4.4082,4.4034,4.2928,0.0,3.3477,3.2827,0.0,0.0,0.0,0.0,0.0,0.0,0.0,0.0,0.0,0.0,0.0,0.0,0.0,0.0,0.0,0.0,0.0,0.0,0.0,0.0,0.0,2.2305,2.3008,2.2969,2.4727,2.5019,2.3086,2.3867,0.0,0.0,2.2109,2.2246,2.2246,2.2891,2.5088,2.8789,3.4622,3.8268,3.9919,4.1447,4.2041,4.1638,3.8817,3.5336,3.134,2.9154,0.0,0.0,0.0,0.0,0.0,0.0,0.0,0.0,0.0,0.0,0.0,0.0,0.0,0.0,0.0,0.0,0.0,0.0,0.0,0.0,0.0,0.0,0.0,0.0,0.0,0.0,0.0,0.0,0.0,0.0,0.0,0.0,0.0,0.0,0.0,0.0,0.0,0.0,0.0,2.4602,2.6589,2.7185,2.7115,2.6869,0.0,0.0,0.0,0.0,0.0,0.0,0.0,0.0,0.0,3.6867,3.8743,4.0571,4.2351,4.4178,4.5525,4.6569,4.7593,4.8411,4.9053,4.9084,4.9157,4.9133,4.8916,4.6247,4.1774,3.8286,3.5449,3.3068,0.0,0.0,0.0,0.0,3.0422,3.1408,0.0,0.0,0.0,0.0,0.0,0.0,0.0,0.0,0.0,0.0,0.0,0.0,2.2168,2.3926,2.5137,2.5254,2.7402,2.7676,2.5117,2.5527,2.4883,2.2637,2.2617,2.2676,2.2676,2.4967,2.8739,3.4098,3.94,4.2973,4.4525,4.624,4.6944,4.6535,4.6006,4.185,3.5192,3.3005,3.1121,0.0,0.0,0.0,0.0,0.0,0.0,0.0,0.0,0.0,0.0,0.0,0.0,0.0,0.0,0.0,0.0,0.0,0.0,0.0,0.0,0.0,0.0,0.0,0.0,0.0,0.0,0.0,0.0,0.0,0.0,0.0,0.0,0.0,0.0,0.0,0.0,0.0,0.0,2.7941,3.0013,2.9725,3.0304,3.0359,0.0,0.0,0.0,0.0,0.0,0.0,3.5737,3.7372,3.9393,4.1942,4.3914,4.5597,4.6944,4.8387,4.9782,5.1129,5.1225,5.2115,5.3654,5.3125,5.2884,5.286,5.2596,5.1273,4.8916,4.3746,4.021,3.7853,3.6026,3.4895,3.4366,3.4751,3.5232,3.5857,0.0,0.0,0.0,0.0,0.0,0.0,0.0,0.0,0.0,0.0,0.0,2.2617,2.4648,2.6074,2.7539,2.9141,2.8691,2.8262,2.8086,2.584,2.4453,2.4297,2.3535,2.3105,2.3105,2.9278,3.4764,3.936,4.4111,4.7149,4.8868,4.995,5.0455,5.0407,4.983,4.7449,4.3357,3.8442,3.6084,3.504,0.0,0.0,0.0,0.0,0.0,0.0,0.0,0.0,0.0,0.0,0.0,0.0,0.0,0.0,0.0,0.0,0.0,0.0,0.0,0.0,0.0,0.0,0.0,0.0,0.0,0.0,0.0,0.0,0.0,0.0,0.0,0.0,0.0,0.0,0.0,0.0,0.0,0.0,0.0,3.0927,3.3477,0.0,0.0,0.0,0.0,3.5136,3.6699,3.8527,4.0715,4.2327,4.4178,4.6319,4.7954,4.9806,5.1898,5.298,5.3798,5.4375,5.488,5.5169,5.5265,5.4736,5.4496,5.4447,5.3461,5.2668,5.1826,4.8483,4.5261,4.2327,4.122,4.0162,3.9248,3.9272,3.9633,4.0162,0.0,0.0,0.0,0.0,0.0,0.0,0.0,1.9102,1.9648,2.0664,2.2383,2.4238,2.6113,2.9199,3.1601,3.2773,3.3867,3.3555,3.1328,2.9277,2.7519,2.6152,2.4727,2.559,2.9249,3.4118,3.9243,4.4254,4.8362,5.1105,5.2644,5.3389,5.3726,5.3726,5.351,5.2139,4.9614,4.3927,4.0307,3.7892,3.3631,3.0921,0.0,0.0,0.0,0.0,0.0,0.0,0.0,0.0,0.0,0.0,0.0,0.0,0.0,0.0,0.0,0.0,0.0,0.0,0.0,0.0,0.0,0.0,0.0,0.0,0.0,0.0,0.0,0.0,0.0,0.0,0.0,0.0,0.0,0.0,0.0,0.0,0.0,3.5954,3.9104,0.0,3.8479,3.8647,3.9248,4.0138,4.1677,4.3505,4.5645,4.7593,4.9469,5.1225,5.2836,5.4039,5.4808,5.553,5.5987,5.6155,5.6347,5.6444,5.6419,5.589,5.565,5.5602,5.452,5.3942,5.3654,5.2187,4.9493,4.6175,4.478,4.3794,4.3168,4.3168,4.3505,4.4034,0.0,0.0,0.0,0.0,1.7617,1.7988,1.8555,1.9004,1.9707,2.0859,2.3379,2.5957,2.8281,3.2109,3.5039,3.6348,3.6973,3.625,3.3828,3.082,2.8437,2.6875,2.6446,2.8918,3.4388,3.8931,4.364,4.8355,5.1919,5.4039,5.488,5.5602,5.5842,5.5698,5.5866,5.5361,5.4135,4.9878,4.5621,4.1345,3.7594,3.5404,3.3871,0.0,0.0,0.0,0.0,0.0,0.0,0.0,0.0,0.0,0.0,0.0,0.0,0.0,0.0,0.0,0.0,0.0,0.0,0.0,0.0,0.0,0.0,0.0,0.0,0.0,0.0,0.0,0.0,0.0,0.0,0.0,0.0,0.0,0.0,3.6098,3.9537,4.009,4.3746,4.5453,4.3481,4.3962,4.4659,4.5381,4.692,4.8579,5.0335,5.2115,5.3558,5.4592,5.5842,5.6492,5.6492,5.7021,5.7189,5.7021,5.7189,5.7189,5.6997,5.6468,5.6227,5.6179,5.5073,5.4616,5.4568,5.4039,5.2163,4.9541,4.8483,4.7642,4.7016,4.7016,4.7112,4.7281,0.0,0.0,0.0,1.7266,1.7363,1.7656,1.8477,1.8984,1.9902,2.1641,2.4531,2.7754,3.1211,3.4687,3.7637,3.9785,3.7598,3.5898,3.5449,3.0156,2.6875,2.6484,2.8858,3.2685,3.7945,4.3548,4.8116,5.1513,5.476,5.6011,5.5506,5.6564,5.6804,5.6323,5.6852,5.7093,5.6997,5.5963,5.1946,4.5982,4.2711,4.1052,3.9994,0.0,0.0,0.0,0.0,0.0,0.0,0.0,0.0,0.0,0.0,0.0,0.0,0.0,0.0,0.0,0.0,0.0,0.0,0.0,0.0,0.0,0.0,0.0,0.0,0.0,0.0,0.0,0.0,0.0,0.0,0.0,0.0,0.0,3.4944,4.0018,4.3529,4.312,4.7209,4.906,4.6511,4.8122,4.9758,5.0816,5.2331,5.363,5.464,5.5698,5.6275,5.6275,5.6804,5.7093,5.7069,5.7622,5.7622,5.7069,5.7598,5.755,5.7021,5.6492,5.6251,5.6203,5.5097,5.464,5.4592,5.4039,5.3221,5.2307,5.2307,5.1658,5.0696,5.072,5.0383,4.983,0.0,0.0,1.6289,1.6406,1.6953,1.7461,1.7695,1.8613,1.9805,2.123,2.5117,2.9082,3.2519,3.6562,3.9746,4.1562,3.9375,3.7305,3.5937,3.0879,2.8027,0.0,0.0,0.0,4.1545,0.0,5.0955,5.3399,5.6096,5.7285,5.7165,5.7838,5.8079,5.7959,5.8512,5.8512,5.8175,5.8247,5.6612,5.351,4.8387,4.5092,4.2856,0.0,0.0,0.0,0.0,0.0,0.0,0.0,0.0,0.0,0.0,0.0,0.0,0.0,0.0,0.0,0.0,0.0,0.0,0.0,0.0,0.0,0.0,0.0,0.0,0.0,0.0,0.0,0.0,0.0,0.0,0.0,3.7397,3.9705,3.9465,4.3794,4.7642,4.9445,5.2524,5.4351,5.4015,5.4496,5.4952,5.5265,5.5698,5.6059,5.6347,5.6997,5.7381,5.7381,5.8271,5.856,5.8175,5.9065,5.9065,5.8175,5.8319,5.8103,5.7574,5.7045,5.6804,5.6756,5.565,5.5193,5.5121,5.4207,5.3437,5.286,5.286,5.197,5.0744,5.1129,5.0936,5.0455,0.0,1.5625,1.584,1.6096,1.6641,1.7168,1.7363,1.8477,1.9883,2.1543,2.5898,3.0137,3.3574,3.7519,4.0371,4.1523,3.9258,3.6894,3.4805,3.0996,2.9414,0.0,0.0,0.0,0.0,0.0,5.322,5.4802,5.7195,5.8232,5.7597,5.8998,5.9474,5.9281,6.0051,6.0099,5.9618,6.0171,5.9594,5.8031,5.464,5.1417,4.8195,4.413,4.2471,4.1942,3.9152,3.8719,3.9032,3.6122,0.0,0.0,0.0,0.0,0.0,0.0,0.0,0.0,0.0,0.0,0.0,0.0,0.0,0.0,0.0,0.0,0.0,0.0,0.0,0.0,0.0,0.0,0.0,0.0,4.1557,4.4828,4.5405,4.8459,5.1586,5.4279,5.6155,5.7526,5.8271,5.8151,5.8103,5.8319,5.8343,5.8247,5.8031,5.8728,5.9041,5.88,5.9834,6.0243,5.9931,6.0315,6.0075,5.9257,5.9041,5.8536,5.779,5.7502,5.7237,5.6973,5.6107,5.5746,5.565,5.4592,5.3726,5.3077,0.0,0.0,0.0,0.0,5.1153,5.0696,0.0,1.541,1.5527,1.5918,1.6367,1.6816,1.7246,1.8359,1.9941,2.2148,2.6484,3.0625,3.3984,3.7441,3.9726,4.0195,3.791,3.5391,3.2891,3.1016,0.0,3.3887,0.0,0.0,0.0,0.0,5.4842,5.5314,5.8019,5.8658,5.7516,5.9749,6.0627,6.0388,6.1422,6.1638,6.1277,6.1831,6.1494,6.0604,6.0484,5.8175,5.4255,4.9445,4.805,4.8195,4.4708,4.2639,4.1341,3.9994,0.0,0.0,0.0,0.0,0.0,0.0,0.0,0.0,0.0,0.0,0.0,0.0,0.0,0.0,0.0,0.0,0.0,0.0,0.0,0.0,0.0,0.0,0.0,0.0,4.5501,4.9614,5.1898,5.3558,5.5361,5.7622,5.8464,5.9257,6.0267,5.9931,5.9859,6.0315,6.0364,6.0147,5.969,6.0556,0.0,0.0,0.0,6.1855,6.1807,6.1301,6.0796,6.0243,5.9666,5.8897,5.7983,5.7862,5.7598,5.7165,5.6516,5.6227,5.6131,5.5001,5.3918,5.2956,5.286,5.2548,5.2139,5.1586,5.1105,5.0696,0.0,1.541,1.543,1.5527,1.5898,1.6348,1.6797,1.7656,1.916,2.168,2.5527,2.9082,3.1836,3.5215,3.7598,3.8359,3.6367,3.4297,3.2422,0.0,0.0,0.0,0.0,0.0,0.0,0.0,5.5682,5.345,5.7132,5.8854,5.8572,5.9038,6.0134,6.1518,6.2143,6.26,6.2913,6.3442,6.3562,6.3298,6.2456,5.9618,5.5722,5.3798,5.2163,5.06,4.8579,4.8219,4.8219,4.4996,4.3842,4.3144,3.9537,3.6386,0.0,0.0,0.0,0.0,0.0,0.0,0.0,0.0,0.0,0.0,0.0,0.0,0.0,0.0,0.0,0.0,0.0,0.0,0.0,4.5429,4.9517,5.3173,5.6179,5.7959,5.8824,5.8488,5.9666,6.0772,6.1422,6.1398,6.1374,6.147,6.1494,6.1446,6.135,6.1518,6.159,6.1494,6.2095,6.2239,6.1807,6.1686,6.135,6.0796,5.9834,0.0,5.9065,5.8199,5.7983,5.8223,5.6828,5.6227,5.6107,5.4592,5.3365,5.2355,5.1489,5.1369,5.1586,5.1056,5.0792,5.0696,0.0,1.4941,1.5156,1.5371,1.5781,1.6133,1.6367,1.7305,1.8789,2.0937,2.4219,2.7266,2.9648,3.2226,3.3848,3.4043,3.2676,3.1992,0.0,3.4297,0.0,0.0,0.0,0.0,0.0,5.3336,5.4636,5.357,5.7375,5.9089,5.8881,6.0673,6.2031,6.2985,6.3514,6.3754,6.3779,6.4308,6.438,6.4091,6.3562,6.1614,5.8848,5.7213,5.5794,5.4471,5.3149,5.2331,5.1489,4.882,4.7209,4.5814,4.2904,4.0162,3.7637,0.0,0.0,0.0,0.0,0.0,0.0,0.0,0.0,0.0,0.0,0.0,0.0,0.0,0.0,3.6675,3.8791,0.0,4.5694,4.8628,5.2668,5.5914,5.7237,5.9474,6.0772,6.0267,6.0893,6.1686,6.2504,6.2336,6.2312,6.2552,6.2576,6.2456,6.2215,6.2432,6.2456,6.2191,6.2696,6.2841,6.2576,6.2071,6.1782,6.1758,6.0412,5.9786,5.9762,5.8969,5.8608,5.856,5.7766,5.7261,5.6876,5.5001,5.3437,5.2235,5.1706,5.1489,5.1465,5.1201,5.0936,5.0696,0.0,1.4297,1.4687,1.5195,1.5644,1.5957,1.6115,1.7031,1.8379,2.0098,2.2734,2.5215,2.7207,2.8906,2.9766,2.9473,2.9434,0.0,0.0,0.0,0.0,0.0,0.0,0.0,5.1534,5.2724,5.357,5.3821,5.7164,5.8485,5.8101,6.1488,6.3193,6.3601,6.4488,6.4741,6.4452,6.4885,6.4885,6.4572,6.426,6.3322,6.1855,5.9714,5.8512,5.7814,5.6756,5.4832,5.2572,5.1297,4.9157,4.68,4.5525,4.3721,4.1557,3.8791,3.73,0.0,0.0,0.0,0.0,0.0,0.0,0.0,0.0,3.3645,3.4751,3.7276,3.8791,4.0595,4.3577,4.6848,4.9686,5.161,5.5337,5.7886,5.767,6.0099,6.1879,6.1807,6.1975,6.2432,6.3249,6.2961,6.2913,6.3298,6.3346,6.3153,6.2744,6.3129,6.3153,6.2744,6.3129,6.3346,6.3346,6.2408,6.2167,6.2576,6.1061,6.0315,6.0315,5.9666,5.9209,5.8897,5.8584,5.8031,5.7189,5.5241,5.3606,5.2283,5.2283,5.1946,5.1489,5.1489,5.1153,5.0696,0.0,1.3613,1.3906,1.4707,1.5195,1.5605,1.6056,1.6523,1.75,1.9199,2.1074,2.2773,2.4141,2.5508,2.6445,2.6777,2.9512,0.0,0.0,0.0,0.0,0.0,0.0,0.0,5.0928,5.308,5.3589,5.2385,5.4615,5.5596,5.555,5.777,5.9806,6.1533,6.392,6.5149,6.5534,6.5582,6.5847,6.6111,6.4692,6.373,6.2937,6.0796,5.9378,5.8367,5.7309,5.4664,5.1634,5.1465,4.9926,4.8074,4.7906,4.6728,4.478,4.1653,3.9008,3.6411,3.326,3.1745,3.136,3.2611,3.3308,3.4559,0.0,3.9128,4.0138,4.2303,4.4347,4.6415,4.8652,5.0576,5.2812,5.5818,5.755,5.8824,5.969,6.1374,6.2312,6.1855,6.26,6.3225,6.3322,6.3298,6.3274,6.3346,6.3346,6.3322,6.3249,6.3298,6.3322,6.3249,6.3298,6.3346,6.3346,6.2768,6.2528,6.2576,6.1422,6.0869,6.0845,5.9834,5.9618,5.9931,5.8512,5.7045,5.5578,5.4399,5.3269,5.2283,5.2283,5.1946,5.1489,5.1489,5.1153,5.0696,0.0,0.0,1.3613,1.3984,1.459,1.5195,1.5625,1.6055,1.6777,1.8008,1.9238,2.0391,2.1426,2.248,2.3301,2.373,0.0,0.0,3.3691,0.0,0.0,0.0,0.0,5.0488,5.1523,5.2479,5.2776,5.2441,5.4809,5.589,5.589,5.8278,5.9945,6.0708,6.3034,6.4203,6.4414,6.558,6.628,6.6376,6.5101,6.4091,6.3105,6.0989,5.856,5.6131,5.5097,5.2932,0.0,4.9133,4.7906,4.7016,4.7642,4.6535,4.4563,4.2303,3.997,3.7517,3.4631,3.3741,3.3861,3.4847,3.6435,3.8455,4.1268,4.2784,4.4299,4.6728,4.8676,5.06,5.2692,5.4399,5.6035,5.767,5.9089,6.0123,6.058,6.1205,6.1326,6.0484,6.1061,6.1855,6.2817,6.2913,6.3033,6.3322,6.3346,6.3346,6.3346,6.3346,6.3346,6.3346,6.3346,6.3346,6.3346,6.2841,6.2744,6.3009,6.1614,6.1133,6.1422,6.0339,5.9786,5.9666,5.868,5.7357,5.5818,5.5049,5.3942,5.274,5.274,5.2235,5.1489,5.1489,5.1153,5.0696,0.0,0.0,0.0,1.3477,1.4121,1.4746,1.5176,1.5703,1.6409,1.7109,1.7832,1.8613,1.9473,2.0352,2.1055,2.1484,0.0,0.0,0.0,3.8105,0.0,0.0,4.9297,0.0,5.1719,5.207,5.2402,5.2715,5.4682,5.5679,5.5679,5.814,5.9355,5.9484,6.2359,6.3669,6.3975,6.5801,6.6713,6.6592,6.5246,6.3971,6.2624,5.9883,5.6444,5.298,5.2235,5.0143,4.7449,4.5597,4.4515,4.4178,4.5381,4.4804,4.3385,4.1798,3.9513,3.7132,3.5497,3.5545,3.6362,3.7637,3.9946,4.2471,4.4587,4.6415,4.8291,5.0503,5.2235,5.3918,5.5722,5.69,5.7959,5.9065,6.0099,6.0845,6.1157,6.1061,6.046,5.9113,5.9041,5.9594,6.0917,6.1855,6.2696,6.349,6.3418,6.3466,6.3754,6.349,6.3394,6.3562,6.3418,6.3346,6.3346,6.2985,6.2913,6.3105,6.1807,6.1326,6.1542,6.0604,5.9883,5.9353,5.8824,5.779,5.6395,5.5698,5.464,5.3461,5.3173,5.2499,5.1682,5.1537,5.1153,5.0696,0.0,0.0,0.0,0.0,1.3867,1.4297,1.4746,1.5527,1.623,1.6699,1.7148,1.7734,1.8594,1.9434,2.0137,2.0566,0.0,0.0,0.0,3.6269,4.0976,4.6113,4.8418,4.9961,5.082,5.2051,5.2695,5.2715,5.3144,5.3561,5.3561,5.5699,5.6916,5.7373,6.2137,6.4404,6.4817,6.6489,6.7266,6.7073,6.4981,6.3225,6.1374,5.7141,5.2932,4.9229,4.9205,4.6199,4.2038,4.0956,3.9898,3.9296,4.0884,4.1677,4.1725,4.0138,3.706,3.439,3.5328,3.6362,3.7902,4.1028,4.3794,4.6319,4.8435,5.0551,5.2403,5.3485,5.4977,5.6444,5.7526,5.7357,5.7886,6.0484,6.0508,6.058,6.1614,6.1301,6.0195,5.8103,5.6973,5.6564,5.7141,6.0003,6.2456,6.3995,6.3634,6.3779,6.4813,6.3899,6.3586,6.4091,6.361,6.3346,6.3346,6.3322,6.3081,6.26,6.2047,6.1494,6.0965,6.0436,5.9883,5.9353,5.8824,5.7983,5.69,5.5842,5.5073,5.4471,5.3461,5.274,5.2187,5.1682,5.1153,5.0696,0.0,0.0,0.0,0.0,0.0,0.0,1.4336,1.5078,1.5898,1.6641,1.7363,0.0,0.0,0.0,0.0,0.0,0.0,0.0,0.0,3.4121,3.873,4.1914,4.6016,4.8633,4.9492,5.0508,5.1308,5.1855,5.2305,5.2519,5.2519,5.3569,5.4125,5.4744,5.9182,6.1453,6.2092,6.4907,6.6424,6.652,6.3706,6.1831,6.0219,5.5602,5.0551,4.5621,0.0,4.0331,3.7484,3.5892,3.5426,3.593,3.7517,3.7902,3.7445,3.5881,3.5761,3.6218,3.6555,3.8984,4.199,4.4491,4.7642,5.0503,5.1898,5.3894,5.5217,5.4496,5.4231,5.4135,5.4135,5.3991,5.4736,5.7405,5.8848,6.0027,6.1085,6.1374,6.0051,5.6155,5.6636,5.6636,5.5049,5.7165,5.9738,6.2384,6.2408,6.2768,6.3803,6.3538,6.3418,6.3586,6.3442,6.3346,6.3346,6.3346,6.3081,6.2576,6.1686,6.0965,6.0436,6.0243,5.969,5.8848,5.868,5.779,5.6444,5.5698,5.5073,5.4496,5.3461,5.2956,5.274,5.2211,5.1682,5.1177,0.0,0.0,0.0,0.0,0.0,0.0,0.0,0.0,0.0,0.0,0.0,0.0,0.0,0.0,0.0,0.0,0.0,2.334,0.0,0.0,3.4609,3.7246,4.1133,4.3633,4.4492,4.5351,4.6367,4.7539,4.8262,4.9101,5.0039,5.0605,5.1269,5.2188,5.6486,5.854,5.9336,6.282,6.3864,6.2636,5.9499,5.6624,5.399,4.9322,4.4441,0.0,0.0,3.3866,3.2557,3.1971,3.2087,3.2604,3.4006,3.4463,3.4414,3.3982,3.5425,3.7517,3.9032,4.2279,4.5814,4.8363,5.1201,5.3678,5.4712,5.5722,5.5987,5.4375,5.3221,5.2235,5.1297,5.0527,5.1129,5.4544,5.577,5.7189,5.9762,5.9931,5.8632,5.5554,5.6059,5.6059,5.452,5.5626,5.7935,6.1518,6.1807,6.2408,6.3827,6.3538,6.3514,6.3899,6.3538,6.3442,6.361,6.3249,6.272,6.1999,6.1109,6.0508,6.0171,5.9979,5.9426,5.8584,5.8392,5.7622,5.6468,5.5914,5.5385,5.4784,5.375,5.3221,5.298,5.2259,5.1778,5.1441,0.0,0.0,0.0,0.0,0.0,0.0,0.0,0.0,0.0,0.0,0.0,0.0,0.0,0.0,0.0,0.0,0.0,0.0,0.0,0.0,0.0,3.2363,3.4277,3.5664,3.6523,3.7363,3.8613,4.0332,4.1543,4.3418,4.5898,4.6699,4.7773,4.9189,5.3539,5.5613,5.6231,5.9505,5.9019,5.5882,5.2494,4.8223,4.3579,3.9097,0.0,0.0,0.0,2.7479,2.7451,2.9308,2.9848,2.988,3.0787,3.1817,3.302,3.4607,3.6266,3.8503,4.2591,4.6102,4.9325,5.2427,5.4351,5.5746,5.6708,5.6107,5.4832,5.3173,5.1874,5.0551,4.8892,4.704,4.7305,5.2067,5.1778,5.2788,5.7959,5.7454,5.6492,5.6323,5.5482,5.5049,5.5433,5.5554,5.7309,6.1398,6.171,6.2624,6.4692,6.3875,6.3779,6.4716,6.3827,6.3562,6.3995,6.3009,6.1975,6.0965,6.0436,6.0171,6.0147,5.9618,5.9089,5.856,5.8031,5.7502,5.6973,5.6444,5.5914,5.5337,5.4279,5.3558,5.298,5.1946,5.1537,5.1489,0.0,0.0,0.0,0.0,0.0,0.0,0.0,0.0,0.0,0.0,0.0,0.0,0.0,0.0,0.0,0.0,0.0,0.0,0.0,0.0,0.0,0.0,0.0,0.0,0.0,0.0,0.0,0.0,0.0,3.8789,4.0059,4.0273,4.0898,4.1994,4.469,4.6065,4.6626,4.8584,4.8997,4.814,0.0,4.2849,4.0738,0.0,0.0,0.0,0.0,2.7854,2.6879,2.776,2.9958,3.2504,3.3479,3.4559,3.5809,3.7805,4.0619,4.3601,4.5862,4.9373,5.2788,5.4399,5.5722,5.6468,5.5938,5.4977,5.3317,5.0167,4.7088,4.4371,4.2375,4.288,4.4876,4.8868,5.2499,5.5987,5.9305,6.046,6.0075,5.7694,5.8199,5.8199,5.6732,5.767,5.9137,6.1013,6.0796,6.135,6.3081,6.3274,6.3105,6.26,6.3081,6.3033,6.2408,6.171,6.1229,6.0965,6.0436,6.0171,6.0147,5.9618,5.9089,5.856,5.8031,5.7502,5.6973,5.6444,5.6155,5.5914,5.4832,5.4087,5.3558,5.2908,5.2163,5.1489,0.0,0.0,0.0,0.0,0.0,0.0,0.0,0.0,0.0,0.0,0.0,0.0,0.0,0.0,0.0,0.0,0.0,0.0,0.0,0.0,0.0,0.0,0.0,0.0,0.0,0.0,0.0,0.0,0.0,0.0,0.0,3.5215,3.5859,3.6818,3.9019,4.0045,4.0414,4.2016,0.0,0.0,0.0,0.0,0.0,0.0,0.0,0.0,0.0,0.0,2.7877,2.9715,3.2207,3.4919,3.6435,3.7805,3.9393,4.2254,4.4876,4.7425,4.9926,5.3053,5.577,5.6588,5.69,5.6492,5.4471,5.2668,5.007,4.5429,4.2639,4.0306,3.795,3.9056,4.1677,4.5886,5.0046,5.4231,5.8536,6.0315,6.0772,5.9666,6.0339,6.0412,5.9233,5.9714,6.0604,6.1903,6.1518,6.1831,6.3201,6.3754,6.3754,6.3177,6.3514,6.3081,6.1807,6.1494,6.1085,6.0628,6.0315,6.0171,6.0147,5.9618,5.9233,5.8897,5.8151,5.7646,5.7333,5.6804,5.6299,5.5794,5.5193,5.4351,5.3437,5.2908,5.2211,5.1465,0.0,0.0,0.0,0.0,0.0,0.0,0.0,0.0,0.0,0.0,1.6311,1.6348,0.0,0.0,0.0,0.0,0.0,0.0,0.0,0.0,0.0,0.0,0.0,0.0,0.0,0.0,0.0,0.0,0.0,0.0,0.0,0.0,0.0,0.0,0.0,0.0,0.0,0.0,0.0,0.0,0.0,0.0,0.0,0.0,0.0,0.0,0.0,0.0,0.0,0.0,3.5469,3.7324,3.9609,4.1485,4.3505,4.7088,4.894,5.0551,5.3918,5.6323,5.8007,5.8392,5.7646,5.5963,5.2692,4.9734,4.6054,4.0451,3.8647,3.7348,3.4968,3.593,3.8719,4.3746,4.6848,5.0864,5.7333,5.9089,6.0291,6.1879,6.2095,6.2143,6.2215,6.171,6.1951,6.3346,6.3105,6.3249,6.4091,6.4572,6.4789,6.4716,6.4067,6.3105,6.1807,6.1662,6.1109,6.0171,6.0171,6.0171,6.0147,5.9618,5.9378,5.9329,5.8343,5.7886,5.7766,5.7309,5.654,5.5602,5.5458,5.452,5.3197,5.2596,5.1994,5.1417,0.0,0.0,0.0,0.0,0.0,0.0,0.0,0.0,0.0,0.0,1.7331,1.6914,0.0,0.0,0.0,0.0,0.0,0.0,0.0,0.0,0.0,0.0,0.0,0.0,0.0,0.0,0.0,0.0,0.0,0.0,0.0,0.0,0.0,0.0,0.0,0.0,0.0,0.0,0.0,0.0,0.0,0.0,0.0,0.0,0.0,0.0,0.0,0.0,0.0,0.0,3.7441,4.0234,4.3241,4.5573,4.7762,5.0624,5.2499,5.3991,5.553,5.7189,5.8367,5.8031,5.6804,5.4736,5.1105,4.7233,4.3096,3.8551,3.5809,3.3982,3.3068,3.4895,3.8551,4.4659,4.8267,5.2644,5.9474,6.0965,6.1951,6.3538,6.3706,6.3899,6.4332,6.3899,6.3682,6.3971,6.4308,6.4404,6.4139,6.4211,6.4067,6.3634,6.2239,6.1614,6.1807,6.0917,6.0364,6.0171,6.0171,6.0171,6.0147,5.9618,5.9378,5.9353,5.8728,5.8223,5.779,5.7718,5.7309,5.6636,5.5746,5.4977,5.4231,5.3269,5.2331,5.1489,0.0,0.0,0.0,0.0,0.0,0.0,0.0,1.6999,1.8322,1.9625,1.9647,1.9213,1.8418,1.7773,1.7461,0.0,0.0,0.0,0.0,0.0,0.0,0.0,0.0,0.0,0.0,0.0,2.1641,2.1855,0.0,0.0,0.0,2.3359,2.3555,2.375,2.375,0.0,0.0,0.0,0.0,0.0,2.3457,2.332,0.0,0.0,0.0,0.0,0.0,0.0,0.0,0.0,3.6203,4.0239,4.5542,4.8844,5.1249,5.363,5.5049,5.6155,5.7502,5.8632,5.9233,5.8416,5.6179,5.2836,4.7714,4.3505,3.9224,3.4126,3.2298,3.1553,3.1288,3.3621,3.7132,4.187,4.5309,4.9806,5.6684,5.8848,6.082,6.3779,6.462,6.5053,6.5294,6.4596,6.4235,6.4524,6.4524,6.4404,6.4139,6.4115,6.4019,6.3754,6.248,6.1807,6.1807,6.0989,6.046,6.0171,6.0171,6.0171,6.0171,5.9907,5.9786,5.9762,5.9233,5.8704,5.8199,5.7935,5.7333,5.6564,5.6035,5.5337,5.452,5.375,5.298,5.2283,0.0,0.0,0.0,0.0,0.0,0.0,1.6597,1.8035,1.9576,2.1298,2.205,2.177,1.9723,1.8633,1.791,0.0,0.0,0.0,0.0,0.0,0.0,0.0,0.0,0.0,0.0,0.0,0.0,2.123,2.1914,0.0,0.0,0.0,0.0,0.0,2.3144,2.3144,2.3144,2.3144,0.0,0.0,0.0,2.3144,0.0,0.0,0.0,0.0,0.0,0.0,0.0,0.0,3.4027,3.8564,4.4777,4.9283,5.2596,5.4496,5.5914,5.7165,5.8656,5.969,6.0027,5.8752,5.5626,5.1225,4.4948,4.0306,3.5785,3.0398,2.9532,2.9821,3.0037,3.2322,3.5352,3.9008,4.1798,4.5982,5.3101,5.5938,5.8921,6.3274,6.4813,6.5582,6.5702,6.4861,6.4428,6.4716,6.426,6.4019,6.4115,6.4115,6.4019,6.3803,6.2889,6.2167,6.1614,6.1085,6.058,6.0171,6.0171,6.0171,6.0171,6.0171,6.0171,6.0147,5.9738,5.9185,5.856,5.8151,5.7357,5.6395,5.6275,5.5698,5.488,5.4079,5.3528,5.3,0.0,0.0,0.0,0.0,0.0,0.0,1.7144,1.89,2.1104,2.4018,2.388,2.3203,2.2566,2.1174,1.9648,0.0,0.0,0.0,0.0,0.0,0.0,0.0,0.0,0.0,0.0,0.0,0.0,2.123,2.1309,0.0,0.0,0.0,0.0,0.0,0.0,2.3144,2.3144,2.3144,0.0,0.0,0.0,0.0,0.0,0.0,0.0,0.0,0.0,2.4162,2.5894,2.8497,3.1739,3.5225,3.8377,4.3962,4.9686,5.0864,5.363,5.654,5.7646,5.9402,6.0412,5.8392,5.5097,5.0816,4.4924,3.92,3.4006,3.011,2.8955,2.8955,2.9917,3.112,3.3645,3.8767,4.0258,4.3505,5.1393,5.4303,5.7381,6.2167,6.4067,6.5173,6.5654,6.5173,6.4668,6.4235,6.3706,6.3634,6.4091,6.4115,6.3706,6.2768,6.2167,6.1614,6.1037,6.0508,6.0219,6.0171,6.0171,6.0171,6.0171,6.0171,6.0171,6.0171,6.0123,5.9522,5.8608,5.8536,5.7911,5.69,5.6419,5.6179,5.5963,5.4467,5.3623,5.3076,0.0,0.0,0.0,0.0,0.0,0.0,1.774,1.8916,2.072,2.4173,2.4231,2.3917,2.4095,2.2692,2.0757,1.8203,0.0,0.0,0.0,0.0,0.0,0.0,0.0,0.0,0.0,0.0,2.0391,2.084,2.1094,0.0,0.0,0.0,0.0,0.0,0.0,2.2754,2.2773,2.3027,0.0,0.0,0.0,0.0,0.0,0.0,0.0,0.0,0.0,0.0,2.4291,2.6419,2.8668,3.0963,3.2746,3.682,4.1942,4.6848,5.072,5.3894,5.6227,5.8632,5.9979,5.7862,5.4063,4.9301,4.3481,3.7878,3.2851,2.9124,2.7921,2.7873,2.8955,2.9484,3.1096,3.5136,3.5713,3.8094,4.5092,4.7593,5.1201,5.7959,6.0436,6.2672,0.0,0.0,6.4211,6.3682,6.3466,6.3442,6.3634,6.3658,6.3466,6.3057,6.2239,6.1686,6.147,6.0604,6.0171,6.0171,6.0171,6.0171,6.0171,6.0171,6.0171,6.0171,6.0171,5.9762,5.9041,5.8728,5.8012,5.7132,5.6606,5.6232,5.5794,5.4902,5.4155,5.3636,0.0,0.0,0.0,0.0,0.0,1.5711,1.7864,1.892,2.0638,2.3929,2.4276,2.4349,2.4886,2.3327,2.1366,1.914,1.8577,0.0,0.0,0.0,0.0,0.0,0.0,0.0,0.0,0.0,2.0137,2.0566,2.1016,2.1309,0.0,0.0,2.1894,2.1894,0.0,0.0,0.0,0.0,0.0,0.0,0.0,0.0,0.0,0.0,0.0,0.0,0.0,0.0,0.0,0.0,0.0,2.7634,2.8248,0.0,0.0,4.1894,4.6728,5.0551,5.3726,5.6876,5.8848,5.7189,5.3077,4.7954,4.2447,3.6723,3.1649,2.8402,2.7176,2.7055,2.8282,2.8522,2.946,3.2346,3.2779,3.4727,4.0475,4.2904,4.6583,5.3317,0.0,5.9113,6.3201,6.3923,6.3899,6.337,6.3346,6.3346,6.3346,6.3346,6.3274,6.3129,6.2263,6.171,6.1542,6.0628,6.0171,6.0171,6.0171,6.0171,6.0171,6.0171,6.0171,6.0171,6.0171,5.9786,5.9113,5.8588,5.7874,5.6905,5.6363,5.6037,5.5621,5.4967,5.4545,5.417,0.0,0.0,0.0,0.0,0.0,1.5628,1.745,1.9251,2.1238,2.3577,2.426,2.4629,2.4886,2.3022,2.1645,2.1318,1.9484,0.0,0.0,0.0,0.0,0.0,0.0,0.0,0.0,0.0,2.0137,2.0566,2.1016,2.1465,2.1875,2.1894,2.1894,2.1894,0.0,0.0,0.0,0.0,0.0,0.0,0.0,0.0,0.0,0.0,0.0,0.0,0.0,0.0,0.0,0.0,0.0,0.0,0.0,2.678,3.0398,0.0,4.1413,4.668,4.9878,5.3846,5.6925,5.6371,5.2235,4.7064,4.2279,3.5857,3.0302,2.8162,2.6863,2.6598,2.821,2.8522,2.9196,3.1336,3.2587,3.4775,3.9032,4.1894,4.4948,0.0,0.0,5.4592,5.8319,6.1975,6.3899,6.337,6.3346,6.3346,6.3346,6.3346,6.3105,6.26,6.2071,6.1542,6.0965,6.0436,6.0171,6.0171,6.0171,6.0171,6.0171,6.0171,6.0171,6.0171,6.0171,5.957,5.8608,5.8092,5.7333,5.6405,5.5876,5.5691,5.5644,5.4647,5.4301,5.4231,0.0,0.0,0.0,0.0,0.0,0.0,1.6581,1.7554,1.9044,2.1652,2.1569,2.1921,2.3557,2.1776,2.0586,2.1002,1.9465,0.0,0.0,0.0,0.0,0.0,0.0,0.0,0.0,1.9922,2.0586,2.1016,2.1758,2.2031,2.1894,2.1894,2.1719,2.1445,2.1445,2.1523,0.0,0.0,0.0,0.0,0.0,0.0,2.3144,0.0,0.0,0.0,0.0,0.0,0.0,0.0,0.0,0.0,0.0,0.0,0.0,3.0759,3.5641,4.1028,4.3529,4.6487,4.8603,4.7329,4.4395,4.0932,3.7613,3.3477,2.9749,2.7633,2.6911,2.6815,2.7344,2.7729,2.8907,3.1769,3.2539,3.3837,3.6964,4.0643,0.0,4.8603,5.5602,6.0556,0.0,0.0,6.3899,6.337,6.3346,6.3346,6.3346,6.3346,6.3105,6.26,6.2071,6.1542,6.0965,6.0436,6.0171,6.0171,6.0171,6.0171,6.0171,6.0171,6.0171,6.0171,6.0171,5.9619,5.8593,5.807,5.7195,5.6046,5.5532,5.5067,5.4719,5.4557,5.4142,5.3819,0.0,0.0,0.0,0.0,0.0,0.0,1.5691,1.6539,1.7657,1.9603,1.9644,2.0245,2.219,2.0659,1.9934,2.0884,1.9524,0.0,0.0,0.0,0.0,0.0,0.0,0.0,1.9187,1.9895,2.0703,2.1801,2.2578,2.2949,2.2852,2.3008,2.2519,2.1484,2.1484,2.1387,0.0,0.0,0.0,0.0,0.0,0.0,2.2891,0.0,0.0,0.0,0.0,0.0,0.0,0.0,0.0,0.0,0.0,0.0,0.0,0.0,3.0882,3.5088,3.8238,4.1172,4.3144,4.2375,4.0162,3.7517,3.4847,3.1793,2.9003,0.0,0.0,0.0,2.7152,2.7488,2.8498,3.0903,3.1793,3.3044,3.5473,3.9657,0.0,4.9109,0.0,0.0,0.0,6.2696,6.361,6.3081,6.2865,6.2841,6.3057,6.2865,6.2528,6.1999,6.1855,6.1542,6.0965,6.0436,6.0171,6.0171,6.0171,6.0171,6.0171,6.0171,6.0171,6.0171,5.9955,5.9523,0.0,5.7762,5.6796,5.5788,5.5113,5.4579,5.4416,5.4416,5.4232,5.3957,0.0,0.0,0.0,0.0,0.0,0.0,0.0,1.6063,1.7018,1.7513,1.8361,1.9375,2.0679,1.9686,1.9458,2.0762,1.961,0.0,0.0,0.0,0.0,0.0,0.0,0.0,1.9043,1.9489,2.0757,2.2839,2.3526,2.4082,2.4473,2.4922,2.3984,2.1973,2.1953,2.166,0.0,0.0,0.0,0.0,2.2266,2.2441,0.0,0.0,0.0,0.0,0.0,0.0,0.0,0.0,0.0,0.0,0.0,0.0,0.0,0.0,0.0,0.0,0.0,3.7228,3.9657,4.0114,3.8334,3.5833,3.338,3.0494,0.0,0.0,0.0,0.0,0.0,2.7729,2.8114,2.934,3.0783,3.2515,3.4655,3.9296,0.0,0.0,5.4784,0.0,5.7237,6.0869,6.3033,6.2576,6.2071,6.2023,6.2504,6.2071,6.1542,6.0989,6.147,6.147,6.0917,6.0412,6.0171,6.0171,6.0171,6.0171,6.0171,6.0171,6.0147,6.0099,5.9642,5.9045,5.8522,5.7102,5.6186,5.5577,5.4763,5.4416,5.4416,5.4462,5.4462,5.4462,0.0,0.0,0.0,0.0,0.0,0.0,0.0,0.0,0.0,0.0,1.6891,1.7264,1.7926,1.7719,1.7781,0.0,0.0,0.0,0.0,0.0,0.0,0.0,0.0,0.0,1.9645,2.0747,2.175,2.2839,2.4295,2.4992,2.4922,2.5371,2.4609,2.2832,2.25,2.1758,0.0,0.0,0.0,0.0,2.1504,2.1738,0.0,0.0,0.0,0.0,2.2539,2.2656,0.0,0.0,0.0,0.0,0.0,0.0,0.0,0.0,2.6235,2.7536,2.8667,0.0,3.124,3.0951,3.011,2.9172,0.0,2.7512,0.0,0.0,0.0,0.0,0.0,2.7729,2.8619,3.1312,3.2394,3.3645,3.5737,4.2591,0.0,5.488,5.8199,5.9883,5.9474,6.1085,6.2119,6.1999,6.1879,6.1855,6.1975,6.1879,6.1542,6.0989,6.1085,6.0893,6.0364,6.0243,6.0171,6.0171,6.0171,6.0171,6.0171,6.0171,5.9955,5.9594,5.9859,5.8807,5.7031,5.7031,5.6139,5.474,5.4462,5.4416,5.4462,5.4875,5.5013,5.5013,0.0,0.0,0.0,0.0,0.0,0.0,0.0,0.0,0.0,0.0,1.5939,1.6229,1.6684,1.6853,1.7162,0.0,0.0,0.0,0.0,0.0,0.0,0.0,0.0,1.9422,2.0021,2.0933,2.215,2.3694,2.4965,2.5754,2.6153,2.6192,2.5192,2.3379,2.2168,2.1311,2.0741,2.086,2.0898,2.0937,2.1152,0.0,0.0,0.0,0.0,0.0,2.1855,2.1934,0.0,2.2422,2.3018,2.3608,0.0,0.0,0.0,0.0,2.4989,2.537,2.5757,2.6959,2.8138,2.8089,2.7873,2.7584,2.7344,0.0,0.0,0.0,0.0,0.0,0.0,0.0,2.8883,3.136,3.2803,3.5232,0.0,0.0,5.096,5.6059,5.856,5.9955,0.0,6.0941,6.1422,6.1422,6.1181,6.1157,6.1398,6.1181,6.0917,6.0604,6.0604,6.046,6.0171,6.0171,6.0171,6.0171,6.0171,6.0171,6.0171,6.0171,5.9859,5.938,5.9189,5.826,5.6841,5.642,5.5718,5.4783,5.4783,5.4623,5.4485,5.5013,5.5059,5.4852,0.0,0.0,0.0,0.0,0.0,0.0,0.0,0.0,0.0,0.0,0.0,0.0,0.0,0.0,0.0,0.0,0.0,0.0,0.0,0.0,0.0,0.0,1.8998,1.9472,2.0319,2.0769,2.2186,2.4669,2.5664,2.66,2.75,2.7401,2.619,2.3898,2.184,2.0918,2.0858,2.1056,2.0957,2.0703,2.1016,0.0,0.0,0.0,0.0,0.0,0.0,0.0,0.0,2.1543,2.1973,2.2478,2.3297,0.0,0.0,0.0,0.0,0.0,2.4587,2.6214,2.7681,2.8041,2.821,2.8162,2.7705,0.0,0.0,0.0,0.0,0.0,0.0,2.8162,0.0,3.1408,3.3765,3.7829,4.4876,4.8074,5.1297,5.5722,5.7766,0.0,5.9859,6.0484,6.0845,6.0845,6.0436,6.0364,6.082,6.0412,6.0171,6.0171,6.0171,6.0171,6.0171,6.0171,6.0171,6.0171,6.0099,6.0051,6.0051,5.9979,5.9715,5.9069,5.826,5.7597,5.6926,5.5695,5.5252,5.5082,5.5082,5.4806,5.4485,5.5013,5.4921,5.4531,0.0,0.0,0.0,0.0,0.0,0.0,0.0,0.0,0.0,0.0,0.0,0.0,0.0,0.0,0.0,0.0,0.0,0.0,0.0,0.0,0.0,1.9065,1.9065,1.9686,2.0916,2.1391,2.2508,2.4308,2.6642,2.7823,2.7743,2.9293,2.8124,2.4663,2.3176,2.1826,2.0644,2.0644,2.084,2.1113,2.0801,0.0,0.0,0.0,0.0,0.0,0.0,0.0,0.0,2.0625,2.1055,2.1289,2.0777,0.0,0.0,0.0,0.0,0.0,2.585,2.6791,2.6959,2.6574,2.6815,2.7152,2.7079,0.0,0.0,0.0,0.0,0.0,0.0,2.9797,3.1625,0.0,0.0,4.3241,0.0,0.0,5.3365,5.5938,0.0,5.9642,5.8921,5.9714,6.0291,6.0291,6.0219,6.0219,6.0291,6.0219,6.0171,6.0171,6.0171,6.0171,6.0171,6.0171,6.0171,6.0171,5.9714,5.9498,5.9498,5.9041,5.8444,5.7547,5.7808,5.696,5.5439,5.5625,5.5345,5.4531,5.4531,5.4485,5.4485,5.5013,5.5151,5.5082,0.0,0.0,0.0,0.0,0.0,0.0,0.0,0.0,0.0,0.0,0.0,0.0,0.0,0.0,0.0,0.0,0.0,0.0,0.0,0.0,1.9292,1.9768,1.981,2.0203,2.1093,2.2294,2.395,2.5838,2.7832,2.9188,2.9809,2.9076,2.718,2.4492,2.2992,2.183,2.0896,2.0896,2.1134,2.1431,0.0,0.0,0.0,0.0,0.0,0.0,0.0,0.0,0.0,0.0,2.0312,2.0879,2.0716,0.0,0.0,0.0,0.0,0.0,2.3827,2.5204,2.6069,2.6093,2.7152,2.8138,2.7849,0.0,0.0,0.0,0.0,0.0,0.0,0.0,3.5136,4.0282,0.0,4.692,5.0263,5.2091,5.3942,0.0,0.0,5.9041,5.9426,5.9883,6.0171,6.0171,6.0171,6.0171,6.0171,6.0171,6.0171,6.0171,6.0171,6.0027,5.9738,5.9738,5.9738,5.9738,5.9209,5.8969,5.8945,5.8704,5.83,5.7571,5.7195,5.6585,5.5486,5.5276,5.4786,5.4439,5.4737,5.4668,5.4439,5.4691,5.4783,5.4783,0.0,0.0,0.0,0.0,0.0,0.0,0.0,0.0,0.0,0.0,0.0,0.0,0.0,0.0,0.0,0.0,0.0,0.0,0.0,1.8816,1.9437,2.0245,2.0472,2.101,2.1901,2.3515,2.5399,2.7572,2.927,3.0776,3.1932,2.9021,2.6642,2.4615,2.298,2.1888,2.1205,2.1205,2.1449,2.179,0.0,0.0,0.0,0.0,0.0,0.0,0.0,0.0,0.0,0.0,0.0,0.0,0.0,0.0,0.0,2.1797,2.1388,2.0776,2.2604,2.4266,2.5661,2.631,0.0,2.9196,2.9639,0.0,0.0,0.0,0.0,0.0,0.0,3.516,0.0,4.478,4.7786,5.0191,5.2475,5.3702,5.5169,5.7309,5.8031,5.8848,6.0051,6.0171,6.0171,6.0171,6.0051,6.0003,6.0003,6.0003,6.0003,6.0003,6.0003,5.9786,5.9402,5.9137,5.9089,5.9209,5.8656,5.8416,5.8416,5.8271,5.806,5.7547,5.6817,5.6163,5.5625,5.4904,5.4579,5.4462,5.4852,5.4783,5.4416,5.4416,5.4416,5.4416,0.0,0.0,0.0,0.0,0.0,0.0,0.0,0.0,0.0,0.0,0.0,0.0,0.0,0.0,0.0,0.0,0.0,0.0,0.0,1.8816,1.9292,1.9858,2.0617,2.2087,2.424,2.5233,2.6641,2.8524,3.1174,3.2747,3.3223,3.0491,2.8115,2.6074,2.4206,2.2554,2.1205,2.1205,2.1688,2.2392,2.1547,0.0,0.0,0.0,0.0,0.0,0.0,0.0,0.0,0.0,0.0,0.0,0.0,0.0,2.0257,2.2034,2.1967,2.1992,2.4968,2.5925,2.6286,2.7344,0.0,0.0,3.2609,0.0,0.0,0.0,0.0,0.0,0.0,3.9128,4.3361,4.6776,5.0359,5.363,5.6251,0.0,5.8464,5.9137,5.969,6.0051,6.0171,6.0171,6.0171,6.0171,5.9714,5.945,5.945,5.945,5.945,5.945,5.945,5.9426,5.9378,5.8416,5.8175,5.8656,5.8127,5.7862,5.7838,5.7357,5.6821,5.6501,5.6477,5.5947,5.5114,5.5091,5.4742,5.4416,5.4462,5.4439,5.4416,5.4416,5.4416,5.4416,0.0,0.0,0.0,0.0,0.0,0.0,0.0,0.0,0.0,0.0,0.0,0.0,0.0,0.0,0.0,0.0,0.0,0.0,0.0,1.8671,1.952,2.0555,2.1197,2.248,2.4509,2.6248,2.8338,3.0739,3.2354,3.2644,3.165,2.9456,2.7373,2.5599,2.4341,2.3186,2.2269,2.2043,2.2288,2.2737,2.2186,2.1961,0.0,0.0,0.0,0.0,0.0,0.0,0.0,0.0,1.9203,1.9004,1.9815,1.9971,2.0317,2.243,2.2207,2.1868,2.4318,2.5944,2.7066,2.748,0.0,0.0,0.0,0.0,0.0,0.0,0.0,0.0,0.0,0.0,4.603,4.8555,5.2091,5.5097,5.678,5.8223,5.9161,5.9353,5.957,5.981,6.0147,5.9883,5.969,5.969,5.9498,5.9233,5.8921,5.8897,5.8897,5.8897,5.8897,5.8728,5.8416,5.7694,5.743,5.7622,5.7405,5.7309,5.7309,5.7117,5.6861,5.6702,5.6566,5.6221,5.59,5.5392,5.5067,5.4742,5.4579,5.4416,5.4416,5.4416,5.4416,5.4416,0.0,0.0,0.0,0.0,0.0,0.0,0.0,0.0,0.0,0.0,0.0,0.0,0.0,0.0,0.0,0.0,0.0,0.0,1.7657,1.8444,1.9396,2.0638,2.1135,2.2356,2.4402,2.662,2.8918,3.1402,3.2582,3.2395,3.0864,2.8856,2.7179,2.5813,2.4467,2.3701,2.3412,2.2732,2.269,2.2981,2.2608,2.2237,0.0,0.0,0.0,0.0,0.0,0.0,0.0,0.0,1.9777,1.9455,2.0398,2.0638,2.098,2.3094,2.2868,2.2388,2.4299,2.5861,2.7115,2.7631,0.0,0.0,0.0,0.0,0.0,0.0,0.0,0.0,0.0,0.0,0.0,0.0,5.2956,5.5698,5.7285,5.8464,5.9137,5.9137,5.9137,5.9281,5.9642,5.9353,5.9137,5.9137,5.8993,5.8728,5.8367,5.8343,5.8343,5.8343,5.8343,5.8103,5.7574,5.7045,5.678,5.678,5.6588,5.6684,5.7021,5.7021,5.6925,5.678,5.663,5.6446,5.6144,5.548,5.5158,5.4835,5.4349,5.4278,5.4416,5.4416,5.4416,5.4416,0.0,0.0,0.0,0.0,0.0,0.0,0.0,0.0,1.4469,1.4925,1.5401,0.0,0.0,0.0,0.0,0.0,0.0,0.0,1.7637,1.8133,1.8796,1.9775,2.0182,2.1714,2.4447,2.6289,2.8152,2.9994,3.1816,3.223,3.1278,2.898,2.7676,2.7138,2.4902,2.4136,2.4447,2.308,2.277,2.3143,2.2687,2.2501,2.2377,0.0,0.0,0.0,0.0,0.0,0.0,0.0,2.0406,2.0328,2.1226,2.1797,2.2412,2.4078,2.4105,2.3863,2.5484,2.591,2.6328,2.8026,0.0,0.0,0.0,0.0,0.0,0.0,0.0,4.4539,4.5068,4.5164,0.0,5.0095,5.2908,5.553,5.8199,5.8584,5.8608,5.8584,5.8584,5.8584,5.8608,5.8584,5.8584,5.8584,5.8103,5.779,5.779,5.779,5.779,5.779,5.779,5.755,5.7021,5.6468,5.6227,5.6227,5.565,5.5963,5.7021,5.7021,5.6732,5.6275,5.6804,5.6391,5.5573,5.5573,5.5098,5.4301,5.3842,5.398,5.4393,5.4416,5.4416,5.4416,0.0,0.0,0.0,0.0,0.0,0.0,0.0,0.0,1.3993,1.4449,1.4925,0.0,0.0,0.0,0.0,0.0,0.0,0.0,1.7183,1.7968,1.8651,1.9251,2.0327,2.13,2.2108,2.424,2.7034,3.047,3.0698,2.9849,2.7986,2.7282,2.6392,2.5337,2.5295,2.484,2.4033,2.3287,2.2873,2.2708,2.2915,2.2397,2.1528,0.0,0.0,0.0,0.0,0.0,0.0,0.0,0.0,0.0,2.1649,2.2422,2.3023,2.4095,2.4587,2.5039,2.6516,2.7451,0.0,3.0573,0.0,0.0,0.0,0.0,0.0,0.0,0.0,4.7786,4.692,0.0,0.0,4.9493,5.2716,5.5433,5.6227,5.7646,5.8464,5.8079,5.8055,5.8199,5.856,5.8271,5.8055,5.8055,5.755,5.7261,5.7261,5.69,5.6708,5.6708,5.6708,5.6444,5.589,5.5361,5.5265,5.565,5.5097,5.5602,5.6997,5.6636,5.6588,5.6804,5.6949,5.655,5.5889,5.5036,5.4241,5.3654,5.3704,5.3773,5.3957,5.4278,5.4416,5.4416,0.0,0.0,0.0,0.0,0.0,0.0,0.0,0.0,1.3724,1.3993,1.4428,1.4904,0.0,0.0,0.0,0.0,0.0,0.0,0.0,1.7719,1.8402,1.9044,2.0038,2.101,2.1921,2.3991,2.6123,2.8255,2.8504,2.7841,2.631,2.6848,2.6579,2.5668,2.6744,2.6392,2.4923,2.4447,2.3681,2.2811,2.3267,2.2749,2.1673,0.0,0.0,0.0,0.0,0.0,0.0,0.0,0.0,0.0,2.2331,2.2981,2.357,2.4443,2.5158,2.5917,2.7251,2.8423,0.0,3.2817,3.6031,3.9798,4.4669,0.0,0.0,0.0,0.0,5.0077,4.9583,4.9926,0.0,5.0888,5.3101,5.5073,5.5914,5.678,5.7285,5.7189,5.7189,5.7213,5.7309,5.7237,5.7093,5.6876,5.6564,5.6371,5.6371,5.6083,5.589,5.589,5.589,5.553,5.4784,5.4664,5.4568,5.4471,5.4159,5.4712,5.6059,5.5963,5.5963,5.6059,5.6059,5.589,5.5554,5.4467,5.4155,5.4053,5.3723,5.3957,5.435,5.4301,5.4416,5.4416,0.0,0.0,1.3621,1.3621,0.0,0.0,0.0,0.0,1.3621,1.3621,1.4014,1.449,0.0,0.0,0.0,0.0,0.0,0.0,0.0,1.7389,1.8112,1.8961,1.9603,2.0969,2.3143,2.4716,2.513,2.4364,2.5751,2.6185,2.573,2.7138,2.7572,2.72,2.8524,2.809,2.6351,2.5854,2.4633,2.3101,2.3619,2.3267,2.2397,2.2004,0.0,0.0,0.0,0.0,0.0,0.0,0.0,0.0,2.3054,2.3519,2.4273,2.504,2.5795,2.6606,2.7873,0.0,0.0,0.0,3.8718,0.0,4.7908,5.083,5.2536,5.3074,0.0,5.1746,5.226,5.1153,5.0984,5.3293,5.3798,5.4568,5.654,5.5987,5.5578,5.6107,5.6155,5.5963,5.5458,5.5818,5.589,5.5433,5.5313,5.5289,5.5385,5.5313,5.5241,5.5241,5.5217,5.4688,5.3678,5.4159,5.3918,5.3004,5.3004,5.3485,5.4423,5.4977,5.5049,5.4688,5.464,5.4616,5.4616,5.4109,5.4241,5.4717,5.3849,5.4138,5.4998,5.4556,5.4416,5.4416,0.0,0.0,1.3621,1.3621,0.0,0.0,0.0,0.0,0.0,0.0,0.0,0.0,0.0,0.0,0.0,0.0,0.0,0.0,0.0,1.7284,1.7968,1.8506,2.0348,2.1942,2.3163,2.2853,2.277,2.2936,2.4674,2.5109,2.4343,2.6061,2.662,2.6227,2.7241,2.6682,2.4923,2.4115,2.3122,2.217,2.2998,2.277,2.1983,2.2252,2.2128,0.0,0.0,0.0,0.0,0.0,0.0,0.0,2.3582,2.4699,2.5539,2.5349,2.611,2.7373,2.9001,3.0231,0.0,0.0,4.389,4.8837,5.0921,5.2503,5.3203,5.2305,5.2833,5.335,5.2453,5.2644,5.2884,5.2644,5.363,5.4592,5.5049,5.5289,5.5433,5.5554,5.5578,5.553,5.5409,5.5121,5.5073,5.5385,5.4616,5.452,5.5361,5.4616,5.4159,5.4159,5.3774,5.3269,5.262,5.2716,5.2668,5.2451,5.2451,5.2572,5.2812,5.3726,5.4544,5.5193,5.4784,5.4616,5.4568,5.3704,5.3718,5.4218,5.4022,5.4405,5.5014,5.4928,5.4905,5.4905,0.0,0.0,0.0,0.0,0.0,0.0,0.0,0.0,0.0,0.0,0.0,0.0,0.0,0.0,0.0,0.0,0.0,0.0,0.0,0.0,1.8216,1.9313,2.0928,2.1921,2.219,2.1942,2.1818,2.1838,2.2791,2.337,2.3577,2.5192,2.602,2.6268,2.7407,2.6786,2.484,2.4364,2.337,2.217,2.2666,2.2563,2.2205,2.2611,2.231,2.1886,2.2556,0.0,0.0,0.0,0.0,0.0,0.0,0.0,2.5732,2.5819,2.6735,2.7996,0.0,0.0,0.0,4.1555,0.0,5.0795,5.2176,5.2929,5.3053,5.233,5.3074,5.3472,5.2477,5.2716,5.298,5.2716,5.3125,5.3678,5.4159,5.4039,5.3991,5.4255,5.4279,5.4183,5.3918,5.3894,5.387,5.3894,5.3389,5.3317,5.387,5.3389,5.3077,5.3077,5.2836,5.2427,5.1898,5.2163,5.2018,5.1537,5.1778,5.1898,5.1922,5.2716,5.3654,5.4616,5.4087,5.4015,5.4207,5.3641,5.3832,5.4358,5.4443,5.4807,5.5328,5.5366,5.523,5.5067,0.0,0.0,0.0,0.0,0.0,0.0,0.0,0.0,0.0,0.0,0.0,0.0,0.0,0.0,0.0,0.0,0.0,0.0,0.0,0.0,0.0,2.0245,2.1271,2.1624,2.1238,2.1445,2.1424,2.1114,2.1031,2.1776,2.3329,2.4633,2.5757,2.6773,2.7814,2.7096,2.5109,2.4943,2.3908,2.2377,2.2616,2.2673,2.2646,2.3166,2.2842,2.2339,2.3364,2.3432,2.3239,2.4036,0.0,0.0,0.0,0.0,2.5676,2.6302,2.7118,2.8097,0.0,0.0,3.7312,4.4518,4.8385,0.0,5.2553,5.2929,5.2779,5.2668,5.2902,5.3008,5.2284,5.2211,5.2379,5.274,5.2499,5.2572,5.3437,5.2812,5.2451,5.2884,5.2932,5.2764,5.2331,5.2596,5.2644,5.2307,5.2187,5.2187,5.2283,5.2187,5.2139,5.2139,5.2067,5.1802,5.1369,5.1778,5.1562,5.072,5.1153,5.1393,5.1489,5.185,5.2572,5.3534,5.3221,5.3293,5.3702,5.3774,5.4135,5.464,5.4789,5.5135,5.5659,5.5682,5.5413,5.5113,0.0,0.0,0.0,0.0,0.0,0.0,0.0,0.0,0.0,0.0,1.3621,1.3807,0.0,0.0,0.0,0.0,0.0,0.0,1.6353,0.0,0.0,1.9879,2.1275,2.1934,2.1714,2.099,2.0783,2.1114,2.0721,2.1631,0.0,0.0,2.5925,2.7147,2.6949,2.602,2.4571,2.3784,2.2853,2.1998,2.3067,2.3308,2.3057,2.4138,2.4203,2.3891,2.4708,2.4378,2.3628,2.4708,2.4847,0.0,0.0,0.0,2.6371,2.6465,2.6634,2.7017,0.0,0.0,4.0199,0.0,4.8385,5.087,0.0,0.0,5.2817,0.0,5.2643,5.2445,5.1729,5.197,5.2163,5.1778,5.2018,5.2331,5.2475,5.2355,5.2307,5.2379,5.2379,5.2355,5.2283,5.1922,5.1874,5.2259,5.185,5.1802,5.2259,5.185,5.1586,5.1586,5.1153,5.0888,5.0816,5.0888,5.084,5.0696,5.0768,5.1056,5.1489,5.1081,5.1489,5.2499,5.2908,5.3101,5.3197,5.363,5.4135,5.4616,5.4688,5.4871,5.5422,5.5636,5.551,5.5581,0.0,0.0,0.0,0.0,0.0,0.0,0.0,0.0,0.0,0.0,0.0,1.4076,0.0,0.0,0.0,1.5608,1.5691,1.6147,1.7205,1.804,1.9113,2.0446,2.0771,2.1207,2.1756,2.1016,2.0828,2.1296,2.1555,0.0,0.0,2.6109,2.6737,0.0,2.7147,2.6402,2.5487,2.4581,2.3765,2.3106,2.3481,2.3576,2.3717,2.4676,2.4679,2.4253,2.5511,2.5061,2.4047,2.5508,2.5505,2.5126,2.5742,0.0,0.0,0.0,2.6691,2.762,3.0834,3.47,3.9044,0.0,4.6979,4.9088,5.1071,0.0,5.1865,5.1569,5.1358,5.1313,5.1338,5.1486,5.1583,5.1081,5.1249,5.1393,5.1393,5.1393,5.1393,5.1393,5.1393,5.1393,5.1393,5.1177,5.1153,5.1393,5.1177,5.1153,5.1393,5.1177,5.1056,5.1056,5.0816,5.0696,5.0696,5.0696,5.0696,5.0696,5.0696,5.0816,5.1032,5.0816,5.1273,5.2283,5.2524,5.2788,5.3101,5.3606,5.3942,5.4207,5.4496,5.4736,5.5049,5.5758,5.5731,5.5644,0.0,0.0,0.0,0.0,0.0,0.0,0.0,0.0,0.0,0.0,0.0,0.0,0.0,0.0,0.0,0.0,1.58,1.6279,1.7636,1.8156,1.9073,2.0563,2.043,2.0722,2.1609,2.1107,2.1018,2.1393,2.2207,0.0,2.7348,2.7428,2.8152,0.0,2.8315,2.7612,2.6971,2.5984,0.0,2.4895,2.4211,2.4166,2.4492,2.53,2.5229,2.485,2.6094,2.5721,2.4921,2.6094,2.6094,2.5746,2.6302,2.6533,0.0,0.0,0.0,2.7896,0.0,0.0,3.6358,4.163,4.4418,4.6552,0.0,0.0,5.077,0.0,5.0479,5.0407,5.093,5.092,5.0688,5.0311,5.0527,5.0648,5.0503,5.06,5.0696,5.0696,5.0696,5.0696,5.0696,5.0696,5.0696,5.0696,5.0696,5.0696,5.0696,5.0696,5.0696,5.0696,5.0696,5.0696,5.0696,5.0696,5.0696,5.0696,5.0696,5.0696,5.0696,5.0696,5.1129,5.1898,5.2163,5.2499,5.2908,5.3413,5.3702,5.3846,5.4111,5.4303,5.452,5.5482,5.5734,5.5612,0.0,0.0,0.0,0.0,0.0,0.0,0.0,0.0,0.0,0.0,0.0,0.0,1.5018,1.5464,1.5989,1.6417,1.5997,1.6153,1.7157,1.8742,1.9696,1.9654,2.0676,0.0,2.1146,2.1106,2.1106,2.1152,2.2134,2.4154,2.7162,2.8172,3.0148,3.2841,3.0918,2.9594,2.8688,0.0,0.0,2.7139,2.5777,2.5205,2.53,2.6094,2.6396,2.6396,2.6465,2.6465,2.6396,2.6465,2.6465,2.6465,2.6465,2.6533,2.6533,0.0,0.0,0.0,0.0,3.0382,0.0,3.7236,4.04,0.0,0.0,0.0,4.9364,5.0946,5.0845,5.0513,5.0687,5.0255,4.9758,4.9253,5.0022,5.0527,4.9974,5.0359,5.0696,5.0696,5.0696,5.0696,5.0696,5.0696,5.0696,5.0696,5.0696,5.0696,5.0696,5.0696,5.0696,5.0696,5.0696,5.0696,5.0696,5.0696,5.0696,5.0696,5.0696,5.0696,5.0696,5.0696,5.0744,5.084,5.185,5.2307,5.2355,5.2884,5.3389,5.3774,5.3317,5.3437,5.3918,5.4496,5.5001,5.5506,0.0,0.0,0.0,0.0,0.0,0.0,0.0,0.0,0.0,0.0,0.0,0.0,0.0,1.6277,1.6582,1.7029,1.7176,1.7585,1.8309,1.8929,1.9613,2.0256,2.0619,2.115,2.1861,2.1773,2.1895,2.2185,2.3417,2.5057,2.6978,2.8187,2.9962,3.201,3.1313,3.0664,2.9863,2.8409,0.0,2.7236,2.6399,2.6094,2.6094,2.6396,2.6533,2.6584,2.6866,2.6992,2.7042,2.7394,2.7293,2.6992,2.6992,2.6741,2.6533,2.6533,2.6533,2.6816,0.0,0.0,0.0,3.4876,3.7437,3.9697,4.2509,4.4694,4.6376,4.7355,4.7833,4.8106,4.8526,4.9411,5.0011,4.9791,4.9673,4.9728,4.9648,4.968,4.9662,4.9662,4.995,5.0167,5.0167,5.0167,5.0311,5.0672,5.0359,5.0335,5.0672,5.0696,5.0696,5.0696,5.0696,5.0696,5.0696,5.0696,5.0696,5.0696,5.0696,5.0696,5.0696,5.0696,5.0696,5.0744,5.1465,5.1778,5.1826,5.2355,5.286,5.3317,5.3149,5.3365,5.387,5.4399,5.4928,5.5482,0.0,0.0,0.0,0.0,0.0,1.749,1.749,1.749,1.7521,1.7634,0.0,0.0,0.0,0.0,1.7529,1.7617,1.826,1.8738,1.8999,1.9186,1.9695,2.0639,2.0804,2.1289,2.2297,2.2603,2.2799,2.2907,2.435,2.5716,2.7066,2.8276,2.9738,3.1411,3.1097,3.1223,0.0,0.0,0.0,2.88,2.7344,2.6967,2.7318,2.7494,2.7695,2.7896,2.8273,2.8273,2.8122,2.8122,2.7745,2.7293,2.7293,2.6892,2.6533,2.6533,2.6533,2.6691,2.7795,0.0,0.0,0.0,3.455,3.6081,3.9245,4.1229,4.2836,4.4342,4.5285,4.6213,4.7134,4.8397,4.9166,4.918,4.884,4.8874,4.9068,4.9092,4.9004,4.906,4.9373,4.9589,4.9589,4.9589,4.9758,5.0143,4.9806,4.9854,5.0383,5.0263,5.0239,5.0407,5.0239,5.0335,5.0696,5.0503,5.0527,5.0696,5.0696,5.0696,5.0696,5.0696,5.06,5.0455,5.0984,5.1321,5.1513,5.1874,5.2331,5.2788,5.262,5.2956,5.3606,5.3966,5.464,5.5458,0.0,0.0,1.8093,1.8093,1.8093,1.8147,1.8147,1.8147,1.8147,1.8147,0.0,0.0,0.0,0.0,0.0,1.8271,1.9235,1.9654,1.91,1.955,2.0112,2.0718,2.1217,2.1769,2.2297,2.3401,2.3703,2.3065,2.4782,2.6138,2.7243,2.8348,2.9754,3.126,3.0231,3.126,3.3671,0.0,3.1612,3.1888,2.8599,2.7971,2.9026,2.9578,3.0131,3.0608,3.0658,3.0331,2.9729,2.8599,2.7871,2.7394,2.7318,2.6892,2.6533,2.6533,2.6533,2.6533,0.0,0.0,0.0,3.126,3.1687,3.2591,3.7513,3.8241,3.8818,4.2133,4.3689,4.497,4.6702,4.7085,4.7255,4.7158,4.7588,4.804,4.8281,4.8488,4.8816,4.9053,4.9012,4.9012,4.9012,4.9036,4.906,4.906,4.906,4.9277,4.9806,4.9349,4.9325,4.983,4.9349,4.9589,5.0648,5.0119,5.0119,5.0672,5.0672,5.0696,5.0696,5.0696,5.0407,4.9902,5.0455,5.096,5.1441,5.1465,5.1778,5.2211,5.1706,5.2163,5.3077,5.3101,5.4087,5.5385,0.0,1.8093,1.8093,1.8093,1.8494,1.8762,1.8762,1.8762,1.8922,0.0,0.0,0.0,1.9932,2.081,2.1336,2.1141,2.145,2.1387,2.0822,2.0961,2.1091,2.1267,2.1794,2.2146,2.2322,2.3,2.3301,2.3065,2.4406,2.5184,2.5536,2.7042,2.8197,2.9026,2.9126,2.9829,3.0809,2.9126,0.0,3.0834,2.8298,2.8423,3.008,2.9428,2.9779,3.0708,3.1486,3.1938,3.2064,3.1311,3.0708,2.9905,2.7921,2.6892,2.6533,2.6533,2.6533,2.6533,2.6533,0.0,0.0,0.0,0.0,0.0,3.239,3.3696,3.5378,3.8693,3.9948,4.1229,4.3664,4.4336,4.4531,4.4957,4.6015,4.706,4.7592,4.736,4.7021,4.7167,4.787,4.8052,4.7401,4.805,4.8507,4.8507,4.8507,4.8748,4.9277,4.9157,4.9157,4.9301,4.9157,4.9229,4.9517,4.9373,4.9565,5.0095,5.0095,5.0311,5.0696,5.0696,5.0407,4.9878,5.0022,5.0191,5.0335,5.0744,5.1225,5.173,5.197,5.2475,5.3149,5.3918,5.4688,5.5458,1.8898,1.8792,1.8917,1.9156,1.9643,2.003,2.003,2.0226,2.0385,0.0,0.0,0.0,2.1317,2.2347,2.2824,2.2347,2.2322,2.2071,2.1518,2.1493,2.1493,2.1493,2.202,2.2322,2.2322,2.31,2.3376,2.3065,2.4481,2.5034,2.4858,2.6264,2.7118,2.7419,2.7494,2.7996,2.8649,2.7193,2.8021,3.0181,2.9101,2.9854,3.1637,3.1687,3.239,3.3445,3.4048,3.45,3.4625,3.3621,3.2416,3.0859,2.7871,2.7042,2.7042,2.6659,2.6791,2.7092,2.6866,2.6967,2.7394,2.8423,0.0,0.0,3.0256,3.0984,3.2215,3.5303,3.6584,3.7914,4.0425,4.1247,4.1654,4.2451,4.3671,4.5036,4.6662,4.6483,4.6304,4.6524,4.698,4.7248,4.6803,4.7399,4.7907,4.7907,4.7967,4.8098,4.8411,4.8628,4.8748,4.8748,4.8315,4.8411,4.906,4.8652,4.8796,4.9541,4.9541,4.971,5.0022,5.0239,5.0046,4.9541,4.9782,4.9734,4.9589,5.0143,5.0672,5.1225,5.1754,5.2403,5.3173,5.3991,5.4904,5.5794,0.0,1.9861,2.0087,2.0718,2.1217,2.1619,2.1744,2.2071,2.2196,0.0,2.192,2.2171,2.2799,2.3703,2.3828,2.2774,2.2623,2.2322,2.1719,2.1669,2.1669,2.1669,2.2196,2.2498,2.2498,2.3552,2.3803,2.3226,2.4757,2.5234,2.4757,2.5787,2.6289,2.6264,2.5812,2.6163,2.7042,2.6214,2.7318,2.9654,3.0331,3.1687,3.342,3.4951,3.6232,3.7186,3.7262,3.7312,3.7111,3.5454,3.337,3.0959,2.7946,2.7544,2.7996,2.7017,2.7394,2.7996,2.7494,2.777,2.8549,2.998,2.8976,0.0,2.993,2.9603,2.9679,3.234,3.3571,3.4876,3.7136,3.8065,3.8793,3.9722,4.0839,4.2524,4.5453,4.5822,4.6044,4.6535,4.6382,4.628,4.6459,4.6792,4.69,4.698,4.7254,4.7329,4.7329,4.7762,4.8026,4.8026,4.7064,4.7233,4.8724,4.7786,4.7834,4.882,4.894,4.8988,4.9012,4.9589,4.9565,4.9109,4.9638,4.9589,4.9205,4.9662,5.0167,5.0672,5.1321,5.2187,5.3149,5.3774,5.4952,5.6251,1.9811,2.0162,2.0665,2.1242,2.1794,2.2447,2.3376,2.2824,2.2749,2.4004,2.4531,2.5184,2.6214,2.6113,2.5711,2.5008,2.4582,2.3904,2.2874,2.2824,2.2824,2.2824,2.3351,2.3678,2.3678,2.433,2.4381,2.3828,2.4607,2.4682,2.418,2.4833,2.5134,2.5159,2.546,2.5711,2.6013,2.7143,2.7921,2.8574,3.003,3.2139,3.4474,3.5253,3.6232,3.7236,3.7688,3.814,3.8291,3.6609,3.4274,3.1863,3.0758,2.9654,2.8725,2.8499,2.8273,2.8072,2.7971,2.8348,2.875,2.8624,2.9277,0.0,2.88,2.8775,2.9453,3.1336,3.121,3.1562,3.4198,3.5529,3.6132,3.5881,3.8542,4.1572,4.3886,4.4376,4.4581,4.468,4.4861,4.4572,4.4037,4.4884,4.5387,4.5327,4.6075,4.648,4.6223,4.6319,4.6391,4.6391,4.5766,4.579,4.6535,4.6343,4.6535,4.7185,4.8026,4.8459,4.8483,4.9421,4.9565,4.9109,4.9638,4.9806,4.9734,4.983,4.9926,5.0167,5.1586,5.2524,5.3221,5.4592,5.5578,5.6299,2.0639,2.0865,2.1343,2.2171,2.2774,2.3527,2.4632,2.4556,2.4782,2.5912,2.6766,2.7168,2.6892,2.7118,2.6816,2.5686,2.5134,2.4456,2.3627,2.3301,2.3065,2.3065,2.3678,2.413,2.4406,2.4406,2.4406,2.4406,2.4406,2.428,2.4004,2.4556,2.4958,2.5209,2.5209,2.5511,2.6088,2.6917,2.7595,2.8323,3.0834,3.2993,3.4876,3.6257,3.7462,3.8517,3.9069,3.9446,3.9295,3.681,3.5228,3.3922,3.1712,3.0809,3.0407,2.9603,2.9553,2.9628,2.9101,2.9528,3.008,2.9804,2.998,0.0,0.0,2.8725,2.9001,3.0658,2.9905,2.9628,3.1863,3.2491,3.2842,3.3395,3.5579,3.7889,3.9848,4.2038,4.3358,4.3587,4.3491,4.3523,4.3523,4.4279,4.4839,4.4957,4.5731,4.5942,4.5549,4.579,4.5814,4.5549,4.502,4.4996,4.5525,4.5261,4.5669,4.6728,4.7257,4.7642,4.793,4.8724,4.894,4.8724,4.9253,4.9325,4.9109,4.9373,4.9469,4.9662,5.1537,5.2596,5.3197,5.4231,5.5289,5.6227,2.1518,2.1568,2.197,2.289,2.3703,2.4531,2.5611,2.6063,2.654,2.7193,2.8348,2.8624,2.7394,2.777,2.7695,2.664,2.582,2.5163,2.4808,2.4078,2.3573,2.3452,2.4004,2.4506,2.4958,2.4632,2.4682,2.5134,2.4381,2.4054,2.4155,2.4506,2.4933,2.5435,2.5109,2.5586,2.6684,2.6741,2.7544,2.9001,3.1913,3.3545,3.4525,3.7036,3.8517,3.932,4.0074,4.035,3.9923,3.7136,3.6408,3.6132,3.2792,3.2164,3.2416,3.1009,3.111,3.1537,3.0658,3.121,3.1964,3.1637,3.121,3.0733,0.0,0.0,0.0,3.0206,2.9202,2.8549,3.003,3.0005,3.0231,3.1537,3.2867,3.4223,3.5579,3.8816,4.1205,4.1957,4.1613,4.1753,4.295,4.3491,4.4035,4.4836,4.5098,4.5146,4.4683,4.5285,4.5333,4.4708,4.4347,4.4347,4.4683,4.4467,4.4924,4.6102,4.6415,4.6776,4.7209,4.7858,4.8195,4.8315,4.8964,4.894,4.8483,4.9012,4.9181,4.9277,5.1225,5.2427,5.3125,5.363,5.4856,5.6155,2.1669,2.187,2.2422,2.3025,2.4029,2.5109,2.6189,2.5988,2.6088,2.7143,2.8699,2.9804,3.0105,2.8925,2.8624,2.993,2.8338,2.7369,2.7641,2.6439,2.534,2.4632,2.5134,2.5435,2.5511,2.5963,2.6282,2.6332,2.4757,2.4255,2.4732,2.428,2.4381,2.4933,2.5335,2.6138,2.7218,2.772,2.9126,3.1135,3.2516,3.2842,3.2893,3.6609,3.7789,3.7663,3.9245,3.9798,3.9647,3.8793,3.8191,3.7588,3.6182,3.5152,3.4299,3.3621,3.3169,3.2867,3.2742,3.3495,3.3997,3.2491,3.352,3.4123,3.1185,0.0,3.0809,3.0055,0.0,2.8323,2.9001,0.0,0.0,3.003,3.1813,3.3244,3.342,3.4726,3.6288,3.8341,3.7418,3.7693,4.0308,4.0997,4.1991,4.3713,4.3468,4.3183,4.3384,4.4109,4.4058,4.3048,4.3409,4.3433,4.3024,4.3914,4.4178,4.389,4.5333,4.6054,4.615,4.7136,4.7858,4.8339,4.9349,4.9469,4.9036,4.9565,4.9493,4.9205,5.0407,5.1778,5.3125,5.363,5.4856,5.6227,2.2548,2.2623,2.3075,2.3954,2.4506,2.531,2.6716,2.8097,2.89,2.875,3.0181,3.1286,3.1512,3.0357,3.0188,3.1678,3.001,2.8984,2.9331,2.7695,2.6773,2.6716,2.6615,2.6866,2.7519,2.7143,2.6942,2.6942,2.5586,2.4883,2.4808,2.4582,2.4933,2.5787,2.6013,2.6716,2.7846,2.9051,2.9729,3.0181,3.2591,3.3018,3.2641,3.6533,3.8467,3.917,3.9546,3.9898,4.0049,3.917,3.8718,3.8316,3.7211,3.6307,3.5504,3.4625,3.4198,3.4022,3.4022,3.4851,3.5454,3.4399,3.46,3.4525,3.2516,3.1712,3.1361,3.121,0.0,0.0,0.0,0.0,0.0,0.0,3.0557,3.1286,3.1612,3.1763,3.2918,3.5755,3.5587,3.5949,3.7966,3.896,3.9668,4.0256,4.0856,4.112,4.125,4.2559,4.3119,4.276,4.3096,4.3216,4.276,4.3481,4.3914,4.401,4.4996,4.5621,4.5958,4.6704,4.7161,4.7425,4.8507,4.8652,4.8195,4.8724,4.882,4.8676,4.9133,5.0287,5.1802,5.262,5.3726,5.4784,2.3351,2.319,2.3452,2.4431,2.4732,2.5385,2.7017,2.9101,3.0331,2.9854,3.0959,3.2064,3.2817,3.2162,3.2577,3.4633,3.3143,3.2226,3.2452,3.0137,2.8769,2.9001,2.821,2.8094,2.8971,2.8145,2.7745,2.7745,2.6465,2.5787,2.5711,2.541,2.5862,2.6917,2.7067,2.7846,2.9101,3.0633,3.116,3.1185,3.3596,3.4349,3.4299,3.6835,3.8818,4.0249,3.9848,3.9948,4.0199,3.9546,3.932,3.9145,3.8191,3.7588,3.7036,3.5755,3.5504,3.5579,3.5429,3.6107,3.6684,3.5956,3.5454,3.4876,3.3771,3.3018,3.2566,3.2667,3.2064,0.0,0.0,0.0,3.0457,3.0457,0.0,3.0306,3.0583,3.0131,3.0783,3.3495,3.4349,3.5086,3.6098,3.6848,3.7519,3.7664,3.8442,3.8989,3.9453,4.1023,4.2026,4.2204,4.2901,4.2998,4.2327,4.312,4.3649,4.3914,4.4443,4.5116,4.5934,4.6319,4.6655,4.6968,4.7906,4.8002,4.7545,4.8074,4.8195,4.8122,4.8555,4.9349,5.0407,5.161,5.2812,5.3798,2.3853,2.3527,2.3326,2.3929,2.4481,2.5385,2.7017,2.7821,2.8599,2.9654,3.0306,3.1687,3.4349,3.4632,3.6095,3.9974,3.8796,3.7972,3.8188,3.4426,3.1891,3.1319,2.974,2.8994,2.9274,2.8969,2.8875,2.8875,2.7243,2.6967,2.7971,2.6917,2.6992,2.8072,2.8599,2.9754,3.1361,3.2516,3.4198,3.6132,3.6232,3.7236,3.8542,3.7588,3.8266,3.9722,3.9697,3.9697,3.9798,4.03,4.0475,4.0375,3.9798,3.9597,3.927,3.7588,3.7487,3.7789,3.7236,3.7513,3.7688,3.6609,3.6307,3.6031,3.4926,3.5052,3.5127,3.4073,3.3822,3.3646,3.3093,3.2516,3.2139,3.2139,3.1687,0.0,0.0,3.0131,3.0206,3.1361,3.342,3.4751,3.4801,3.4826,3.5529,3.7111,3.6497,3.6725,3.8336,3.9927,4.0765,4.0877,4.2541,4.276,4.1244,4.276,4.3289,4.2808,4.3337,4.4395,4.5934,4.5934,4.6511,4.7521,4.805,4.8002,4.7545,4.8074,4.7978,4.769,4.9229,4.9541,4.9325,5.0936,5.2499,5.3966,2.5511,2.546,2.5385,2.5586,2.5787,2.6339,2.762,2.8925,3.0722,3.3346,3.4862,3.719,4.1026,4.1153,4.1895,4.4056,4.2592,4.1418,4.1295,3.7636,3.5707,3.6089,3.329,3.1898,3.2175,3.0777,2.9503,2.8373,2.7821,2.7369,2.7017,2.7017,2.7193,2.7595,2.8524,2.9453,3.0507,3.3068,3.4173,3.4349,3.6182,3.8341,4.0375,3.927,3.9195,3.9697,3.9697,3.9923,4.0325,4.0877,4.1053,4.1028,4.0852,4.0526,4.0049,3.912,3.8969,3.9245,3.9798,4.0325,4.04,3.8919,3.8567,3.799,3.578,3.5981,3.6207,3.4751,3.5027,3.5127,3.3847,3.3169,3.2541,3.1788,3.1512,3.1085,0.0,2.9905,3.0055,3.0783,3.1838,3.239,3.2039,3.2641,3.3144,3.3345,3.3931,3.4669,3.568,3.7938,3.9496,4.0134,4.225,4.291,4.2026,4.3626,4.3869,4.3022,4.3771,4.4539,4.5405,4.5405,4.5982,4.6992,4.7161,4.7353,4.7521,4.769,4.7666,4.7593,4.8483,4.894,4.9325,5.1297,5.2355,5.3053,2.6389,2.6615,2.6741,2.6741,2.6917,2.7344,2.8273,3.052,3.3079,3.5685,3.8345,4.1491,4.513,4.5879,4.6628,4.774,4.6673,4.5183,4.3455,4.0983,3.9387,3.8971,3.6465,3.5089,3.5197,3.3323,3.1312,2.9474,2.9328,2.8699,2.7645,2.7595,2.767,2.7921,2.9026,2.9829,3.0583,3.4098,3.5177,3.4726,3.691,3.8868,4.0375,3.9672,3.9873,4.0526,4.0124,4.0224,4.0626,4.1379,4.163,4.163,4.163,4.153,4.1254,4.0501,4.0551,4.1028,4.1731,4.2183,4.2233,4.1379,4.0852,3.9998,3.7814,3.8015,3.8191,3.6533,3.6609,3.6634,3.5554,3.4424,3.337,3.2441,3.1938,3.1235,0.0,2.9804,2.993,3.0281,3.0783,3.106,3.0909,3.1361,3.1512,3.1135,3.2122,3.3059,3.3806,3.6177,3.8111,3.934,4.1657,4.2618,4.1964,4.3573,4.3939,4.2944,4.3602,4.4374,4.514,4.514,4.5814,4.6968,4.68,4.7016,4.7497,4.7497,4.7497,4.7569,4.8291,4.8772,4.9325,5.1273,5.2596,5.3582,2.6684,2.7042,2.7394,2.7394,2.7846,2.8373,2.89,3.233,3.5372,3.6618,4.0849,4.4621,4.684,4.8658,5.0153,5.1073,5.0944,4.9259,4.5214,4.4365,4.2923,4.0323,3.9333,3.8697,3.8263,3.6383,3.4219,3.2016,3.1567,3.0758,2.9679,2.8624,2.8398,2.89,3.008,3.0884,3.1612,3.5479,3.7161,3.7362,3.8467,3.8969,3.9019,3.8969,4.03,4.2057,4.0927,4.0551,4.0752,4.1831,4.2208,4.2233,4.2258,4.2635,4.2861,4.1856,4.2258,4.3087,4.3162,4.3162,4.3263,4.379,4.3087,4.1982,4.0877,4.1053,4.0978,3.9295,3.8542,3.814,3.8015,3.6232,3.4575,3.3997,3.2918,3.1637,3.008,2.988,2.988,2.988,3.0306,3.0809,3.126,3.0884,3.0608,3.0583,3.106,3.1838,3.2943,3.4803,3.6552,3.8212,4.0671,4.1742,4.1299,4.2872,4.3296,4.2409,4.2992,4.3869,4.514,4.5116,4.5982,4.7473,4.692,4.6992,4.7497,4.7521,4.7521,4.7617,4.87,4.9157,4.9421,5.0984,5.3197,5.5409,2.885,2.9051,2.9151,2.9151,2.9252,2.9402,2.9553,3.2927,3.6855,4.0532,4.5052,4.9274,5.2816,5.4086,5.4512,5.4259,5.3752,5.2845,5.1308,4.9123,4.7657,4.7174,4.4188,4.2288,4.1594,3.7952,3.52,3.3278,3.1263,2.9628,2.8549,2.8649,2.8348,2.7795,2.9754,3.0683,3.1035,3.45,3.691,3.8492,3.9195,4.0224,4.1229,4.04,4.1204,4.2559,4.1053,4.1028,4.1831,4.2534,4.3037,4.3438,4.3865,4.4091,4.4242,4.4392,4.4317,4.4468,4.5723,4.5773,4.5497,4.5623,4.4819,4.3689,4.261,4.276,4.2585,4.0526,4.03,3.9973,3.8316,3.6533,3.5027,3.4048,3.2616,3.1461,3.1035,3.0984,3.0984,3.0984,3.0758,3.0507,3.0231,3.0457,3.0432,3.003,3.0507,3.111,3.1788,3.3834,3.5625,3.7072,3.9586,4.1155,4.1607,4.2821,4.3251,4.3128,4.3856,4.4598,4.5493,4.5105,4.5876,4.7449,4.6535,4.6655,4.7521,4.793,4.7858,4.7642,4.9084,5.0407,5.1562,5.2379,5.3822,5.5458,2.9402,3.0005,3.0482,3.0482,3.169,3.2658,3.2375,3.49,3.8274,4.234,4.7163,5.1043,5.3267,5.5516,5.6636,5.6258,5.5678,5.4591,5.3029,5.2014,5.0898,4.9567,4.7574,4.5892,4.46,4.0725,3.7389,3.4741,3.2254,3.0292,2.885,2.8649,2.8373,2.8072,2.9829,3.0733,3.1185,3.5175,3.7622,3.902,4.0537,4.1286,0.0,4.1254,4.1808,4.2509,4.1555,4.163,4.2283,4.3062,4.3539,4.389,4.4443,4.4794,4.5121,4.5673,4.5799,4.6024,4.7456,4.7631,4.7456,4.7682,4.7079,4.6075,4.4744,4.4493,4.3991,4.2007,4.1254,4.0526,3.9019,3.6985,3.5027,3.342,3.2365,3.1662,3.1411,3.1386,3.1386,3.1386,3.1135,3.0733,3.0206,3.0206,3.0131,2.9804,3.0507,3.1085,3.1361,3.3269,3.4911,3.6148,3.9243,4.0946,4.1214,4.3262,4.3821,4.2985,4.3869,4.4618,4.4938,4.4865,4.5634,4.7112,4.6271,4.6655,4.7858,4.8171,4.8122,4.7978,4.9325,5.072,5.2067,5.3029,5.4231,5.5482,2.9327,3.0457,3.1486,3.1486,3.4263,3.6637,3.6897,3.8345,4.0588,4.3753,4.8668,5.1875,5.2045,5.5296,5.7477,5.7565,5.71,5.5724,5.3262,5.4201,5.353,5.0427,5.0227,4.932,4.7491,4.3844,4.0178,3.6361,3.3993,3.1758,2.9779,2.88,2.8549,2.8976,3.0105,3.109,3.2187,3.6664,3.8877,3.9497,4.195,4.2192,4.1126,4.2112,4.2604,4.2696,4.2443,4.2359,4.2534,4.3564,4.3966,4.4116,4.4669,4.5196,4.5723,4.6326,4.6803,4.738,4.856,4.8837,4.9039,4.9696,4.9368,4.8535,4.7071,4.6382,4.5613,4.3727,4.2141,4.0938,4.0049,3.766,3.5042,3.2867,3.255,3.2432,3.1788,3.1662,3.1612,3.1612,3.1537,0.0,3.0678,3.0231,2.988,2.9804,3.0733,3.1311,3.1386,3.2918,3.4324,3.5504,3.8969,4.0777,4.0727,4.3539,4.4227,4.2736,4.3771,4.4166,4.4183,4.4524,4.5518,4.681,4.615,4.6824,4.8426,4.8363,4.8483,4.87,4.9614,5.0648,5.1778,5.3269,5.4496,5.5482,3.0909,3.1562,3.2064,3.2064,3.4917,3.8692,4.2917,4.4927,4.6771,4.8844,5.2787,5.5892,5.6933,5.7683,5.8348,5.89,5.8842,5.8523,5.8061,5.7249,5.6495,5.5921,5.3917,5.2194,5.0801,4.6358,4.239,3.8933,3.5272,3.2251,2.9779,2.9603,2.9302,2.8976,3.0105,3.2128,3.4809,3.7037,3.9336,4.1624,4.2993,4.3679,4.3942,4.3624,4.4441,4.5528,4.4096,4.3514,4.3614,4.4267,4.4794,4.5296,4.5849,4.6075,4.6351,4.733,4.738,4.7481,4.9038,4.9113,4.9141,5.0761,5.039,4.9559,4.9369,4.9191,4.8417,4.5639,4.4837,4.3945,4.1518,3.906,3.6676,3.4564,3.4546,3.4443,3.3557,3.3068,3.2792,3.2792,3.2365,3.178,3.1091,3.0703,3.0281,2.9829,3.0382,3.0934,3.1361,3.2541,3.3922,3.5504,3.7086,3.9195,4.1856,4.2007,4.2724,4.4227,4.3951,4.412,4.4734,4.4618,4.5674,4.7458,4.6408,4.6954,4.8719,4.8908,4.9469,5.0311,5.0479,5.1201,5.2283,5.3413,5.4496,5.5482,3.3319,3.352,3.4123,3.6264,3.9508,4.3421,4.8136,5.1014,5.2492,5.1875,5.3794,5.5418,5.6021,5.7772,5.9074,5.9713,5.948,5.9422,5.9742,5.8871,5.8029,5.7332,5.5503,5.3588,5.1672,4.7462,4.3404,3.9651,3.5764,3.2646,3.0206,2.9628,2.9352,2.9453,3.1672,3.3819,3.6102,3.904,4.1094,4.2658,4.4925,4.569,4.5635,4.6234,4.6451,4.635,4.6187,4.6062,4.5943,4.5309,4.5893,4.678,4.6793,4.6928,4.7305,4.8109,4.8184,4.8334,5.0129,5.0358,5.0581,5.2183,5.1842,5.1123,5.0949,5.0551,4.9778,4.7758,4.669,4.5161,4.2237,3.9907,3.8241,3.7753,3.6586,3.5843,3.6245,3.5536,3.49,3.49,3.3985,3.3085,3.2439,3.1669,3.0948,3.0124,3.0628,3.126,3.1788,3.2616,3.3696,3.5077,3.7036,3.8969,4.0852,4.2032,4.3011,4.3765,4.379,4.4011,4.4575,4.4932,4.5946,4.7194,4.6834,4.7627,4.9266,4.9101,4.9541,5.0263,5.0263,5.0768,5.1586,5.2644,5.3678,5.4736,3.6455,3.6506,3.751,4.1232,4.4711,4.8347,5.2169,5.5587,5.6962,5.4766,5.4882,5.5224,5.5367,5.7772,5.9742,6.0351,5.9974,5.9858,6.0177,5.9626,5.8842,5.7768,5.6374,5.4633,5.2455,4.8653,4.4686,4.0493,3.6877,3.3802,3.1255,3.0214,3.0062,3.0775,3.3509,3.5707,3.7427,4.1016,4.2998,4.3863,4.687,4.7714,4.7295,4.8406,4.8359,4.7658,4.8162,4.8708,4.8981,4.7054,4.725,4.8212,4.7769,4.7968,4.8356,4.8812,4.9039,4.9494,5.0761,5.1268,5.1865,5.312,5.3261,5.2806,5.2459,5.1916,5.1121,4.9715,4.807,4.6024,4.3359,4.1542,4.0428,4.0259,3.855,3.7464,3.8114,3.7501,3.6905,3.6661,3.5535,3.4424,3.3506,3.2548,3.1555,3.0604,3.1091,3.168,3.219,3.2767,3.3483,3.4675,3.696,3.8718,3.9848,4.2032,4.3112,4.3162,4.3463,4.3876,4.4319,4.5072,4.6018,4.6932,4.7091,4.7977,4.9461,4.9294,4.9493,4.9878,4.9998,5.0383,5.0984,5.1922,5.2932,5.4015,4.0461,4.1392,4.2504,4.5056,4.8471,5.1661,5.429,5.7226,5.9045,5.8755,5.8784,5.9016,5.9566,5.9974,6.038,6.1048,6.1048,6.0787,6.0235,5.9626,5.9248,5.9132,5.7332,5.591,5.5068,5.1294,4.7376,4.337,4.0097,3.6768,3.3352,3.2725,3.2725,3.3406,3.5009,3.7152,0.0,4.1818,4.41,4.6547,4.8035,4.931,5.0083,4.8607,4.9762,5.1678,4.9031,5.023,5.2665,5.0268,4.9196,4.8891,4.9462,4.9637,4.9724,4.9681,5.0045,5.0468,4.9926,5.0664,5.1865,5.312,5.3882,5.4341,5.4285,5.4201,5.3537,5.123,4.9304,4.7568,4.5641,4.5437,4.429,4.0425,4.0595,4.0217,3.7537,3.7799,3.7915,3.6769,3.6311,3.5372,3.3368,3.244,3.1769,3.1526,3.1466,3.166,3.2215,3.2571,3.3308,3.4675,3.5454,3.7337,4.04,4.0701,4.1806,4.3714,4.3263,4.3614,4.4527,4.4394,4.5341,4.7107,4.6907,4.7678,4.8974,4.9535,4.983,4.9926,5.0431,5.096,5.1489,5.2067,5.2932,5.3918,4.5331,4.5678,4.6746,5.0122,5.2625,5.5111,5.826,6.0345,6.1425,6.1019,6.099,6.1077,6.1309,6.1338,6.1454,6.1716,6.1396,6.1222,6.1338,6.0409,5.9684,5.9306,5.8174,5.6723,5.4923,5.2223,4.8845,4.4789,4.1679,3.8922,3.6626,3.5224,3.5169,3.6356,3.7645,3.9589,4.1906,4.3832,4.5941,4.8014,4.8508,4.9727,5.1207,5.0414,5.0889,5.1947,5.1441,5.2043,5.2961,5.2721,5.224,5.1632,5.1156,5.1449,5.2084,5.2058,5.2245,5.2459,5.2917,5.3456,5.4176,5.55,5.5367,5.5189,5.559,5.506,5.4273,5.3238,5.1909,5.0424,4.9036,4.7679,4.6489,4.5312,4.3778,4.2463,4.1327,4.0915,4.0151,3.8875,3.7893,3.6798,3.5544,3.3897,3.303,3.303,3.2052,3.1772,3.2436,3.2897,3.3657,3.47,3.5579,3.7161,3.9496,4.0199,4.1279,4.2811,4.3263,4.3865,4.4644,4.5229,4.6309,4.7782,4.8075,4.8281,4.8415,4.901,4.9382,4.9421,4.9638,5.0263,5.1056,5.1249,5.1994,5.298,5.0271,5.038,5.1265,5.5027,5.665,5.8459,6.1305,6.2499,6.2927,6.2409,6.2514,6.2529,6.2122,6.1697,6.166,6.2383,6.1832,6.1571,6.1803,6.099,6.0206,5.9597,5.8755,5.7477,5.5678,5.3559,5.076,4.7299,4.4162,4.1762,4.0023,3.8228,3.8032,3.942,4.0546,4.2195,4.4211,4.5779,4.7433,4.9001,4.9001,5.0162,5.1846,5.1497,5.1817,5.2572,5.3268,5.3471,5.353,5.4458,5.461,5.4121,5.2936,5.322,5.4029,5.3554,5.381,5.4204,5.4679,5.515,5.5588,5.6251,5.6268,5.6055,5.6345,5.5707,5.4952,5.4604,5.3617,5.2567,5.1526,5.0018,4.8766,4.8344,4.6281,4.4476,4.3688,4.3025,4.1922,3.9974,3.8714,3.7588,3.6615,3.4815,3.3901,3.4319,3.298,3.2276,3.2698,3.3157,3.3792,3.47,3.578,3.7086,3.8592,3.9873,4.0978,4.1932,4.3187,4.4091,4.4669,4.5949,4.7157,4.8206,4.8774,4.8682,4.8338,4.861,4.901,4.9221,4.9084,4.9734,5.0696,5.0696,5.1369,5.2379,5.5018,5.5616,5.656,5.9564,6.07,6.1571,6.2877,6.308,6.3014,6.2868,6.3436,6.3516,6.2238,6.0802,6.0807,6.2898,6.247,6.1832,6.1251,6.1193,6.0874,6.0206,5.8987,5.829,5.8261,5.5765,5.353,5.1556,4.8333,4.5614,4.3483,0.0,4.1423,4.2697,4.3574,4.4995,4.6824,4.7491,4.8508,4.9698,4.9669,5.083,5.2426,5.1178,5.2252,5.44,5.3733,5.4313,5.5387,5.5387,5.5852,5.6171,5.4923,5.488,5.5159,5.3837,5.4341,5.515,5.3844,5.4442,5.5243,5.4653,5.588,5.7129,5.6549,5.6403,5.6026,5.4778,5.3965,5.3297,5.2688,5.2543,5.1366,4.7914,4.7559,4.6547,4.3003,4.3312,4.2738,3.9278,3.8473,3.7497,3.5791,3.4485,3.4152,3.5224,3.4319,3.342,3.2698,3.298,3.3612,3.47,3.578,3.6885,3.8015,3.9672,4.0802,4.1354,4.3011,4.4091,4.4694,4.6351,4.7405,4.7983,4.8729,4.9072,4.9122,4.8876,4.9145,4.9631,4.9221,4.9734,5.0696,5.0696,5.1369,5.2427,5.7218,5.7997,5.8507,5.8562,5.9377,6.057,6.2053,6.18,6.1949,6.3379,6.2511,6.2052,6.3236,6.3024,6.2812,6.3109,6.247,6.2006,6.1832,6.099,6.0409,6.0206,5.98,5.919,5.8319,5.7507,5.5939,5.3588,5.1672,4.9513,4.7088,4.6051,4.5792,4.6137,4.6007,4.6737,4.813,4.8333,4.9436,5.1033,5.1004,5.1875,5.321,5.3268,5.3791,5.4546,5.4749,5.5068,5.5474,5.5939,5.6229,5.6345,5.5939,5.6268,5.6622,5.622,5.6392,5.6594,5.6222,5.6051,5.6047,5.5846,5.555,5.5591,5.6258,5.6403,5.6287,5.5881,5.4952,5.4139,5.3936,5.3181,5.1773,4.9334,4.8288,4.679,4.3949,4.3401,4.2589,4.0665,4.0281,3.9751,3.854,3.7428,3.6437,3.5618,3.4831,3.4211,3.3944,3.397,3.4537,3.555,3.6273,3.7467,3.9145,3.984,4.0764,4.1907,4.3564,4.5045,4.6351,4.6903,4.7631,4.851,4.876,4.8982,4.9072,4.8985,4.9205,4.9631,4.9495,5.0011,5.0696,5.0696,5.0912,5.1393,5.9986,6.0103,6.0186,6.0153,5.9874,6.0234,6.2264,6.1259,6.0752,6.188,6.1546,6.142,6.1981,6.3204,6.3893,6.3486,6.2616,6.2093,6.2093,6.1338,6.0816,6.0584,6.0322,5.9829,5.9016,5.8784,0.0,5.5939,5.4168,5.2107,4.9814,4.9407,4.9349,4.9553,4.9175,4.9553,5.0511,5.0511,5.1381,5.2688,5.2426,5.3094,5.4255,5.4429,5.4807,5.5271,5.5649,5.5939,5.62,5.6607,5.6752,5.6752,5.6752,5.7013,5.7274,5.7042,5.7129,5.7303,5.7303,5.7042,5.6636,5.6142,5.562,5.5416,5.6229,5.6403,5.6403,5.6403,5.5387,5.4429,5.4168,5.3268,5.1933,5.0017,4.8624,4.6969,4.4647,4.3573,4.2444,4.0814,4.0478,4.0057,3.9377,3.8531,3.7786,3.707,3.6439,3.6053,3.6008,3.5183,3.5026,3.5787,3.6949,3.8138,3.9362,4.0426,4.1454,4.2374,4.4141,4.5723,4.7154,4.733,4.7908,4.8786,4.8987,4.9135,4.9332,4.9202,4.9455,5.0014,4.9767,5.0149,5.0837,5.0696,5.084,5.1225,6.284,6.1826,6.1385,6.3319,6.1247,6.0289,6.3278,6.1378,5.94,5.907,6.0671,6.11,5.9258,6.2082,6.4038,6.4038,6.2848,6.2064,6.2035,6.2035,6.1774,6.1222,6.0584,6.0264,6.0264,5.9713,5.9103,5.8435,5.5968,5.382,5.202,5.1933,5.2165,5.2688,5.2659,5.2949,5.35,5.35,5.3907,5.4458,5.3878,5.4342,5.5358,5.4894,5.5416,5.6403,5.6461,5.6839,5.7303,5.7303,5.7332,5.7361,5.7361,5.739,5.7303,5.6665,5.6897,5.7361,5.7361,5.7361,5.71,5.591,5.6055,5.649,5.652,5.652,5.6461,5.6461,5.5503,5.44,5.3646,5.3036,5.1962,4.9872,4.8508,4.7027,4.5024,4.3689,4.2247,4.0237,3.9648,3.92,3.8866,3.8422,3.8478,3.9467,3.8782,3.8391,3.8515,3.6625,3.5624,3.5889,3.7759,3.8785,3.9013,4.1274,4.2475,4.2712,4.4627,4.6075,4.7205,4.7682,4.8234,4.8862,4.9364,4.959,4.959,4.9202,4.9693,5.0504,4.9878,5.0239,5.1163,5.0813,5.1008,5.1658,6.1585,6.1052,6.0511,5.9828,5.8209,5.8068,6.0946,5.8514,5.7642,6.0893,6.0297,6.0116,6.1713,6.3136,6.4038,6.4038,6.2848,6.189,6.1425,6.1396,6.1338,6.1222,6.1048,6.0961,6.0961,6.0816,6.0409,5.9742,5.8174,5.6897,5.5939,5.4981,5.4342,5.4023,5.353,5.3384,5.35,5.35,5.3907,5.4546,5.4836,5.5126,5.5503,5.6316,5.6549,5.6461,5.6926,5.7187,5.7303,5.7303,5.7652,5.8058,5.8058,5.8406,5.861,5.7448,5.7565,5.8058,5.8058,5.8058,5.8,5.7681,5.7361,5.7216,5.7739,5.7448,5.71,5.71,5.649,5.5474,5.382,5.3384,5.2165,4.8769,4.7579,4.6214,4.3776,4.2789,4.227,4.2247,4.1994,4.1882,4.2166,4.1481,4.0768,4.0129,3.9864,3.9257,3.8103,3.8401,3.8441,3.8241,3.8452,3.9218,4.0709,4.1394,4.27,4.4426,4.5178,4.6276,4.7732,4.7857,4.846,4.9414,4.954,4.959,4.959,4.9461,4.9731,5.0141,5.0404,5.0567,5.0652,5.0925,5.1051,5.1177,6.0761,6.0727,6.0345,5.9515,5.8134,5.7914,5.983,5.7484,5.638,5.921,5.8725,5.8968,6.0822,6.2417,6.3549,6.3535,6.2964,6.218,6.1251,6.1193,6.1193,6.1193,6.1193,6.1193,6.1193,6.1193,6.0874,6.0206,5.951,5.8842,5.8203,5.7507,5.7013,5.6694,5.6316,5.6171,5.6142,5.5823,5.591,5.6258,5.6258,5.6287,5.6345,5.7042,5.7303,5.7332,5.7652,5.7942,5.8203,5.8203,5.8464,5.8755,5.8755,5.9016,5.9161,5.8435,5.8464,5.8697,5.8377,5.8523,5.8697,5.8377,5.8029,5.7855,5.8232,5.8029,5.7768,5.7768,5.7042,5.5823,5.3878,5.3036,5.1468,4.7927,4.6563,4.5256,4.3282,4.2618,4.2562,4.3199,4.317,4.3395,4.3873,4.3182,4.2458,4.1799,4.146,4.1086,4.0458,4.087,4.0633,3.9693,3.947,4.016,4.2041,4.2651,4.3615,4.513,4.5764,4.6462,4.7432,4.7681,4.838,4.9332,4.9332,4.9461,4.959,4.959,4.9786,5.0231,5.0489,5.0765,5.0896,5.1157,5.1095,5.1269,6.0267,6.0291,6.0345,6.062,5.9375,5.8657,5.9643,5.7468,5.602,5.7014,5.744,5.8259,5.9233,6.1601,6.3192,6.3333,6.3457,6.2906,6.1425,6.1251,6.1193,6.1193,6.1193,6.1193,6.1193,6.1193,6.0932,6.0351,6.0351,6.0032,5.9451,5.9451,5.9393,5.9306,5.9306,5.9306,5.9277,5.8697,5.8464,5.8406,5.771,5.7507,5.7594,5.7507,5.7884,5.8464,5.8464,5.8813,5.9306,5.9306,5.9364,5.9451,5.9451,5.951,5.9568,5.948,5.9451,5.9306,5.8755,5.9016,5.9335,5.8842,5.8581,5.8464,5.8581,5.8435,5.829,5.829,5.7303,5.5823,5.3878,5.2484,5.054,4.723,4.5663,4.4443,4.3081,4.2795,4.3056,4.3717,4.3991,4.4344,4.4967,4.4208,4.3807,4.3919,4.3357,4.3216,4.375,4.3506,4.2771,4.1497,4.0989,4.1467,4.3037,4.3875,4.4669,4.5331,4.6168,4.6711,4.7076,4.7543,4.8164,4.9072,4.9072,4.9202,4.9461,4.9461,4.9736,5.0212,5.0498,5.0911,5.1321,5.1174,5.1138,5.1386,5.9941,5.9169,5.9096,6.0345,5.9375,5.8789,6.021,5.8679,5.7808,5.9048,5.8941,5.9557,6.1985,6.3765,6.4624,6.4706,6.517,6.4473,6.2122,6.1483,6.1193,6.1193,6.1193,6.1193,6.1193,6.1193,6.1135,6.1048,6.1048,6.07,6.0061,6.0061,5.98,5.9306,5.9306,5.9306,5.9306,5.919,5.9132,5.9103,5.8406,5.8493,5.8929,5.8348,5.8552,5.9132,5.9132,5.9219,5.9306,5.9306,5.9626,6.0061,6.0061,6.0438,6.0787,6.0235,6.0061,6.0032,5.9916,5.9974,6.0177,6.0642,5.9945,5.9277,5.98,5.9074,5.829,5.829,5.7303,5.5823,5.3878,5.2484,5.0394,4.665,4.5372,4.4356,4.2911,4.3113,4.3803,4.4772,4.521,4.5676,4.6299,4.5504,4.5268,4.583,4.5268,4.4931,4.5043,4.5568,4.597,4.6123,4.3747,4.2806,4.3361,4.3868,4.4622,4.5521,4.5968,4.6658,4.7617,4.7715,4.8059,4.8706,4.8706,4.8706,4.8706,4.9072,4.9252,4.9376,4.9793,5.0073,5.0346,5.0886,5.0986,5.1151,6.0077,5.9881,5.9515,5.9375,5.9078,5.9005,5.9854,5.9078,5.8753,5.9455,5.8924,5.9314,6.1516,6.2549,6.3838,6.5361,6.5751,6.5431,6.4241,6.2935,6.1919,6.1222,6.1193,6.1193,6.1193,6.1193,6.1193,6.1193,6.1193,6.1048,6.0729,6.0729,6.0584,6.0322,6.0322,6.0322,6.0293,5.9945,5.9771,5.9742,5.9103,5.9016,5.9277,5.8958,5.9248,5.9771,5.9771,6.0032,6.0322,6.0322,6.0264,6.0206,6.0206,6.0177,6.0119,5.98,5.9451,5.9248,5.9626,5.9713,5.9858,6.0496,6.0206,5.9858,6.0148,5.9219,5.829,5.829,5.7565,5.6403,5.4836,5.321,5.1323,4.8856,4.6645,4.4931,4.4265,4.4171,4.4647,4.5808,4.6543,4.7405,4.8364,4.7785,4.7459,4.774,4.7207,4.6982,4.7319,4.7596,4.7895,4.8177,4.652,4.5244,4.4565,4.4988,4.5299,4.5392,4.6226,4.689,4.7118,4.7385,4.7807,4.8313,4.8313,4.8445,4.86,4.8706,4.9141,4.9569,5.0116,5.0663,5.1234,5.1368,5.1321,5.1479,5.9744,5.9793,5.9429,5.914,5.9536,6.0075,6.074,6.0687,6.0634,6.0767,6.0287,6.0473,6.1849,6.2535,6.3656,6.5868,6.6302,6.6244,6.5954,6.4561,6.3109,6.1687,6.1367,6.1193,6.1193,6.1193,6.1193,6.1193,6.1193,6.1193,6.1193,6.1193,6.1193,6.1193,6.1193,6.1193,6.1164,6.0467,6.0206,6.0119,5.9364,5.9161,5.9277,5.9132,5.9451,6.0003,6.0148,6.0526,6.099,6.1135,6.0758,6.0235,6.038,6.0003,5.951,5.951,5.9045,5.8668,5.9335,5.9422,5.948,6.0235,6.0322,6.0206,6.0206,5.9335,5.8523,5.8523,5.7768,5.681,5.5823,5.3965,5.2107,5.0585,4.7845,4.5844,4.5752,4.5495,4.5779,4.7052,4.7982,4.8921,4.9876,4.9539,4.9258,4.9258,4.8808,4.8752,4.923,4.9511,4.9788,5.0188,4.8904,4.7416,4.5974,4.6514,4.6275,4.5501,4.6577,4.7037,4.692,4.7329,4.763,4.7894,4.7894,4.805,4.8313,4.8445,4.8797,4.9479,5.0023,5.0727,5.1569,5.1566,5.1558,5.1712,5.8815,5.7446,5.7482,6.0796,6.1349,6.2286,6.4832,6.4663,6.4495,6.5221,6.4607,6.4787,6.6314,6.6504,6.6533,6.6825,6.7376,6.7231,6.6012,6.5809,6.4909,6.3022,6.1832,6.1193,6.1193,6.1193,6.1193,6.1193,6.1193,6.1193,6.1193,6.1193,6.1193,6.1193,6.1193,6.1193,6.1164,6.0467,6.0206,6.009,5.8871,5.8755,5.9248,5.861,5.8784,5.9451,6.0003,6.0235,6.038,6.099,6.0758,6.0322,6.0932,6.0671,6.0119,6.0119,5.9713,5.9364,5.9974,5.9742,5.9597,6.0816,6.0642,6.0206,6.0206,5.9684,5.9219,5.9219,5.7768,5.6432,5.6345,5.4255,5.186,4.9779,4.8211,4.71,4.6594,4.7008,4.7631,4.8696,4.9426,4.9848,4.996,4.9904,4.9904,4.9904,4.9848,4.9848,4.9876,5.0972,5.2152,5.3304,5.0551,4.8635,4.7682,4.7807,4.7354,4.6583,4.668,4.6968,4.7449,4.7473,4.7497,4.7497,4.7497,4.7497,4.763,4.7894,4.805,4.8123,4.8682,4.9352,4.9889,5.0676,5.0937,5.1054,6.1733,6.1026,6.0674,6.2117,6.1932,6.2206,6.4211,6.4572,6.4881,6.5637,6.5186,6.5069,6.6037,6.5724,6.607,6.7463,6.7347,6.7405,6.7696,6.6593,6.4909,6.2558,6.2006,6.1571,6.1222,6.1193,6.1193,6.1193,6.1571,6.1571,6.1222,6.1571,6.1542,6.1193,6.1193,6.1193,6.1164,6.0932,6.0584,6.0177,6.0119,6.0003,5.9887,6.0032,6.0264,6.0496,6.0729,6.0816,6.0845,6.1106,6.0758,6.0235,6.0496,6.0148,5.9626,5.9626,5.948,5.9422,6.0032,6.0032,5.9974,6.0467,6.038,6.0206,6.0206,5.9742,5.9306,5.9306,5.8726,5.8087,5.7652,5.6142,5.4583,5.3539,5.1489,5.0223,5.0606,5.0029,5.0037,5.1169,5.1506,5.1815,5.2208,5.2264,5.2264,5.2264,5.2264,5.2264,5.2264,5.3051,5.3754,5.4231,5.3508,5.2235,5.0273,4.9387,4.8557,4.7947,4.7409,4.7305,4.7497,4.7497,4.7497,4.7497,4.7497,4.7497,4.7497,4.763,4.798,4.861,4.9145,4.9791,5.0578,5.0978,5.1041,5.1051,6.3036,6.2642,6.2298,6.3054,6.2751,6.3141,6.5114,6.5674,6.6185,6.6919,6.6327,6.61,6.6663,6.6214,6.6479,6.7841,6.7463,6.7492,6.816,6.6796,6.4967,6.279,6.2499,6.2209,6.1803,6.1803,6.1803,6.1803,6.2209,6.218,6.1803,6.2006,6.1861,6.1454,6.128,6.1193,6.1193,6.099,6.0613,6.0206,6.0496,6.0322,5.9974,6.0438,6.0613,6.0642,6.0816,6.0874,6.0932,6.1135,6.0758,6.0235,6.0438,6.0235,5.9887,5.9887,5.9887,5.9974,6.0409,6.0496,6.0496,6.0496,6.0496,6.0496,6.0496,6.0032,5.9568,5.9568,5.9422,5.9161,5.8697,5.7739,5.6756,5.5904,5.3961,5.2715,5.2989,5.2093,5.1843,5.2883,5.2995,5.3192,5.3641,5.3669,5.3669,5.3669,5.3669,5.3754,5.395,5.4372,5.4681,5.4878,5.5271,5.4725,5.3021,5.147,5.0306,4.957,4.8565,4.8133,4.8133,4.7762,4.7497,4.7497,4.7497,4.7593,4.7738,4.7569,4.8064,4.901,4.9373,4.9947,5.0758,5.1017,5.1071,5.1119,6.1987,6.1158,6.1357,6.351,6.4263,6.5624,6.8325,6.8828,6.906,6.967,6.9205,6.8828,6.8828,6.8828,6.8567,6.7928,6.787,6.7609,6.6912,6.6273,6.5373,6.4096,6.3428,6.308,6.308,6.308,6.308,6.308,6.308,6.308,6.308,6.2412,6.2093,6.2064,6.1483,6.1222,6.1164,6.0496,6.0206,6.0148,5.9568,5.9306,5.9306,5.9306,5.9306,5.9393,6.0003,6.0206,6.0322,6.099,6.0758,6.0322,6.099,6.1193,6.1193,6.1193,6.1193,6.1193,6.1222,6.1222,6.1222,6.1222,6.1193,6.1193,6.1222,6.07,6.0206,6.0206,5.9742,5.9306,5.9306,5.8755,5.7656,5.5822,5.4966,5.4226,5.2938,5.2742,5.2967,5.3613,5.3697,5.3669,5.3669,5.3669,5.3669,5.3669,5.3669,5.395,5.4569,5.4597,5.4878,5.5468,5.5496,5.5496,5.5496,5.4139,5.2876,5.1492,5.013,4.9515,4.9515,4.8133,4.7497,4.7497,4.7497,4.781,4.8243,4.7738,4.8122,4.9084,4.9084,4.9397,5.0065,5.0877,5.0954,5.091,6.3405,6.3579,6.4222,6.5705,6.5705,6.5952,6.7318,6.787,6.8392,6.9031,6.8944,6.8828,6.8828,6.8828,6.8567,6.7928,6.787,6.7609,6.6912,6.6273,6.5751,6.5373,6.4328,6.3545,6.3109,6.308,6.308,6.308,6.3545,6.3516,6.3109,6.3341,6.3225,6.279,6.2616,6.2267,6.1832,6.2122,6.1454,6.0264,6.099,6.0729,5.9974,6.0438,6.0642,6.0642,6.0845,6.0903,6.0932,6.1135,6.1077,6.0932,6.1135,6.1193,6.1193,6.1193,6.1193,6.128,6.1716,6.1832,6.1832,6.1832,6.1513,6.1309,6.1716,6.1338,6.0903,6.0903,6.0758,6.0496,6.0032,5.9535,5.8867,5.7711,5.6705,5.616,5.6063,5.5215,5.4906,5.5524,5.5215,5.4962,5.4962,5.4962,5.4962,5.4962,5.4962,5.5046,5.5215,5.5215,5.5299,5.5496,5.5496,5.5496,5.5496,5.4139,5.3241,5.2876,5.0638,4.9515,4.9515,4.8133,4.7497,4.7521,4.7906,4.8147,4.8315,4.8507,4.8796,4.9109,4.9493,4.9734,4.9926,5.062,5.0837,5.0768,6.4415,6.4735,6.5373,6.6651,6.6564,6.6447,6.6825,6.7667,6.8305,6.845,6.8683,6.8828,6.8828,6.8828,6.8567,6.7928,6.7638,6.7318,6.6912,6.6535,6.6302,6.6302,6.5577,6.4735,6.3864,6.4096,6.4212,6.4212,6.4851,6.4822,6.4212,6.4357,6.4067,6.3457,6.3196,6.2877,6.2499,6.2935,6.2267,6.1048,6.2064,6.1861,6.1019,6.1687,6.1774,6.16,6.1861,6.1629,6.1222,6.1483,6.1396,6.1251,6.1483,6.1542,6.1542,6.1542,6.1542,6.1629,6.2006,6.2093,6.2209,6.2732,6.2412,6.2035,6.2412,6.2209,6.1948,6.1948,6.1745,6.1425,6.1019,6.049,5.9755,5.8913,5.8127,5.757,5.7378,5.6732,5.6283,5.6395,5.6086,5.5777,5.5524,5.5496,5.5496,5.5496,5.5496,5.5496,5.5496,5.5496,5.5496,5.5496,5.5496,5.5496,5.5496,5.4734,5.4259,5.4259,5.1616,5.0359,5.0589,4.8469,4.7738,4.8122,4.8243,4.8411,4.8628,4.894,4.9205,4.9421,4.9734,4.9998,5.0239,5.0576,5.0696,5.0768,6.4996,6.4996,6.5402,6.6738,6.6912,6.6912,6.7028,6.8044,6.8625,6.8044,6.8479,6.8799,6.8741,6.8799,6.8567,6.7928,6.7318,6.697,6.697,6.6912,6.6883,6.6883,6.6883,6.6331,6.517,6.5664,6.5925,6.5925,6.6506,6.6506,6.5925,6.5402,6.4822,6.4183,6.3603,6.3283,6.3167,6.3225,6.2848,6.2238,6.2964,6.2819,6.2267,6.2935,6.2761,6.2267,6.2877,6.2354,6.1425,6.1919,6.1716,6.1367,6.1861,6.2064,6.2093,6.2093,6.2122,6.218,6.2267,6.2267,6.2558,6.3806,6.369,6.3254,6.3196,6.3138,6.308,6.308,6.2558,6.2093,6.2093,6.1357,6.0387,5.9543,5.9066,5.8475,5.7547,5.7378,5.7069,5.6479,5.6367,5.6114,5.5552,5.5496,5.5496,5.5496,5.5496,5.5524,5.558,5.558,5.5608,5.5664,5.5608,5.5608,5.5664,5.5608,5.558,5.558,5.2956,5.2009,5.2279,4.924,4.8305,4.906,4.8628,4.87,4.9157,4.9205,4.9517,4.995,4.995,5.0263,5.0696,5.0696,5.0696,5.0792,6.4996,6.4996,6.5548,6.7347,6.7231,6.7231,6.8247,6.8654,6.877,6.8625,6.8741,6.8625,6.8131,6.8538,6.8567,6.7928,6.7754,6.7667,6.7667,6.7173,6.6883,6.6883,6.6883,6.6738,6.6476,6.6128,6.5925,6.5925,6.607,6.607,6.5954,6.6302,6.6128,6.5519,6.5373,6.4764,6.3864,6.4357,6.3922,6.2964,6.4125,6.3893,6.2935,6.3603,6.3428,6.2906,6.3051,6.2906,6.2616,6.2238,6.2006,6.1832,6.1483,6.1716,6.2093,6.2093,6.247,6.2993,6.3486,6.3603,6.3806,6.459,6.4677,6.4444,6.3951,6.3457,6.308,6.308,6.2558,6.2093,6.2093,6.1084,6.0259,5.9994,5.9107,5.8372,5.8109,5.7266,5.6564,5.6451,5.6002,5.5636,5.5524,5.5496,5.5496,5.5496,5.5496,5.5721,5.6198,5.6226,5.6451,5.6957,5.6479,5.6451,5.6985,5.6479,5.6226,5.6226,5.4555,5.3494,5.2905,5.1216,4.9878,4.9084,4.9397,4.9589,4.9734,5.0167,5.0407,5.0527,5.0527,5.06,5.0696,5.0696,5.0696,5.084,6.578,6.5635,6.6041,6.7986,6.7783,6.758,6.8276,6.8625,6.8712,6.8421,6.8625,6.8712,6.8363,6.8915,6.9263,6.9234,6.8973,6.8799,6.8799,6.8189,6.7812,6.7812,6.7812,6.7812,6.7812,6.7173,6.6709,6.6389,6.6709,6.6535,6.5954,6.6273,6.6099,6.5489,6.5489,6.5112,6.4532,6.517,6.488,6.4067,6.5054,6.5025,6.4473,6.4822,6.4561,6.4038,6.4328,6.4067,6.3457,6.279,6.2354,6.2093,6.2093,6.2325,6.2558,6.2558,6.3022,6.3603,6.3951,6.427,6.4561,6.4909,6.5332,6.5405,6.4706,6.4241,6.4009,6.4009,6.3333,6.2774,6.2774,6.1729,6.0716,6.0403,5.9747,5.9064,5.8783,5.8165,5.7631,5.735,5.7041,5.6704,5.6423,5.6395,5.6395,5.6395,5.6395,5.6535,5.6873,5.6873,5.7041,5.7378,5.7041,5.7041,5.7378,5.7041,5.7013,5.7322,5.5621,5.4763,5.4538,5.2958,5.169,5.0886,5.0911,5.0523,4.9902,5.0479,5.0551,5.0335,5.06,5.0696,5.0696,5.0696,5.0864,5.1153,6.668,6.6447,6.6651,6.8363,6.8218,6.7899,6.8015,6.8479,6.8625,6.8102,6.8509,6.8857,6.8973,6.9554,7.0105,7.0512,7.0163,6.9902,6.9786,6.9292,6.8944,6.8828,6.8828,6.8828,6.8828,6.8305,6.7725,6.7057,6.7492,6.7144,6.6099,6.6099,6.5751,6.5141,6.5141,6.5141,6.5199,6.5722,6.5693,6.5373,6.6012,6.6186,6.6099,6.6215,6.5809,6.5228,6.5751,6.517,6.4096,6.3457,6.2877,6.2499,6.2964,6.3167,6.3254,6.3254,6.369,6.4212,6.4212,6.459,6.4996,6.4996,6.5521,6.591,6.4971,6.4955,6.4984,6.4868,6.4092,6.3377,6.3377,6.2238,6.1203,6.0665,6.0272,5.9795,5.9289,5.9121,5.8868,5.8362,5.8221,5.794,5.7435,5.7378,5.7378,5.7378,5.7378,5.7435,5.7547,5.7547,5.7575,5.7688,5.7603,5.7575,5.7688,5.7603,5.7856,5.8446,5.6776,5.615,5.6332,5.48,5.3527,5.2754,5.2302,5.1333,5.0046,5.0503,5.0431,5.0046,5.0527,5.0696,5.0696,5.0696,5.0984,5.1369,6.6854,6.6825,6.7028,6.787,6.7928,6.8073,6.8625,6.877,6.8799,6.8712,6.877,6.9031,6.9583,7.0221,7.0395,6.9931,7.0308,7.0366,6.9815,6.9699,6.9408,6.8857,6.8828,6.8828,6.8828,6.8741,6.8392,6.7754,6.726,6.6912,6.6738,6.6738,6.6418,6.5809,6.5809,6.5809,6.5809,6.5896,6.6215,6.668,6.7347,6.726,6.6825,6.7405,6.6854,6.5809,6.5896,6.546,6.4764,6.4125,6.3835,6.369,6.3225,6.3457,6.3922,6.3922,6.4357,6.4851,6.4851,6.4909,6.4996,6.4612,6.4627,6.4713,6.4253,6.4495,6.4753,6.4209,6.3579,6.3022,6.3022,6.1769,6.0693,6.0608,5.9905,5.9317,5.9233,5.8755,5.839,5.8306,5.7828,5.7463,5.7407,5.7378,5.7378,5.7378,5.7378,5.7631,5.8137,5.8165,5.8418,5.8952,5.8446,5.8446,5.8952,5.8446,5.8474,5.9093,5.8856,5.8076,5.6956,5.6746,5.5182,5.2779,5.2703,5.1901,5.06,5.0672,5.0648,5.06,5.0672,5.0696,5.0696,5.0696,5.0744,5.0864,6.7376,6.7434,6.7638,6.8305,6.8392,6.8509,6.877,6.8828,6.8828,6.8828,6.8828,6.906,6.9699,7.0657,7.1295,7.1353,7.0976,7.0599,7.0308,6.9641,6.9118,6.8828,6.9176,6.9176,6.8828,6.9176,6.9031,6.8392,6.7376,6.6506,6.5838,6.5838,6.5664,6.5402,6.5402,6.5402,6.5431,6.578,6.6302,6.6912,6.7202,6.758,6.7928,6.7492,6.697,6.636,6.5664,6.5228,6.4938,6.4677,6.4328,6.398,6.3719,6.3806,6.4038,6.4038,6.4473,6.4996,6.474,6.5,6.5044,6.444,6.461,6.469,6.3846,6.4027,6.4178,6.4079,6.3606,6.3277,6.3277,6.2434,6.1824,6.1485,6.0794,6.0132,5.9767,5.9205,5.8812,5.8812,5.8587,5.8418,5.8418,5.8418,5.8418,5.8418,5.8418,5.8531,5.8812,5.8812,5.8924,5.9205,5.8952,5.8952,5.9205,5.8952,5.8952,5.9205,5.9205,5.8802,5.827,5.827,5.6677,5.3978,5.3978,5.2666,5.0696,5.0696,5.0696,5.0696,5.0696,5.0696,5.0696,5.0696,5.0696,5.0744]},{"header":{"parameterUnit":"m.s-1","parameterCategory":1,"la1":30.6,"la2":28.766,"lo1":-90.7593,"lo2":-88.6598,"dy":0.0162,"dx":0.0183,"nx":116,"ny":114,"refTime":"2024-04-01T18:00:00:Z","depth":0,"parameterNumber":3,"parameterNumberName":"V-component_of_WINDS"},"data":[0.0,0.0,0.0,0.0,0.0,0.0,0.0,0.0,0.0,0.0,0.0,0.0,0.0,0.0,0.0,0.0,0.0,0.0,0.0,0.0,0.0,0.0,0.0,0.0,0.0,0.0,0.0,0.0,0.0,0.0,0.0,0.0,0.0,0.0,0.0,0.0,0.0,0.0,0.0,0.0,0.0,0.0,0.0,0.0,0.0,0.0,0.0,0.0,0.0,0.0,0.0,0.0,0.0,0.0,0.0,0.0,0.0,0.0,0.0,0.0,0.0,0.0,0.0,0.0,0.0,0.0,0.0,0.0,0.0,0.0,0.0,0.0,0.0,0.0,0.0,0.0,0.0,0.0,0.0,0.0,0.0,0.0,0.0,0.0,0.0,0.0,0.0,0.0,0.0,0.0,0.0,0.0,0.0,0.0,0.0,0.0,0.0,0.0,0.0,0.0,0.0,0.0,0.0,0.0,0.0,0.0,0.0,0.0,0.0,0.0,0.0,0.0,0.0,0.0,0.0,0.0,0.0,0.0,0.0,0.0,0.0,0.0,0.0,0.0,0.0,0.0,0.0,0.0,0.0,0.0,0.0,0.0,0.0,0.0,0.0,0.0,0.0,0.0,0.0,0.0,0.0,0.0,0.0,0.0,0.0,0.0,0.0,0.0,0.0,0.0,0.0,0.0,0.0,0.0,0.0,0.0,0.0,0.0,0.0,0.0,0.0,0.0,0.0,0.0,0.0,0.0,0.0,0.0,0.0,0.0,0.0,0.0,0.0,0.0,0.0,0.0,0.0,0.0,0.0,0.0,0.0,0.0,0.0,0.0,0.0,0.0,0.0,0.0,0.0,0.0,0.0,0.0,0.0,0.0,0.0,0.0,0.0,0.0,0.0,0.0,0.0,0.0,0.0,0.0,0.0,0.0,0.0,0.0,0.0,0.0,0.0,0.0,0.0,0.0,0.0,0.0,0.0,0.0,0.0,0.0,0.0,0.0,0.0,0.0,0.0,0.0,0.0,0.0,0.0,0.0,0.0,0.0,0.0,0.0,0.0,0.0,0.0,0.0,0.0,0.0,0.0,0.0,0.0,0.0,0.0,0.0,0.0,0.0,0.0,0.0,0.0,0.0,0.0,0.0,0.0,0.0,0.0,0.0,0.0,0.0,0.0,0.0,0.0,0.0,0.0,0.0,0.0,0.0,0.0,0.0,0.0,0.0,0.0,0.0,0.0,0.0,0.0,0.0,0.0,0.0,0.0,0.0,0.0,0.0,0.0,0.0,0.0,0.0,0.0,0.0,0.0,0.0,0.0,0.0,0.0,0.0,0.0,0.0,0.0,0.0,0.0,0.0,0.0,0.0,0.0,0.0,0.0,0.0,0.0,0.0,0.0,0.0,0.0,0.0,0.0,0.0,0.0,0.0,0.0,0.0,0.0,0.0,0.0,0.0,0.0,0.0,0.0,0.0,0.0,0.0,0.0,0.0,0.0,0.0,0.0,0.0,0.0,0.0,0.0,0.0,0.0,0.0,0.0,0.0,0.0,0.0,0.0,0.0,0.0,0.0,0.0,0.0,0.0,0.0,0.0,0.0,0.0,0.0,0.0,0.0,0.0,0.0,0.0,0.0,0.0,0.0,0.0,0.0,0.0,0.0,0.0,0.0,0.0,0.0,0.0,0.0,0.0,0.0,0.0,0.0,0.0,0.0,0.0,0.0,0.0,0.0,0.0,0.0,0.0,0.0,0.0,0.0,0.0,0.0,0.0,0.0,0.0,0.0,0.0,0.0,0.0,0.0,0.0,0.0,0.0,0.0,0.0,0.0,0.0,0.0,0.0,0.0,0.0,0.0,0.0,0.0,0.0,0.0,0.0,0.0,0.0,0.0,0.0,0.0,0.0,0.0,0.0,0.0,0.0,0.0,0.0,0.0,0.0,0.0,0.0,0.0,0.0,0.0,0.0,0.0,0.0,0.0,0.0,0.0,0.0,0.0,0.0,0.0,0.0,0.0,0.0,0.0,0.0,0.0,0.0,0.0,0.0,0.0,0.0,0.0,0.0,0.0,0.0,0.0,0.0,0.0,0.0,0.0,0.0,0.0,0.0,0.0,0.0,0.0,0.0,0.0,0.0,0.0,0.0,0.0,0.0,0.0,0.0,0.0,0.0,0.0,0.0,0.0,0.0,0.0,0.0,0.0,0.0,0.0,0.0,0.0,0.0,0.0,0.0,0.0,0.0,0.0,0.0,0.0,0.0,0.0,0.0,0.0,0.0,0.0,0.0,0.0,0.0,0.0,0.0,0.0,0.0,0.0,0.0,0.0,0.0,0.0,0.0,0.0,0.0,0.0,0.0,0.0,0.0,0.0,0.0,0.0,0.0,0.0,0.0,0.0,0.0,0.0,0.0,0.0,0.0,0.0,0.0,0.0,0.0,0.0,0.0,0.0,0.0,0.0,0.0,0.0,0.0,0.0,0.0,0.0,0.0,0.0,0.0,0.0,0.0,0.0,0.0,0.0,0.0,0.0,0.0,0.0,0.0,0.0,0.0,0.0,0.0,0.0,0.0,0.0,0.0,0.0,0.0,0.0,0.0,0.0,0.0,0.0,0.0,0.0,0.0,0.0,0.0,0.0,0.0,0.0,0.0,0.0,0.0,0.0,0.0,0.0,0.0,0.0,0.0,0.0,0.0,0.0,0.0,0.0,0.0,0.0,0.0,0.0,0.0,0.0,0.0,0.0,0.0,0.0,0.0,0.0,0.0,0.0,0.0,0.0,0.0,0.0,0.0,0.0,0.0,0.0,0.0,0.0,0.0,0.0,0.0,0.0,0.0,0.0,0.0,0.0,0.0,0.0,0.0,0.0,0.0,0.0,0.0,0.0,0.0,0.0,0.0,0.0,0.0,0.0,0.0,0.0,0.0,0.0,0.0,0.0,0.0,0.0,0.0,0.0,0.0,0.0,0.0,0.0,0.0,0.0,0.0,0.0,0.0,0.0,0.0,0.0,0.0,0.0,0.0,0.0,0.0,0.0,0.0,0.0,0.0,0.0,0.0,0.0,0.0,0.0,0.0,0.0,0.0,0.0,0.0,0.0,0.0,0.0,0.0,0.0,0.0,0.0,0.0,0.0,0.0,0.0,0.0,0.0,0.0,0.0,0.0,0.0,0.0,0.0,0.0,0.0,0.0,0.0,0.0,0.0,0.0,0.0,0.0,0.0,0.0,0.0,0.0,0.0,0.0,0.0,0.0,0.0,0.0,0.0,0.0,0.0,0.0,0.0,0.0,0.0,0.0,0.0,0.0,0.0,0.0,0.0,0.0,0.0,0.0,0.0,0.0,0.0,0.0,0.0,0.0,0.0,0.0,0.0,0.0,0.0,0.0,0.0,0.0,0.0,0.0,0.0,0.0,0.0,0.0,0.0,0.0,0.0,0.0,0.0,0.0,0.0,0.0,0.0,0.0,0.0,0.0,0.0,0.0,0.0,0.0,0.0,0.0,0.0,0.0,0.0,0.0,0.0,0.0,0.0,0.0,0.0,0.0,0.0,0.0,0.0,0.0,0.0,0.0,0.0,0.0,0.0,0.0,0.0,0.0,0.0,0.0,0.0,0.0,0.0,0.0,0.0,0.0,0.0,0.0,0.0,0.0,0.0,0.0,0.0,0.0,0.0,0.0,0.0,0.0,0.0,0.0,0.0,0.0,0.0,0.0,0.0,0.0,0.0,0.0,0.0,0.0,0.0,0.0,0.0,0.0,0.0,0.0,0.0,0.0,0.0,0.0,0.0,0.0,0.0,0.0,0.0,0.0,0.0,0.0,0.0,0.0,0.0,0.0,0.0,0.0,0.0,0.0,0.0,0.0,0.0,0.0,0.0,0.0,0.0,0.0,0.0,0.0,0.0,0.0,0.0,0.0,0.0,0.0,0.0,0.0,0.0,0.0,0.0,0.0,0.0,0.0,0.0,0.0,0.0,0.0,0.0,0.0,0.0,0.0,0.0,0.0,0.0,0.0,0.0,0.0,0.0,0.0,0.0,0.0,0.0,0.0,0.0,0.0,0.0,0.0,0.0,0.0,0.0,0.0,0.0,0.0,0.0,0.0,0.0,0.0,0.0,0.0,0.0,0.0,0.0,0.0,0.0,0.0,0.0,0.0,0.0,0.0,0.0,0.0,0.0,0.0,0.0,0.0,0.0,0.0,0.0,0.0,0.0,0.0,0.0,0.0,0.0,0.0,0.0,0.0,0.0,0.0,0.0,0.0,0.0,0.0,0.0,0.0,0.0,0.0,0.0,0.0,0.0,0.0,0.0,0.0,0.0,0.0,0.0,0.0,0.0,0.0,0.0,0.0,0.0,0.0,0.0,0.0,0.0,0.0,0.0,0.0,0.0,0.0,0.0,0.0,0.0,0.0,0.0,0.0,0.0,0.0,0.0,0.0,0.0,0.0,0.0,0.0,0.0,0.0,0.0,0.0,0.0,0.0,0.0,0.0,0.0,0.0,0.0,0.0,0.0,0.0,0.0,0.0,0.0,0.0,0.0,0.0,0.0,0.0,0.0,0.0,0.0,0.0,0.0,0.0,0.0,0.0,0.0,0.0,0.0,0.0,0.0,0.0,0.0,0.0,0.0,0.0,0.0,0.0,0.0,0.0,0.0,0.0,0.0,0.0,0.0,0.0,0.0,0.0,0.0,0.0,0.0,0.0,0.0,0.0,0.0,0.0,0.0,0.0,0.0,0.0,0.0,0.0,0.0,0.0,0.0,0.0,0.0,0.0,0.0,0.0,0.0,0.0,0.0,0.0,0.0,0.0,0.0,0.0,0.0,0.0,0.0,0.0,0.0,0.0,0.0,0.0,0.0,0.0,0.0,0.0,0.0,0.0,0.0,0.0,0.0,0.0,0.0,0.0,0.0,0.0,0.0,0.0,0.0,0.0,0.0,0.0,0.0,0.0,0.0,0.0,0.0,0.0,0.0,0.0,0.0,0.0,0.0,0.0,0.0,0.0,0.0,0.0,0.0,0.0,0.0,0.0,0.0,0.0,0.0,0.0,0.0,0.0,0.0,0.0,0.0,0.0,0.0,0.0,0.0,0.0,0.0,0.0,0.0,0.0,0.0,0.0,0.0,0.0,0.0,0.0,0.0,0.0,0.0,0.0,0.0,0.0,0.0,0.0,0.0,0.0,0.0,0.0,0.0,0.0,0.0,0.0,0.0,0.0,0.0,0.0,0.0,0.0,0.0,0.0,0.0,0.0,0.0,0.0,0.0,0.0,0.0,0.0,0.0,0.0,0.0,0.0,0.0,0.0,0.0,0.0,0.0,0.0,0.0,0.0,0.0,0.0,0.0,0.0,0.0,0.0,0.0,0.0,0.0,0.0,0.0,0.0,0.0,0.0,0.0,0.0,0.0,0.0,0.0,0.0,0.0,0.0,0.0,0.0,0.0,0.0,0.0,0.0,0.0,0.0,0.0,0.0,0.0,0.0,0.0,0.0,0.0,0.0,0.0,0.0,0.0,0.0,0.0,0.0,0.0,0.0,0.0,0.0,0.0,0.0,0.0,0.0,0.0,0.0,0.0,0.0,0.0,0.0,0.0,0.0,0.0,0.0,0.0,0.0,0.0,0.0,0.0,0.0,0.0,0.0,0.0,0.0,0.0,0.0,0.0,0.0,0.0,0.0,0.0,0.0,0.0,0.0,0.0,0.0,0.0,0.0,0.0,0.0,0.0,0.0,0.0,0.0,0.0,0.0,0.0,0.0,0.0,0.0,0.0,0.0,0.0,0.0,0.0,0.0,0.0,0.0,0.0,0.0,0.0,0.0,0.0,0.0,0.0,0.0,0.0,0.0,0.0,0.0,0.0,0.0,0.0,0.0,0.0,0.0,0.0,0.0,0.0,0.0,0.0,0.0,0.0,0.0,0.0,0.0,0.0,0.0,0.0,0.0,0.0,0.0,0.0,0.0,0.0,0.0,0.0,0.0,0.0,0.0,0.0,0.0,0.0,0.0,0.0,0.0,0.0,0.0,0.0,0.0,0.0,0.0,0.0,0.0,0.0,0.0,0.0,0.0,0.0,0.0,0.0,0.0,0.0,0.0,0.0,0.0,0.0,0.0,0.0,0.0,0.0,0.0,0.0,-3.2002,-3.0164,0.0,0.0,0.0,0.0,0.0,0.0,0.0,0.0,0.0,0.0,0.0,0.0,0.0,0.0,0.0,0.0,0.0,0.0,0.0,0.0,0.0,0.0,0.0,-3.5622,-3.5622,-3.5622,-3.5622,-3.5453,-3.5047,0.0,0.0,0.0,0.0,0.0,-3.5588,-3.6332,-3.7077,-3.7855,-3.8599,-3.9696,-4.1163,-4.1436,-4.11,-4.0146,0.0,0.0,0.0,0.0,0.0,0.0,0.0,0.0,0.0,0.0,0.0,0.0,0.0,0.0,0.0,0.0,0.0,0.0,0.0,0.0,0.0,0.0,0.0,0.0,0.0,0.0,0.0,0.0,0.0,0.0,0.0,0.0,0.0,0.0,0.0,0.0,0.0,0.0,0.0,0.0,0.0,0.0,0.0,0.0,0.0,0.0,0.0,0.0,0.0,0.0,0.0,0.0,0.0,0.0,0.0,0.0,0.0,0.0,0.0,0.0,0.0,0.0,0.0,0.0,0.0,0.0,0.0,0.0,0.0,0.0,-3.709,-3.457,0.0,0.0,0.0,0.0,0.0,0.0,0.0,0.0,0.0,0.0,0.0,0.0,0.0,0.0,0.0,0.0,0.0,0.0,0.0,0.0,0.0,-3.5656,-3.5791,-3.5825,-3.5859,-3.5994,-3.6028,-3.6028,-3.6028,-3.6028,0.0,0.0,0.0,-3.6975,-3.6975,-3.7719,-3.8415,-3.9025,-4.0381,-4.2137,-4.4232,-4.5105,-4.4234,-4.1939,-4.0967,0.0,0.0,0.0,0.0,0.0,0.0,0.0,0.0,0.0,0.0,0.0,0.0,0.0,0.0,0.0,0.0,0.0,0.0,0.0,0.0,0.0,0.0,0.0,0.0,0.0,0.0,0.0,0.0,0.0,0.0,0.0,0.0,0.0,0.0,0.0,0.0,0.0,0.0,0.0,0.0,0.0,0.0,0.0,0.0,0.0,0.0,0.0,0.0,0.0,0.0,0.0,0.0,0.0,0.0,0.0,0.0,0.0,0.0,0.0,0.0,0.0,0.0,0.0,-4.6076,-4.761,-4.8645,-4.9113,-4.9289,-4.8929,-4.385,-4.0747,-3.9076,-3.7397,0.0,0.0,0.0,0.0,0.0,0.0,0.0,0.0,0.0,0.0,0.0,0.0,0.0,0.0,0.0,0.0,0.0,0.0,0.0,-3.5893,-3.6569,-3.6637,-3.6874,-3.755,-3.7618,-3.7618,-3.7618,-3.7618,0.0,0.0,-3.7719,-3.7753,-3.7753,-3.8464,-3.8925,-3.911,-4.288,-4.5873,-4.7877,-4.9174,-4.9584,-4.9047,-4.4166,-4.265,-4.3654,0.0,0.0,0.0,0.0,0.0,0.0,0.0,0.0,0.0,0.0,0.0,0.0,0.0,0.0,0.0,0.0,0.0,0.0,0.0,0.0,0.0,0.0,0.0,0.0,0.0,0.0,0.0,0.0,0.0,0.0,0.0,0.0,0.0,0.0,0.0,0.0,0.0,0.0,0.0,0.0,0.0,-3.3483,-3.5444,0.0,0.0,0.0,0.0,0.0,0.0,0.0,0.0,0.0,0.0,0.0,0.0,0.0,-4.4756,-4.7896,-5.0636,-5.1963,-5.1999,-5.5312,-5.605,-5.4449,-5.5804,-5.6423,-5.6361,-5.4945,0.0,-4.2848,-4.2017,0.0,0.0,0.0,0.0,0.0,0.0,0.0,0.0,0.0,0.0,0.0,0.0,0.0,0.0,0.0,0.0,0.0,0.0,0.0,0.0,0.0,-3.8633,-3.9851,-3.9783,-4.2828,-4.3335,-3.9986,-4.1339,0.0,0.0,-3.8294,-3.8531,-3.8531,-3.9648,-4.1753,-4.4973,-4.8763,-5.1717,-5.3702,-5.4753,-5.5038,-5.451,-5.1746,-4.8636,-4.5387,-4.3426,0.0,0.0,0.0,0.0,0.0,0.0,0.0,0.0,0.0,0.0,0.0,0.0,0.0,0.0,0.0,0.0,0.0,0.0,0.0,0.0,0.0,0.0,0.0,0.0,0.0,0.0,0.0,0.0,0.0,0.0,0.0,0.0,0.0,0.0,0.0,0.0,0.0,0.0,0.0,-3.4175,-3.577,-3.6739,-3.6644,-3.6146,0.0,0.0,0.0,0.0,0.0,0.0,0.0,0.0,0.0,-4.7188,-4.9589,-5.1929,-5.4206,-5.6546,-5.827,-5.9338,-6.0917,-6.1963,-6.2503,-6.2825,-6.2918,-6.2887,-6.261,-5.9193,-5.3468,-4.9004,-4.5372,-4.2325,0.0,0.0,0.0,0.0,-3.8939,-4.0201,0.0,0.0,0.0,0.0,0.0,0.0,0.0,0.0,0.0,0.0,0.0,0.0,-3.8396,-4.1441,-4.3538,-4.3741,-4.7462,-4.7936,-4.3504,-4.4215,-4.3098,-3.9208,-3.9174,-3.9276,-3.9276,-4.1552,-4.5329,-5.0552,-5.4229,-5.7027,-5.9086,-5.9989,-6.0086,-5.9562,-5.8885,-5.5036,-4.8885,-4.6702,-4.4445,0.0,0.0,0.0,0.0,0.0,0.0,0.0,0.0,0.0,0.0,0.0,0.0,0.0,0.0,0.0,0.0,0.0,0.0,0.0,0.0,0.0,0.0,0.0,0.0,0.0,0.0,0.0,0.0,0.0,0.0,0.0,0.0,0.0,0.0,0.0,0.0,0.0,0.0,-3.6414,-3.8415,-3.8046,-3.9672,-3.9924,0.0,0.0,0.0,0.0,0.0,0.0,-4.5741,-4.7835,-5.042,-5.3683,-5.6207,-5.8362,-6.0086,-6.1933,-6.3718,-6.5442,-6.5565,-6.6704,-6.8674,-6.7997,-6.7689,-6.7658,-6.7319,-6.5626,-6.261,-5.5992,-5.1467,-4.845,-4.6111,-4.4664,-4.3987,-4.4479,-4.5095,-4.5895,0.0,0.0,0.0,0.0,0.0,0.0,0.0,0.0,0.0,0.0,0.0,-3.9174,-4.2692,-4.5162,-4.7699,-5.0473,-4.9695,-4.8951,-4.8646,-4.4756,-4.2354,-4.2083,-4.0764,-4.002,-4.002,-4.4656,-4.919,-5.3436,-5.7487,-6.062,-6.2548,-6.3933,-6.458,-6.4518,-6.3779,-6.0732,-5.5997,-5.1246,-4.8765,-4.7788,0.0,0.0,0.0,0.0,0.0,0.0,0.0,0.0,0.0,0.0,0.0,0.0,0.0,0.0,0.0,0.0,0.0,0.0,0.0,0.0,0.0,0.0,0.0,0.0,0.0,0.0,0.0,0.0,0.0,0.0,0.0,0.0,0.0,0.0,0.0,0.0,0.0,0.0,0.0,-3.9585,-4.2848,0.0,0.0,0.0,0.0,-4.4972,-4.6973,-4.9312,-5.2113,-5.4176,-5.6546,-5.9285,-6.1379,-6.3749,-6.6427,-6.7812,-6.8858,-6.9597,-7.0244,-7.0613,-7.0736,-7.0059,-6.9751,-6.969,-6.8427,-6.7412,-6.6334,-6.2056,-5.7931,-5.4176,-5.276,-5.1405,-5.0236,-5.0266,-5.0728,-5.1405,0.0,0.0,0.0,0.0,0.0,0.0,0.0,-3.3085,-3.4032,-3.5791,-3.8768,-4.1982,-4.5229,-5.0574,-5.4735,-5.6765,-5.866,-5.8118,-5.4262,-5.071,-4.7665,-4.5297,-4.2828,-4.3228,-4.6808,-5.0821,-5.5016,-5.9533,-6.2743,-6.5411,-6.7381,-6.8335,-6.8766,-6.8766,-6.8489,-6.6735,-6.3502,-5.6988,-5.2529,-4.9605,-4.5866,-4.3151,0.0,0.0,0.0,0.0,0.0,0.0,0.0,0.0,0.0,0.0,0.0,0.0,0.0,0.0,0.0,0.0,0.0,0.0,0.0,0.0,0.0,0.0,0.0,0.0,0.0,0.0,0.0,0.0,0.0,0.0,0.0,0.0,0.0,0.0,0.0,0.0,0.0,-4.6018,-5.0051,0.0,-4.9251,-4.9466,-5.0236,-5.1374,-5.3345,-5.5684,-5.8423,-6.0917,-6.3318,-6.5565,-6.7627,-6.9166,-7.0151,-7.1075,-7.166,-7.1875,-7.2121,-7.2244,-7.2214,-7.1536,-7.1229,-7.1167,-6.9782,-6.9043,-6.8674,-6.6796,-6.3349,-5.9101,-5.7315,-5.6053,-5.5253,-5.5253,-5.5684,-5.6361,0.0,0.0,0.0,0.0,-3.0514,-3.1157,-3.2138,-3.2916,-3.4134,-3.6129,-4.0493,-4.4959,-4.8984,-5.5615,-6.0689,-6.2956,-6.4038,-6.2787,-5.8592,-5.3382,-4.9255,-4.6549,-4.4673,-4.6278,-5.1955,-5.5858,-5.9791,-6.3879,-6.7054,-6.9166,-7.0244,-7.1167,-7.1475,-7.129,-7.1506,-7.0859,-6.9289,-6.3841,-5.8393,-5.3158,-4.9439,-4.6982,-4.5153,0.0,0.0,0.0,0.0,0.0,0.0,0.0,0.0,0.0,0.0,0.0,0.0,0.0,0.0,0.0,0.0,0.0,0.0,0.0,0.0,0.0,0.0,0.0,0.0,0.0,0.0,0.0,0.0,0.0,0.0,0.0,0.0,0.0,0.0,-4.6203,-5.0605,-5.1313,-5.5992,-5.8177,-5.5653,-5.6269,-5.7161,-5.8085,-6.0055,-6.2179,-6.4426,-6.6704,-6.8551,-6.9874,-7.1475,-7.2306,-7.2306,-7.2983,-7.3199,-7.2983,-7.3199,-7.3199,-7.2952,-7.2275,-7.1967,-7.1906,-7.049,-6.9905,-6.9843,-6.9166,-6.6765,-6.341,-6.2056,-6.0978,-6.0178,-6.0178,-6.0301,-6.0517,0.0,0.0,0.0,-2.9905,-3.0074,-3.0581,-3.2002,-3.2882,-3.4472,-3.7483,-4.2489,-4.8071,-5.4059,-6.008,-6.5189,-6.891,-6.5121,-6.2178,-6.14,-5.2232,-4.6549,-4.5872,-4.6407,-4.9382,-5.521,-5.9665,-6.3276,-6.6231,-7.009,-7.169,-7.1044,-7.2398,-7.2706,-7.2091,-7.2768,-7.3076,-7.2952,-7.1629,-6.6488,-5.8854,-5.4668,-5.2544,-5.119,0.0,0.0,0.0,0.0,0.0,0.0,0.0,0.0,0.0,0.0,0.0,0.0,0.0,0.0,0.0,0.0,0.0,0.0,0.0,0.0,0.0,0.0,0.0,0.0,0.0,0.0,0.0,0.0,0.0,0.0,0.0,0.0,0.0,-4.4726,-5.1221,-5.5715,-5.5191,-6.0424,-6.2794,-5.9532,-6.1594,-6.3687,-6.5042,-6.6981,-6.8643,-6.9936,-7.129,-7.2029,-7.2029,-7.2706,-7.3076,-7.3045,-7.3753,-7.3753,-7.3045,-7.3722,-7.366,-7.2983,-7.2306,-7.1998,-7.1937,-7.0521,-6.9936,-6.9874,-6.9166,-6.812,-6.695,-6.695,-6.6119,-6.4888,-6.4918,-6.4487,-6.3779,0.0,0.0,-2.8213,-2.8416,-2.9364,-3.0243,-3.0649,-3.2239,-3.4303,-3.6772,-4.3504,-5.0371,-5.6325,-6.3328,-6.8842,-7.1988,-6.8199,-6.4613,-6.2245,-5.3484,-4.8545,0.0,0.0,0.0,-6.4589,0.0,-6.8861,-7.2495,-7.3106,-7.3322,-7.3168,-7.403,-7.4338,-7.4184,-7.4892,-7.4892,-7.4461,-7.4553,-7.246,-6.8489,-6.1933,-5.7715,-5.4853,0.0,0.0,0.0,0.0,0.0,0.0,0.0,0.0,0.0,0.0,0.0,0.0,0.0,0.0,0.0,0.0,0.0,0.0,0.0,0.0,0.0,0.0,0.0,0.0,0.0,0.0,0.0,0.0,0.0,0.0,0.0,-4.7865,-5.082,-5.0513,-5.6053,-6.0978,-6.3287,-6.7227,-6.9566,-6.9135,-6.9751,-7.0336,-7.0736,-7.129,-7.1752,-7.2121,-7.2952,-7.3445,-7.3445,-7.4584,-7.4953,-7.4461,-7.56,-7.56,-7.4461,-7.4645,-7.4368,-7.3691,-7.3014,-7.2706,-7.2645,-7.1229,-7.0644,-7.0551,-6.9382,-6.8397,-6.7658,-6.7658,-6.6519,-6.4949,-6.5442,-6.5195,-6.458,0.0,-2.7063,-2.7435,-2.7739,-2.8822,-2.9736,-3.0074,-3.2002,-3.4438,-3.7313,-4.4857,-5.2198,-5.8152,-6.4986,-6.9925,-7.1921,-6.7996,-6.3903,-6.0283,-5.3687,-5.0947,0.0,0.0,0.0,0.0,0.0,-7.2917,-7.5775,-7.5216,-7.5208,-7.6088,-7.6196,-7.6123,-7.5877,-7.6862,-7.6923,-7.6308,-7.7016,-7.6277,-7.4276,-6.9936,-6.5811,-6.1686,-5.6484,-5.436,-5.3683,-5.0112,-4.9558,-4.9959,-4.6234,0.0,0.0,0.0,0.0,0.0,0.0,0.0,0.0,0.0,0.0,0.0,0.0,0.0,0.0,0.0,0.0,0.0,0.0,0.0,0.0,0.0,0.0,0.0,0.0,-5.3191,-5.7377,-5.8116,-6.2025,-6.6027,-6.9474,-7.1875,-7.363,-7.4584,-7.443,-7.4368,-7.4645,-7.4676,-7.4553,-7.4276,-7.5169,-7.5569,-7.5261,-7.6585,-7.7108,-7.6708,-7.72,-7.6892,-7.5846,-7.5569,-7.4922,-7.3968,-7.3599,-7.326,-7.2922,-7.1813,-7.1352,-7.1229,-6.9874,-6.8766,-6.7935,0.0,0.0,0.0,0.0,-6.5472,-6.4888,0.0,-2.6691,-2.6894,-2.7571,-2.8349,-2.9127,-2.9871,-3.1799,-3.4539,-3.8362,-4.5872,-5.3044,-5.8863,-6.485,-6.8808,-6.962,-6.5662,-6.1298,-5.6968,-5.3721,0.0,-5.8693,0.0,0.0,0.0,0.0,-7.618,-7.7907,-7.6993,-7.7489,-7.9163,-7.8574,-7.7948,-7.7293,-7.8616,-7.8893,-7.8432,-7.9139,-7.8709,-7.757,-7.7416,-7.4461,-6.9443,-6.3287,-6.1502,-6.1686,-5.7223,-5.4576,-5.2914,-5.119,0.0,0.0,0.0,0.0,0.0,0.0,0.0,0.0,0.0,0.0,0.0,0.0,0.0,0.0,0.0,0.0,0.0,0.0,0.0,0.0,0.0,0.0,0.0,0.0,-5.8239,-6.3502,-6.6427,-6.8551,-7.0859,-7.3753,-7.483,-7.5846,-7.7139,-7.6708,-7.6615,-7.72,-7.7262,-7.6985,-7.64,-7.7508,0.0,0.0,0.0,-7.917,-7.9109,-7.8462,-7.7816,-7.7108,-7.6369,-7.5384,-7.4214,-7.4061,-7.3722,-7.3168,-7.2337,-7.1967,-7.1844,-7.0398,-6.9012,-6.7781,-6.7658,-6.7258,-6.6735,-6.6027,-6.5411,-6.4888,0.0,-2.6691,-2.6725,-2.6894,-2.7537,-2.8315,-2.9093,-3.0581,-3.3186,-3.755,-4.4215,-5.0371,-5.5141,-6.0994,-6.5121,-6.644,-6.299,-5.9404,-5.6156,0.0,0.0,0.0,0.0,0.0,0.0,0.0,-7.9893,-8.3498,-8.1215,-8.0266,-8.0617,-8.0518,-7.9801,-7.8739,-7.954,-8.0124,-8.0525,-8.1202,-8.1356,-8.1017,-7.994,-7.6308,-7.1321,-6.8858,-6.6765,-6.4764,-6.2179,-6.1717,-6.1717,-5.7592,-5.6115,-5.5222,-5.0605,-4.6573,0.0,0.0,0.0,0.0,0.0,0.0,0.0,0.0,0.0,0.0,0.0,0.0,0.0,0.0,0.0,0.0,0.0,0.0,0.0,-5.8146,-6.3379,-6.8058,-7.1906,-7.4184,-7.5292,-7.4861,-7.6369,-7.7785,-7.8616,-7.8585,-7.8555,-7.8678,-7.8709,-7.8647,-7.8524,-7.8739,-7.8832,-7.8709,-7.9478,-7.9663,-7.9109,-7.8955,-7.8524,-7.7816,-7.6585,0.0,-7.56,-7.4491,-7.4214,-7.4522,-7.2737,-7.1967,-7.1813,-6.9874,-6.8304,-6.7012,-6.5903,-6.575,-6.6027,-6.5349,-6.5011,-6.4888,0.0,-2.5879,-2.6251,-2.6623,-2.7334,-2.7943,-2.8349,-2.9973,-3.2544,-3.6265,-4.1948,-4.7225,-5.1352,-5.5818,-5.8626,-5.8964,-5.6596,-5.5412,0.0,-5.9404,0.0,0.0,0.0,0.0,0.0,-8.2131,-8.3334,-8.6147,-8.3092,-8.2459,-8.4091,-8.2371,-8.1206,-8.0617,-8.1294,-8.1602,-8.1633,-8.231,-8.2402,-8.2033,-8.1356,-7.8862,-7.5323,-7.3229,-7.1413,-6.972,-6.8027,-6.6981,-6.5903,-6.2487,-6.0424,-5.8639,-5.4914,-5.1405,-4.8173,0.0,0.0,0.0,0.0,0.0,0.0,0.0,0.0,0.0,0.0,0.0,0.0,0.0,0.0,-4.6942,-4.9651,0.0,-5.8485,-6.224,-6.7412,-7.1567,-7.326,-7.6123,-7.7785,-7.7139,-7.7939,-7.8955,-8.0001,-7.9786,-7.9755,-8.0063,-8.0094,-7.994,-7.9632,-7.9909,-7.994,-7.9601,-8.0248,-8.0432,-8.0094,-7.9447,-7.9078,-7.9047,-7.7323,-7.6523,-7.6492,-7.5476,-7.5015,-7.4953,-7.3937,-7.3291,-7.2798,-7.0398,-6.8397,-6.6858,-6.618,-6.5903,-6.5873,-6.5534,-6.5195,-6.4888,0.0,-2.4763,-2.5439,-2.6319,-2.7097,-2.7638,-2.7772,-2.9499,-3.1833,-3.481,-3.9377,-4.3673,-4.7124,-5.0067,-5.1555,-5.1048,-5.098,0.0,0.0,0.0,0.0,0.0,0.0,0.0,-8.3686,-8.4787,-8.6147,-8.7828,-8.4749,-8.4699,-8.7366,-8.4244,-8.2727,-8.2513,-8.2913,-8.2864,-8.2495,-8.3049,-8.3049,-8.2649,-8.2248,-8.1048,-7.917,-7.6431,-7.4892,-7.3999,-7.2645,-7.0182,-6.7289,-6.5657,-6.2918,-5.9901,-5.827,-5.5961,-5.3191,-4.9651,-4.7742,0.0,0.0,0.0,0.0,0.0,0.0,0.0,0.0,-4.3063,-4.4479,-4.7711,-4.9651,-5.1959,-5.5776,-5.9963,-6.3595,-6.6057,-7.0828,-7.4091,-7.3814,-7.6923,-7.9201,-7.9109,-7.9324,-7.9909,-8.0956,-8.0586,-8.0525,-8.1017,-8.1079,-8.0832,-8.0309,-8.0802,-8.0832,-8.0309,-8.0802,-8.1079,-8.1079,-7.9878,-7.957,-8.0094,-7.8154,-7.72,-7.72,-7.6369,-7.5784,-7.5384,-7.4984,-7.4276,-7.3199,-7.0705,-6.8612,-6.6919,-6.6919,-6.6488,-6.5903,-6.5903,-6.5472,-6.4888,0.0,-2.3579,-2.4086,-2.5473,-2.6319,-2.7029,-2.7671,-2.8619,-3.0311,-3.3254,-3.6502,-3.9445,-4.1813,-4.4181,-4.5805,-4.638,-5.1116,0.0,0.0,0.0,0.0,0.0,0.0,0.0,-8.7328,-8.7045,-8.7879,-8.9825,-8.8257,-8.7689,-8.8041,-8.646,-8.5017,-8.392,-8.3302,-8.3387,-8.388,-8.3941,-8.428,-8.4619,-8.2803,-8.1571,-8.0555,-7.7816,-7.6,-7.4707,-7.3353,-6.9967,-6.6088,-6.5873,-6.3903,-6.1532,-6.1317,-5.9809,-5.7315,-5.3314,-4.9928,-4.6603,-4.2571,-4.0632,-4.0139,-4.174,-4.2633,-4.4233,0.0,-5.0082,-5.1374,-5.4145,-5.6761,-5.9408,-6.2271,-6.4734,-6.7596,-7.1444,-7.366,-7.5292,-7.64,-7.8555,-7.9755,-7.917,-8.0124,-8.0925,-8.1048,-8.1017,-8.0986,-8.1079,-8.1079,-8.1048,-8.0956,-8.1017,-8.1048,-8.0956,-8.1017,-8.1079,-8.1079,-8.034,-8.0032,-8.0094,-7.8616,-7.7908,-7.7877,-7.6585,-7.6308,-7.6708,-7.4892,-7.3014,-7.1136,-6.9628,-6.8181,-6.6919,-6.6919,-6.6488,-6.5903,-6.5903,-6.5472,-6.4888,0.0,0.0,-2.3579,-2.4222,-2.527,-2.6319,-2.7063,-2.7807,-2.9059,-3.119,-3.3322,-3.5318,-3.711,-3.8937,-4.0358,-4.1102,0.0,0.0,-5.8355,0.0,0.0,0.0,0.0,-8.7448,-8.9241,-8.9091,-8.9596,-9.0831,-8.988,-8.9442,-8.9442,-8.8467,-8.763,-8.7103,-8.5968,-8.5588,-8.5869,-8.508,-8.4834,-8.4957,-8.3326,-8.2033,-8.0771,-7.8062,-7.4953,-7.1844,-7.0521,-6.775,0.0,-6.2887,-6.1317,-6.0178,-6.0978,-5.9562,-5.7038,-5.4145,-5.1159,-4.8019,-4.4326,-4.3187,-4.334,-4.4603,-4.6634,-4.922,-5.2821,-5.476,-5.67,-5.9809,-6.2302,-6.4764,-6.7442,-6.9628,-7.1721,-7.3814,-7.563,-7.6954,-7.7539,-7.8339,-7.8493,-7.7416,-7.8154,-7.917,-8.0402,-8.0525,-8.0679,-8.1048,-8.1079,-8.1079,-8.1079,-8.1079,-8.1079,-8.1079,-8.1079,-8.1079,-8.1079,-8.0432,-8.0309,-8.0648,-7.8862,-7.8247,-7.8616,-7.7231,-7.6523,-7.6369,-7.5107,-7.3414,-7.1444,-7.0459,-6.9043,-6.7504,-6.7504,-6.6858,-6.5903,-6.5903,-6.5472,-6.4888,0.0,0.0,0.0,-2.3342,-2.4458,-2.5541,-2.6285,-2.7199,-2.8279,-2.9634,-3.0886,-3.2239,-3.3728,-3.525,-3.6468,-3.7212,0.0,0.0,0.0,-6.6,0.0,0.0,-8.5384,0.0,-8.9579,-9.0188,-9.0763,-9.1305,-9.1007,-9.0859,-9.0859,-8.9956,-8.9675,-8.9871,-8.8235,-8.7633,-8.7651,-8.6142,-8.5388,-8.5234,-8.351,-8.1879,-8.0155,-7.6646,-7.2244,-6.7812,-6.6858,-6.418,-6.0732,-5.8362,-5.6977,-5.6546,-5.8085,-5.7346,-5.553,-5.3498,-5.0574,-4.7527,-4.5434,-4.5495,-4.6542,-4.8173,-5.1128,-5.436,-5.7069,-5.9408,-6.1809,-6.4641,-6.6858,-6.9012,-7.1321,-7.2829,-7.4184,-7.56,-7.6923,-7.7877,-7.8278,-7.8154,-7.7385,-7.5661,-7.5569,-7.6277,-7.797,-7.917,-8.0248,-8.1263,-8.1171,-8.1233,-8.1602,-8.1263,-8.114,-8.1356,-8.1171,-8.1079,-8.1079,-8.0617,-8.0525,-8.0771,-7.9109,-7.8493,-7.877,-7.757,-7.6646,-7.5969,-7.5292,-7.3968,-7.2183,-7.129,-6.9936,-6.8427,-6.8058,-6.7196,-6.615,-6.5965,-6.5472,-6.4888,0.0,0.0,0.0,0.0,-2.4019,-2.4763,-2.5541,-2.6894,-2.8112,-2.8924,-2.9702,-3.0717,-3.2205,-3.366,-3.4878,-3.5622,0.0,0.0,0.0,-6.2821,-7.0973,-7.987,-8.3862,-8.6535,-8.8023,-9.0154,-9.1271,-9.1305,-9.2049,-9.2304,-9.2304,-9.0893,-9.0643,-9.1371,-8.9154,-8.8644,-8.9213,-8.7042,-8.6096,-8.585,-8.3172,-8.0925,-7.8555,-7.3137,-6.775,-6.301,-6.2979,-5.9131,-5.3806,-5.2421,-5.1067,-5.0297,-5.2329,-5.3345,-5.3406,-5.1374,-4.7434,-4.4018,-4.5218,-4.6542,-4.8512,-5.2513,-5.6053,-5.9285,-6.1994,-6.4703,-6.7073,-6.8458,-7.0367,-7.2244,-7.363,-7.3414,-7.4091,-7.7416,-7.7447,-7.7539,-7.8862,-7.8462,-7.7046,-7.4368,-7.2922,-7.2398,-7.3137,-7.68,-7.994,-8.191,-8.1448,-8.1633,-8.2956,-8.1787,-8.1387,-8.2033,-8.1417,-8.1079,-8.1079,-8.1048,-8.074,-8.0124,-7.9417,-7.8709,-7.8031,-7.7354,-7.6646,-7.5969,-7.5292,-7.4214,-7.2829,-7.1475,-7.049,-6.972,-6.8427,-6.7504,-6.6796,-6.615,-6.5472,-6.4888,0.0,0.0,0.0,0.0,0.0,0.0,-2.4831,-2.6116,-2.7537,-2.8822,-3.0074,0.0,0.0,0.0,0.0,0.0,0.0,0.0,0.0,-5.9099,-6.7083,-7.2597,-7.9701,-8.4234,-8.5723,-8.7482,-8.8869,-8.9816,-9.0594,-9.0966,-9.0966,-9.0942,-9.143,-9.2017,-8.9415,-8.8584,-8.909,-8.6134,-8.5019,-8.5142,-8.154,-7.9139,-7.7077,-7.1167,-6.4703,-5.8393,0.0,-5.1621,-4.8194,-4.72,-4.6377,-4.5988,-4.8019,-4.8512,-4.7927,-4.5926,-4.5772,-4.6357,-4.6788,-4.9897,-5.3745,-5.6946,-6.0978,-6.4641,-6.6427,-6.8982,-7.0675,-6.9751,-6.9413,-6.9289,-6.9289,-6.9105,-7.0059,-7.3476,-7.5323,-7.6831,-7.8185,-7.8555,-7.6862,-7.1875,-7.2491,-7.2491,-7.0459,-7.3168,-7.6461,-7.9847,-7.9878,-8.034,-8.1664,-8.1325,-8.1171,-8.1387,-8.1202,-8.1079,-8.1079,-8.1079,-8.074,-8.0094,-7.8955,-7.8031,-7.7354,-7.7108,-7.64,-7.5323,-7.5107,-7.3968,-7.2244,-7.129,-7.049,-6.9751,-6.8427,-6.7781,-6.7504,-6.6827,-6.615,-6.5503,0.0,0.0,0.0,0.0,0.0,0.0,0.0,0.0,0.0,0.0,0.0,0.0,0.0,0.0,0.0,0.0,0.0,-4.0426,0.0,0.0,-5.9945,-6.4512,-7.1244,-7.5574,-7.7063,-7.8551,-8.031,-8.234,-8.3592,-8.5046,-8.667,-8.7651,-8.8801,-8.9939,-8.7397,-8.679,-8.7147,-8.3744,-8.2111,-8.1628,-7.7191,-7.4129,-7.1323,-6.5156,-5.8709,0.0,0.0,-4.5352,-4.2621,-4.2427,-4.2389,-4.2683,-4.3723,-4.411,-4.4048,-4.3494,-4.5341,-4.8019,-4.9959,-5.4114,-5.8639,-6.1902,-6.5534,-6.8705,-7.0028,-7.1321,-7.166,-6.9597,-6.812,-6.6858,-6.5657,-6.4672,-6.5442,-6.9813,-7.1383,-7.3199,-7.6492,-7.6708,-7.5046,-7.1105,-7.1752,-7.1752,-6.9782,-7.1198,-7.4153,-7.8739,-7.9109,-7.9878,-8.1694,-8.1325,-8.1294,-8.1787,-8.1325,-8.1202,-8.1417,-8.0956,-8.0278,-7.9355,-7.8216,-7.7447,-7.7016,-7.6769,-7.6061,-7.4984,-7.4738,-7.3753,-7.2275,-7.1567,-7.089,-7.012,-6.8797,-6.812,-6.7812,-6.6888,-6.6273,-6.5842,0.0,0.0,0.0,0.0,0.0,0.0,0.0,0.0,0.0,0.0,0.0,0.0,0.0,0.0,0.0,0.0,0.0,0.0,0.0,0.0,0.0,-5.6055,-5.937,-6.1772,-6.326,-6.4715,-6.688,-6.9857,-7.1954,-7.5202,-7.9498,-8.0885,-8.2746,-8.477,-8.2837,-8.245,-8.2975,-7.9687,-7.7264,-7.5177,-7.0297,-6.607,-6.1949,-5.5837,0.0,0.0,0.0,-4.0739,-3.761,-3.8368,-3.943,-4.0381,-3.9941,-4.0724,-4.2263,-4.4295,-4.6419,-4.9281,-5.4514,-5.9008,-6.3133,-6.7104,-6.9566,-7.1352,-7.2583,-7.1813,-7.0182,-6.8058,-6.6396,-6.4703,-6.2579,-6.0209,-6.0547,-6.6642,-6.6273,-6.7566,-7.4184,-7.3537,-7.2306,-7.2091,-7.1013,-7.0459,-7.0952,-7.1105,-7.3353,-7.8585,-7.8986,-8.0155,-8.2803,-8.1756,-8.1633,-8.2833,-8.1694,-8.1356,-8.191,-8.0648,-7.9324,-7.8031,-7.7354,-7.7016,-7.6985,-7.6308,-7.563,-7.4953,-7.4276,-7.3599,-7.2922,-7.2244,-7.1567,-7.0828,-6.9474,-6.8551,-6.7812,-6.6488,-6.5965,-6.5903,0.0,0.0,0.0,0.0,0.0,0.0,0.0,0.0,0.0,0.0,0.0,0.0,0.0,0.0,0.0,0.0,0.0,0.0,0.0,0.0,0.0,0.0,0.0,0.0,0.0,0.0,0.0,0.0,0.0,-6.7184,-6.9383,-6.9755,-7.0838,-7.237,-7.083,-7.0597,-7.1117,-6.8744,-6.7439,-6.6565,0.0,-6.0073,-5.7643,0.0,0.0,0.0,0.0,-4.091,-3.8926,-3.9646,-4.0858,-4.2169,-4.3044,-4.4233,-4.5834,-4.8389,-5.199,-5.5807,-5.8701,-6.3195,-6.7566,-6.9628,-7.1321,-7.2275,-7.1598,-7.0367,-6.8243,-6.421,-6.027,-5.6792,-5.4237,-5.4884,-5.7438,-6.2548,-6.7196,-7.166,-7.5907,-7.7385,-7.6892,-7.3845,-7.4491,-7.4491,-7.2614,-7.3814,-7.5692,-7.8093,-7.7816,-7.8524,-8.074,-8.0986,-8.0771,-8.0124,-8.074,-8.0679,-7.9878,-7.8986,-7.837,-7.8031,-7.7354,-7.7016,-7.6985,-7.6308,-7.563,-7.4953,-7.4276,-7.3599,-7.2922,-7.2244,-7.1875,-7.1567,-7.0182,-6.9228,-6.8551,-6.772,-6.6765,-6.5903,0.0,0.0,0.0,0.0,0.0,0.0,0.0,0.0,0.0,0.0,0.0,0.0,0.0,0.0,0.0,0.0,0.0,0.0,0.0,0.0,0.0,0.0,0.0,0.0,0.0,0.0,0.0,0.0,0.0,0.0,0.0,-6.0994,-6.211,-6.3451,-6.2444,-6.2256,-6.253,-6.0849,0.0,0.0,0.0,0.0,0.0,0.0,0.0,0.0,0.0,0.0,-4.0752,-4.1468,-4.2935,-4.4695,-4.6634,-4.8389,-5.042,-5.4083,-5.7438,-6.0701,-6.3903,-6.7904,-7.1383,-7.2429,-7.2829,-7.2306,-6.972,-6.7412,-6.4087,-5.8146,-5.4576,-5.159,-4.8573,-4.9989,-5.3345,-5.8731,-6.4057,-6.9413,-7.4922,-7.72,-7.7785,-7.6369,-7.7231,-7.7323,-7.5815,-7.6431,-7.757,-7.9232,-7.8739,-7.9139,-8.0894,-8.1602,-8.1602,-8.0863,-8.1294,-8.074,-7.9109,-7.8709,-7.8185,-7.76,-7.72,-7.7016,-7.6985,-7.6308,-7.5815,-7.5384,-7.443,-7.3783,-7.3383,-7.2706,-7.206,-7.1413,-7.0644,-6.9566,-6.8397,-6.772,-6.6827,-6.5873,0.0,0.0,0.0,0.0,0.0,0.0,0.0,0.0,0.0,0.0,-2.811,-2.8315,0.0,0.0,0.0,0.0,0.0,0.0,0.0,0.0,0.0,0.0,0.0,0.0,0.0,0.0,0.0,0.0,0.0,0.0,0.0,0.0,0.0,0.0,0.0,0.0,0.0,0.0,0.0,0.0,0.0,0.0,0.0,0.0,0.0,0.0,0.0,0.0,0.0,0.0,-4.5603,-4.7773,-5.0697,-5.3098,-5.5684,-6.027,-6.2641,-6.4703,-6.9012,-7.2091,-7.4245,-7.4738,-7.3783,-7.1629,-6.7442,-6.3656,-5.8947,-5.1775,-4.9466,-4.7804,-4.4756,-4.5988,-4.9558,-5.5992,-5.9963,-6.5103,-7.3383,-7.563,-7.7169,-7.9201,-7.9478,-7.954,-7.9632,-7.8986,-7.9293,-8.1079,-8.0771,-8.0956,-8.2033,-8.2649,-8.2926,-8.2833,-8.2002,-8.0771,-7.9109,-7.8924,-7.8216,-7.7016,-7.7016,-7.7016,-7.6985,-7.6308,-7.6,-7.5938,-7.4676,-7.4091,-7.3937,-7.3353,-7.2368,-7.1167,-7.0982,-6.9782,-6.8089,-6.7319,-6.655,-6.5811,0.0,0.0,0.0,0.0,0.0,0.0,0.0,0.0,0.0,0.0,-2.9867,-2.9296,0.0,0.0,0.0,0.0,0.0,0.0,0.0,0.0,0.0,0.0,0.0,0.0,0.0,0.0,0.0,0.0,0.0,0.0,0.0,0.0,0.0,0.0,0.0,0.0,0.0,0.0,0.0,0.0,0.0,0.0,0.0,0.0,0.0,0.0,0.0,0.0,0.0,0.0,-4.9015,-5.1498,-5.5345,-5.8331,-6.1132,-6.4795,-6.7196,-6.9105,-7.1075,-7.3199,-7.4707,-7.4276,-7.2706,-7.0059,-6.5411,-6.0455,-5.5161,-4.9343,-4.5834,-4.3494,-4.2325,-4.4664,-4.9343,-5.7161,-6.1779,-6.7381,-7.6123,-7.8031,-7.9293,-8.1325,-8.154,-8.1787,-8.2341,-8.1787,-8.151,-8.1879,-8.231,-8.2433,-8.2095,-8.2187,-8.2002,-8.1448,-7.9663,-7.8862,-7.9109,-7.797,-7.7262,-7.7016,-7.7016,-7.7016,-7.6985,-7.6308,-7.6,-7.5969,-7.5169,-7.4522,-7.3968,-7.3876,-7.3353,-7.2491,-7.1352,-7.0367,-6.9413,-6.8181,-6.6981,-6.5903,0.0,0.0,0.0,0.0,0.0,0.0,0.0,-2.8431,-3.0644,-3.2823,-3.3354,-3.3111,-3.1901,-3.0784,-3.0243,0.0,0.0,0.0,0.0,0.0,0.0,0.0,0.0,0.0,0.0,0.0,-3.7483,-3.7855,0.0,0.0,0.0,-4.046,-4.0798,-4.1136,-4.1136,0.0,0.0,0.0,0.0,0.0,-4.0629,-4.0392,0.0,0.0,0.0,0.0,0.0,0.0,0.0,0.0,-4.8482,-5.2678,-5.8554,-6.2517,-6.5596,-6.8643,-7.0459,-7.1875,-7.3599,-7.5046,-7.5815,-7.4769,-7.1906,-6.7627,-6.1071,-5.5684,-5.0205,-4.3679,-4.134,-4.0385,-4.0047,-4.3033,-4.7527,-5.3591,-5.7993,-6.3749,-7.2552,-7.5323,-7.7847,-8.1633,-8.271,-8.3264,-8.3572,-8.2679,-8.2218,-8.2587,-8.2587,-8.2433,-8.2095,-8.2064,-8.1941,-8.1602,-7.9971,-7.9109,-7.9109,-7.8062,-7.7385,-7.7016,-7.7016,-7.7016,-7.7016,-7.6677,-7.6523,-7.6492,-7.5815,-7.5138,-7.4491,-7.4153,-7.3383,-7.2398,-7.1721,-7.0828,-6.9782,-6.8797,-6.7812,-6.6919,0.0,0.0,0.0,0.0,0.0,0.0,-2.735,-2.9721,-3.2259,-3.5098,-3.688,-3.6774,-3.3989,-3.2273,-3.1021,0.0,0.0,0.0,0.0,0.0,0.0,0.0,0.0,0.0,0.0,0.0,0.0,-3.6772,-3.7956,0.0,0.0,0.0,0.0,0.0,-4.0087,-4.0087,-4.0087,-4.0087,0.0,0.0,0.0,-4.0087,0.0,0.0,0.0,0.0,0.0,0.0,0.0,0.0,-4.6834,-5.1643,-5.8355,-6.3364,-6.7319,-6.9751,-7.1567,-7.3168,-7.5076,-7.64,-7.6831,-7.5199,-7.1198,-6.5565,-5.7531,-5.159,-4.5803,-3.8908,-3.78,-3.8169,-3.8446,-4.137,-4.5249,-4.9928,-5.3498,-5.8854,-6.7966,-7.1598,-7.5415,-8.0986,-8.2956,-8.3941,-8.4095,-8.3018,-8.2464,-8.2833,-8.2248,-8.1941,-8.2064,-8.2064,-8.1941,-8.1664,-8.0494,-7.957,-7.8862,-7.8185,-7.7539,-7.7016,-7.7016,-7.7016,-7.7016,-7.7016,-7.7016,-7.6985,-7.6461,-7.5754,-7.4953,-7.443,-7.3414,-7.2183,-7.2029,-7.129,-7.0244,-6.9531,-6.8821,-6.8143,0.0,0.0,0.0,0.0,0.0,0.0,-2.7977,-3.0842,-3.4439,-3.9387,-3.8968,-3.8237,-3.8118,-3.6308,-3.4032,0.0,0.0,0.0,0.0,0.0,0.0,0.0,0.0,0.0,0.0,0.0,0.0,-3.6772,-3.6907,0.0,0.0,0.0,0.0,0.0,0.0,-4.0087,-4.0087,-4.0087,0.0,0.0,0.0,0.0,0.0,0.0,0.0,0.0,0.0,-4.0213,-4.0842,-4.4092,-4.5966,-4.7603,-5.1393,-5.7552,-6.3595,-6.5103,-6.8643,-7.2368,-7.3783,-7.6031,-7.7323,-7.4738,-7.0521,-6.5042,-5.75,-5.0174,-4.3525,-3.8539,-3.7061,-3.7061,-3.8292,-3.9831,-4.3063,-4.962,-5.1528,-5.5684,-6.578,-6.9505,-7.3445,-7.957,-8.2002,-8.3418,-8.4034,-8.3418,-8.2772,-8.2218,-8.154,-8.1448,-8.2033,-8.2064,-8.154,-8.034,-7.957,-7.8862,-7.8124,-7.7447,-7.7077,-7.7016,-7.7016,-7.7016,-7.7016,-7.7016,-7.7016,-7.7016,-7.6954,-7.6184,-7.5015,-7.4922,-7.4122,-7.2829,-7.2214,-7.1906,-7.1629,-7.0663,-6.9883,-6.917,0.0,0.0,0.0,0.0,0.0,0.0,-2.8528,-3.0419,-3.3483,-3.9063,-3.9348,-3.922,-3.9707,-3.7952,-3.5239,-3.1529,0.0,0.0,0.0,0.0,0.0,0.0,0.0,0.0,0.0,0.0,-3.5318,-3.6096,-3.6535,0.0,0.0,0.0,0.0,0.0,0.0,-3.9411,-3.9445,-3.9884,0.0,0.0,0.0,0.0,0.0,0.0,0.0,0.0,0.0,0.0,-4.0227,-4.0877,-4.2104,-4.3409,-4.3653,-4.7769,-5.3683,-5.9963,-6.4918,-6.8982,-7.1967,-7.5046,-7.6769,-7.4061,-6.9197,-6.3102,-5.5653,-4.8481,-4.2048,-3.7277,-3.5737,-3.5676,-3.7061,-3.7738,-3.9801,-4.4972,-4.5711,-4.8758,-5.7715,-6.0917,-6.5534,-7.4184,-7.7354,-8.0217,0.0,0.0,-8.2187,-8.151,-8.1233,-8.1202,-8.1448,-8.1479,-8.1233,-8.0709,-7.9663,-7.8955,-7.8678,-7.757,-7.7016,-7.7016,-7.7016,-7.7016,-7.7016,-7.7016,-7.7016,-7.7016,-7.7016,-7.6492,-7.5569,-7.5169,-7.4587,-7.3787,-7.3108,-7.2953,-7.3042,-7.22,-7.1541,-7.0855,0.0,0.0,0.0,0.0,0.0,-2.5143,-2.8588,-3.0278,-3.3027,-3.8295,-3.9229,-3.9734,-4.0413,-3.8253,-3.5559,-3.2656,-3.1537,0.0,0.0,0.0,0.0,0.0,0.0,0.0,0.0,0.0,-3.4878,-3.5622,-3.64,-3.6907,0.0,0.0,-3.7922,-3.7922,0.0,0.0,0.0,0.0,0.0,0.0,0.0,0.0,0.0,0.0,0.0,0.0,0.0,0.0,0.0,0.0,0.0,-4.0208,-3.9059,0.0,0.0,-5.3622,-5.9809,-6.4703,-6.8766,-7.2798,-7.5323,-7.3199,-6.7935,-6.1379,-5.433,-4.7004,-4.0509,-3.6353,-3.4783,-3.4629,-3.6199,-3.6507,-3.7707,-4.1401,-4.1955,-4.4449,-5.1805,-5.4914,-5.9624,-6.8243,0.0,-7.5661,-8.0894,-8.1817,-8.1787,-8.111,-8.1079,-8.1079,-8.1079,-8.1079,-8.0986,-8.0802,-7.9694,-7.8986,-7.877,-7.76,-7.7016,-7.7016,-7.7016,-7.7016,-7.7016,-7.7016,-7.7016,-7.7016,-7.7016,-7.6523,-7.5661,-7.5327,-7.4745,-7.416,-7.3787,-7.3692,-7.3811,-7.3276,-7.2714,-7.2214,0.0,0.0,0.0,0.0,0.0,-2.5011,-2.7926,-3.0808,-3.3988,-3.7731,-3.8825,-3.9607,-4.0413,-3.7203,-3.4977,-3.5131,-3.2588,0.0,0.0,0.0,0.0,0.0,0.0,0.0,0.0,0.0,-3.4878,-3.5622,-3.64,-3.7178,-3.7889,-3.7922,-3.7922,-3.7922,0.0,0.0,0.0,0.0,0.0,0.0,0.0,0.0,0.0,0.0,0.0,0.0,0.0,0.0,0.0,0.0,0.0,0.0,0.0,-3.8424,-3.8908,0.0,-5.3006,-5.9747,-6.3841,-6.892,-7.286,-7.2152,-6.6858,-6.024,-5.4114,-4.5895,-3.8785,-3.6045,-3.4383,-3.4044,-3.6107,-3.6507,-3.7369,-4.0108,-4.1709,-4.451,-4.9959,-5.3622,-5.7531,0.0,0.0,-6.9874,-7.4645,-7.9324,-8.1787,-8.111,-8.1079,-8.1079,-8.1079,-8.1079,-8.0771,-8.0124,-7.9447,-7.877,-7.8031,-7.7354,-7.7016,-7.7016,-7.7016,-7.7016,-7.7016,-7.7016,-7.7016,-7.7016,-7.7016,-7.6246,-7.5015,-7.5366,-7.4718,-7.3509,-7.3814,-7.3905,-7.3842,-7.3515,-7.3383,-7.3289,0.0,0.0,0.0,0.0,0.0,0.0,-2.6535,-2.8092,-3.0477,-3.4651,-3.4518,-3.5081,-3.7882,-3.4849,-3.3106,-3.4272,-3.2235,0.0,0.0,0.0,0.0,0.0,0.0,0.0,0.0,-3.4506,-3.5656,-3.64,-3.7686,-3.8159,-3.7922,-3.7922,-3.7618,-3.7144,-3.7144,-3.728,0.0,0.0,0.0,0.0,0.0,0.0,-4.0087,0.0,0.0,0.0,0.0,0.0,0.0,0.0,0.0,0.0,0.0,0.0,0.0,-3.937,-4.5618,-5.2513,-5.5715,-5.9501,-6.221,-6.0578,-5.6823,-5.239,-4.8142,-4.2848,-3.8077,-3.5368,-3.4445,-3.4321,-3.4999,-3.5491,-3.6999,-4.0662,-4.1648,-4.331,-4.7311,-5.2021,0.0,-6.221,-7.1167,-7.7508,0.0,0.0,-8.1787,-8.111,-8.1079,-8.1079,-8.1079,-8.1079,-8.0771,-8.0124,-7.9447,-7.877,-7.8031,-7.7354,-7.7016,-7.7016,-7.7016,-7.7016,-7.7016,-7.7016,-7.7016,-7.7016,-7.7016,-7.6653,-7.6015,-7.5678,-7.5216,-7.4714,-7.4366,-7.4419,-7.4627,-7.4407,-7.4179,-7.3737,0.0,0.0,0.0,0.0,0.0,0.0,-2.511,-2.6468,-2.8395,-3.1371,-3.1437,-3.2398,-3.5512,-3.3061,-3.1901,-3.3748,-3.2017,0.0,0.0,0.0,0.0,0.0,0.0,0.0,-3.29,-3.4115,-3.5678,-3.757,-3.9106,-3.9749,-3.958,-3.9851,-3.9005,-3.7212,-3.7212,-3.7043,0.0,0.0,0.0,0.0,0.0,0.0,-3.9648,0.0,0.0,0.0,0.0,0.0,0.0,0.0,0.0,0.0,0.0,0.0,0.0,0.0,-4.0065,-4.491,-4.8943,-5.2698,-5.5222,-5.4237,-5.1405,-4.8019,-4.4603,-4.0693,-3.7123,0.0,0.0,0.0,-3.4752,-3.5183,-3.6476,-3.9554,-4.0693,-4.2294,-4.5403,-5.0759,0.0,-6.2856,0.0,0.0,0.0,-8.0248,-8.1417,-8.074,-8.0463,-8.0432,-8.0709,-8.0463,-8.0032,-7.9355,-7.917,-7.877,-7.8031,-7.7354,-7.7016,-7.7016,-7.7016,-7.7016,-7.7016,-7.7016,-7.7016,-7.7016,-7.6739,-7.653,0.0,-7.5619,-7.5371,-7.5393,-7.4822,-7.4778,-7.4897,-7.4897,-7.4644,-7.4265,0.0,0.0,0.0,0.0,0.0,0.0,0.0,-2.5706,-2.7367,-2.8163,-2.9383,-3.1007,-3.3094,-3.1504,-3.1139,-3.3226,-3.1689,0.0,0.0,0.0,0.0,0.0,0.0,0.0,-3.2169,-3.3085,-3.5239,-3.8773,-4.0544,-4.1711,-4.2388,-4.3166,-4.1542,-3.8058,-3.8024,-3.7516,0.0,0.0,0.0,0.0,-3.8565,-3.887,0.0,0.0,0.0,0.0,0.0,0.0,0.0,0.0,0.0,0.0,0.0,0.0,0.0,0.0,0.0,0.0,0.0,-4.765,-5.0759,-5.1344,-4.9066,-4.5865,-4.2725,-3.9031,0.0,0.0,0.0,0.0,0.0,-3.5491,-3.5984,-3.7554,-3.94,-4.1617,-4.4356,-5.0297,0.0,0.0,-7.012,0.0,-7.326,-7.7908,-8.0679,-8.0094,-7.9447,-7.9386,-8.0001,-7.9447,-7.877,-7.8062,-7.8678,-7.8678,-7.797,-7.7323,-7.7016,-7.7016,-7.7016,-7.7016,-7.7016,-7.7016,-7.6985,-7.6923,-7.6338,-7.6258,-7.6267,-7.5434,-7.5243,-7.5451,-7.5031,-7.4897,-7.4897,-7.496,-7.496,-7.496,0.0,0.0,0.0,0.0,0.0,0.0,0.0,0.0,0.0,0.0,-2.7031,-2.7628,-2.8688,-2.8357,-2.8456,0.0,0.0,0.0,0.0,0.0,0.0,0.0,0.0,0.0,-3.2856,-3.47,-3.674,-3.8773,-4.1452,-4.2854,-4.3166,-4.3944,-4.2625,-3.9546,-3.8971,-3.7686,0.0,0.0,0.0,0.0,-3.7246,-3.7652,0.0,0.0,0.0,0.0,-3.9039,-3.9242,0.0,0.0,0.0,0.0,0.0,0.0,0.0,0.0,-3.4815,-3.5245,-3.6692,0.0,-3.9985,-3.9616,-3.8539,-3.7338,0.0,-3.5214,0.0,0.0,0.0,0.0,0.0,-3.5491,-3.663,-4.0078,-4.1463,-4.3063,-4.5741,-5.4514,0.0,-7.0244,-7.4491,-7.6646,-7.6123,-7.8185,-7.9509,-7.9355,-7.9201,-7.917,-7.9324,-7.9201,-7.877,-7.8062,-7.8185,-7.7939,-7.7262,-7.7108,-7.7016,-7.7016,-7.7016,-7.7016,-7.7016,-7.7016,-7.6739,-7.6277,-7.6615,-7.6294,-7.534,-7.5683,-7.5522,-7.4999,-7.496,-7.4897,-7.496,-7.5529,-7.5719,-7.5719,0.0,0.0,0.0,0.0,0.0,0.0,0.0,0.0,0.0,0.0,-2.5508,-2.5971,-2.67,-2.7101,-2.7599,0.0,0.0,0.0,0.0,0.0,0.0,0.0,0.0,-3.185,-3.2994,-3.4497,-3.6683,-3.9629,-4.1963,-4.3721,-4.4845,-4.4913,-4.3415,-4.0493,-3.8396,-3.6726,-3.5566,-3.5949,-3.6197,-3.6265,-3.6637,0.0,0.0,0.0,0.0,0.0,-3.7855,-3.799,0.0,-3.8836,-3.9076,-3.8905,0.0,0.0,0.0,0.0,-3.3162,-3.3364,-3.3116,-3.4506,-3.6014,-3.5953,-3.5676,-3.5306,-3.4999,0.0,0.0,0.0,0.0,0.0,0.0,0.0,-3.6969,-4.0139,-4.1986,-4.5095,0.0,0.0,-6.5226,-7.1752,-7.4953,-7.6739,0.0,-7.8001,-7.8616,-7.8616,-7.8308,-7.8278,-7.8585,-7.8308,-7.797,-7.757,-7.757,-7.7385,-7.7016,-7.7016,-7.7016,-7.7016,-7.7016,-7.7016,-7.7016,-7.7016,-7.6962,-7.6691,-7.6443,-7.627,-7.6119,-7.5556,-7.5299,-7.5403,-7.5403,-7.5182,-7.4992,-7.5719,-7.5782,-7.5498,0.0,0.0,0.0,0.0,0.0,0.0,0.0,0.0,0.0,0.0,0.0,0.0,0.0,0.0,0.0,0.0,0.0,0.0,0.0,0.0,0.0,0.0,-3.0551,-3.1314,-3.2995,-3.3727,-3.6204,-4.0454,-4.2501,-4.449,-4.6455,-4.6286,-4.4461,-4.1186,-3.7638,-3.5869,-3.5588,-3.6287,-3.6299,-3.5859,-3.64,0.0,0.0,0.0,0.0,0.0,0.0,0.0,0.0,-3.7313,-3.8058,-3.8351,-3.6569,0.0,0.0,0.0,0.0,0.0,-3.1897,-3.3552,-3.543,-3.5891,-3.6107,-3.6045,-3.546,0.0,0.0,0.0,0.0,0.0,0.0,-3.6045,0.0,-4.0201,-4.3217,-4.8419,-5.7438,-6.1532,-6.5657,-7.1321,-7.3937,0.0,-7.6615,-7.7416,-7.7877,-7.7877,-7.7354,-7.7262,-7.7847,-7.7323,-7.7016,-7.7016,-7.7016,-7.7016,-7.7016,-7.7016,-7.7016,-7.7016,-7.6923,-7.6862,-7.6862,-7.6769,-7.6777,-7.698,-7.5926,-7.6088,-7.6931,-7.5267,-7.5011,-7.5814,-7.5814,-7.5434,-7.4992,-7.5719,-7.5592,-7.5055,0.0,0.0,0.0,0.0,0.0,0.0,0.0,0.0,0.0,0.0,0.0,0.0,0.0,0.0,0.0,0.0,0.0,0.0,0.0,0.0,0.0,-3.051,-3.051,-3.1504,-3.3636,-3.4399,-3.6372,-3.9668,-4.3689,-4.5851,-4.6401,-4.8751,-4.7038,-4.187,-3.9345,-3.7239,-3.5577,-3.5757,-3.6096,-3.6569,-3.6028,0.0,0.0,0.0,0.0,0.0,0.0,0.0,0.0,-3.5723,-3.6468,-3.6874,-3.5273,0.0,0.0,0.0,0.0,0.0,-3.3537,-3.4291,-3.4506,-3.4014,-3.4321,-3.4752,-3.466,0.0,0.0,0.0,0.0,0.0,0.0,-3.8138,-4.0478,0.0,0.0,-5.5345,0.0,0.0,-6.8304,-7.1598,0.0,-7.6338,-7.5415,-7.6431,-7.7169,-7.7169,-7.7077,-7.7077,-7.7169,-7.7077,-7.7016,-7.7016,-7.7016,-7.7016,-7.7016,-7.7016,-7.7016,-7.7016,-7.6431,-7.6154,-7.6154,-7.5569,-7.5142,-7.4997,-7.5337,-7.5247,-7.4922,-7.5173,-7.5137,-7.5055,-7.5055,-7.4992,-7.4992,-7.5719,-7.5908,-7.5814,0.0,0.0,0.0,0.0,0.0,0.0,0.0,0.0,0.0,0.0,0.0,0.0,0.0,0.0,0.0,0.0,0.0,0.0,0.0,0.0,-3.0874,-3.1636,-3.1702,-3.2332,-3.3756,-3.5678,-3.8328,-4.1754,-4.4976,-4.7398,-4.9124,-4.8152,-4.5236,-4.0562,-3.8455,-3.6693,-3.5475,-3.5475,-3.5879,-3.6565,0.0,0.0,0.0,0.0,0.0,0.0,0.0,0.0,0.0,0.0,-3.5182,-3.5802,-3.3806,0.0,0.0,0.0,0.0,0.0,-3.1052,-3.2259,-3.3367,-3.3398,-3.4752,-3.6014,-3.5645,0.0,0.0,0.0,0.0,0.0,0.0,0.0,-4.4972,-5.1559,0.0,-6.0055,-6.4334,-6.6673,-6.9043,0.0,0.0,-7.5569,-7.6061,-7.6646,-7.7016,-7.7016,-7.7016,-7.7016,-7.7016,-7.7016,-7.7016,-7.7016,-7.7016,-7.6831,-7.6461,-7.6461,-7.6461,-7.6461,-7.5784,-7.5476,-7.5446,-7.5138,-7.4957,-7.5027,-7.5216,-7.509,-7.4985,-7.5043,-7.5062,-7.4929,-7.534,-7.5245,-7.4929,-7.5276,-7.5403,-7.5403,0.0,0.0,0.0,0.0,0.0,0.0,0.0,0.0,0.0,0.0,0.0,0.0,0.0,0.0,0.0,0.0,0.0,0.0,0.0,-3.0112,-3.1106,-3.2398,-3.2762,-3.3624,-3.5048,-3.7632,-4.0647,-4.4125,-4.6841,-4.9492,-5.1855,-4.7591,-4.3689,-4.0167,-3.787,-3.6248,-3.5291,-3.5291,-3.5874,-3.6625,0.0,0.0,0.0,0.0,0.0,0.0,0.0,0.0,0.0,0.0,0.0,0.0,0.0,0.0,0.0,-3.0418,-2.9847,-3.0229,-2.9726,-3.1059,-3.2844,-3.3675,0.0,-3.7369,-3.7766,0.0,0.0,0.0,0.0,0.0,0.0,-4.5003,0.0,-5.7315,-6.1163,-6.4241,-6.7165,-6.8735,-7.0613,-7.3353,-7.4276,-7.5323,-7.6862,-7.7016,-7.7016,-7.7016,-7.6862,-7.68,-7.68,-7.68,-7.68,-7.68,-7.68,-7.6523,-7.6031,-7.5692,-7.563,-7.5784,-7.5076,-7.4769,-7.4769,-7.4584,-7.4649,-7.4997,-7.4718,-7.487,-7.5173,-7.4879,-7.4778,-7.496,-7.5498,-7.5403,-7.4897,-7.4897,-7.4897,-7.4897,0.0,0.0,0.0,0.0,0.0,0.0,0.0,0.0,0.0,0.0,0.0,0.0,0.0,0.0,0.0,0.0,0.0,0.0,0.0,-3.0112,-3.0874,-3.1626,-3.2994,-3.5346,-3.8791,-4.0382,-4.2634,-4.5649,-4.9889,-5.2407,-5.3169,-4.8796,-4.5213,-4.2342,-3.9501,-3.7169,-3.5291,-3.5291,-3.6095,-3.7267,-3.586,0.0,0.0,0.0,0.0,0.0,0.0,0.0,0.0,0.0,0.0,0.0,0.0,0.0,-3.4219,-3.2821,-3.2112,-3.1999,-3.2835,-3.3183,-3.3644,-3.4999,0.0,0.0,-4.0995,0.0,0.0,0.0,0.0,0.0,0.0,-5.0082,-5.5499,-5.987,-6.4457,-6.8643,-7.1998,0.0,-7.483,-7.5692,-7.64,-7.6862,-7.7016,-7.7016,-7.7016,-7.7016,-7.6431,-7.6092,-7.6092,-7.6092,-7.6092,-7.6092,-7.6092,-7.6061,-7.6,-7.4769,-7.4461,-7.5076,-7.4399,-7.4061,-7.403,-7.3414,-7.3386,-7.3633,-7.3602,-7.3908,-7.4482,-7.4451,-7.4659,-7.4897,-7.496,-7.4929,-7.4897,-7.4897,-7.4897,-7.4897,0.0,0.0,0.0,0.0,0.0,0.0,0.0,0.0,0.0,0.0,0.0,0.0,0.0,0.0,0.0,0.0,0.0,0.0,0.0,-2.988,-3.1239,-3.2895,-3.3922,-3.5976,-3.9222,-4.2005,-4.5351,-4.9193,-5.1777,-5.2241,-5.0651,-4.7139,-4.4019,-4.1166,-3.9143,-3.7652,-3.6519,-3.5971,-3.637,-3.7286,-3.6204,-3.5837,0.0,0.0,0.0,0.0,0.0,0.0,0.0,0.0,-3.2437,-3.2101,-3.2021,-3.275,-3.3317,-3.1885,-3.1277,-3.1086,-3.1266,-3.2471,-3.3874,-3.4393,0.0,0.0,0.0,0.0,0.0,0.0,0.0,0.0,0.0,0.0,-5.8916,-6.2148,-6.6673,-7.0521,-7.2675,-7.4522,-7.5723,-7.5969,-7.6246,-7.6554,-7.6985,-7.6646,-7.64,-7.64,-7.6154,-7.5815,-7.5415,-7.5384,-7.5384,-7.5384,-7.5384,-7.5169,-7.4769,-7.3845,-7.3506,-7.3753,-7.3476,-7.3353,-7.3353,-7.3106,-7.3107,-7.3231,-7.3386,-7.3601,-7.3845,-7.4178,-7.4419,-7.4659,-7.4778,-7.4897,-7.4897,-7.4897,-7.4897,-7.4897,0.0,0.0,0.0,0.0,0.0,0.0,0.0,0.0,0.0,0.0,0.0,0.0,0.0,0.0,0.0,0.0,0.0,0.0,-2.8395,-2.9516,-3.104,-3.3027,-3.3822,-3.5777,-3.9242,-4.2601,-4.6278,-5.0253,-5.2142,-5.1843,-4.9392,-4.6179,-4.3495,-4.1309,-3.9156,-3.8114,-3.7834,-3.6555,-3.6489,-3.7136,-3.6356,-3.5759,0.0,0.0,0.0,0.0,0.0,0.0,0.0,0.0,-3.2914,-3.2378,-3.2486,-3.3027,-3.3412,-3.2228,-3.1476,-3.0956,-3.0685,-3.1936,-3.3484,-3.4121,0.0,0.0,0.0,0.0,0.0,0.0,0.0,0.0,0.0,0.0,0.0,0.0,-6.7781,-7.129,-7.3322,-7.483,-7.5692,-7.5692,-7.5692,-7.5877,-7.6338,-7.5969,-7.5692,-7.5692,-7.5507,-7.5169,-7.4707,-7.4676,-7.4676,-7.4676,-7.4676,-7.4368,-7.3691,-7.3014,-7.2675,-7.2675,-7.2429,-7.2552,-7.2983,-7.2983,-7.286,-7.2675,-7.3139,-7.3231,-7.3168,-7.3624,-7.3865,-7.4105,-7.4463,-7.4707,-7.4897,-7.4897,-7.4897,-7.4897,0.0,0.0,0.0,0.0,0.0,0.0,0.0,0.0,-2.3156,-2.3884,-2.4646,0.0,0.0,0.0,0.0,0.0,0.0,0.0,-2.8362,-2.9019,-3.0079,-3.1494,-3.2299,-3.475,-3.9123,-4.2071,-4.5052,-4.8001,-5.0916,-5.1578,-5.0055,-4.6378,-4.4291,-4.3429,-3.9852,-3.8626,-3.9123,-3.6936,-3.6439,-3.7036,-3.6307,-3.6009,-3.581,0.0,0.0,0.0,0.0,0.0,0.0,0.0,-3.3629,-3.3173,-3.4638,-3.4883,-3.4677,-3.4547,-3.333,-3.2102,-3.2038,-3.1996,-3.2513,-3.4455,0.0,0.0,0.0,0.0,0.0,0.0,0.0,-5.7008,-5.7685,-5.7808,0.0,-6.4118,-6.772,-7.1075,-7.4491,-7.4984,-7.5015,-7.4984,-7.4984,-7.4984,-7.5015,-7.4984,-7.4984,-7.4984,-7.4368,-7.3968,-7.3968,-7.3968,-7.3968,-7.3968,-7.3968,-7.366,-7.2983,-7.2275,-7.1967,-7.1967,-7.1229,-7.1629,-7.2983,-7.2983,-7.2614,-7.2029,-7.2706,-7.283,-7.2424,-7.2424,-7.2786,-7.3383,-7.3769,-7.4297,-7.4866,-7.4897,-7.4897,-7.4897,0.0,0.0,0.0,0.0,0.0,0.0,0.0,0.0,-2.2394,-2.3123,-2.3884,0.0,0.0,0.0,0.0,0.0,0.0,0.0,-2.7632,-2.8754,-2.9847,-3.0808,-3.2531,-3.4087,-3.5379,-3.8791,-4.3264,-4.8763,-4.9127,-4.7769,-4.4787,-4.3661,-4.2237,-4.0547,-4.0481,-3.9752,-3.846,-3.7268,-3.6605,-3.634,-3.6671,-3.5843,-3.4452,0.0,0.0,0.0,0.0,0.0,0.0,0.0,0.0,0.0,-3.3496,-3.3877,-3.4133,-3.3625,-3.2926,-3.2338,-3.2309,-3.3006,0.0,-3.676,0.0,0.0,0.0,0.0,0.0,0.0,0.0,-6.0617,-6.0055,0.0,0.0,-6.3349,-6.7473,-7.0952,-7.1967,-7.3783,-7.483,-7.4338,-7.4307,-7.4491,-7.4953,-7.4584,-7.4307,-7.4307,-7.366,-7.3291,-7.3291,-7.2829,-7.2583,-7.2583,-7.2583,-7.2244,-7.1536,-7.0859,-7.0736,-7.1229,-7.0521,-7.1167,-7.2952,-7.2491,-7.2429,-7.2706,-7.2891,-7.2707,-7.2181,-7.2049,-7.2308,-7.2841,-7.3579,-7.4012,-7.4265,-7.4707,-7.4897,-7.4897,0.0,0.0,0.0,0.0,0.0,0.0,0.0,0.0,-2.1963,-2.2394,-2.3089,-2.3851,0.0,0.0,0.0,0.0,0.0,0.0,0.0,-2.8357,-2.945,-3.0477,-3.2067,-3.3624,-3.5081,-3.8394,-4.1806,-4.5218,-4.5616,-4.4556,-4.2104,-4.2965,-4.2535,-4.1077,-4.28,-4.2237,-3.9885,-3.9123,-3.7897,-3.6506,-3.7235,-3.6406,-3.4684,0.0,0.0,0.0,0.0,0.0,0.0,0.0,0.0,0.0,-3.3421,-3.3595,-3.3662,-3.3033,-3.2492,-3.2292,-3.2766,-3.3873,0.0,-3.911,-4.294,-4.7429,-5.3234,0.0,0.0,0.0,0.0,-6.3238,-6.3179,-6.3903,0.0,-6.5134,-6.7966,-7.049,-7.1567,-7.2675,-7.3322,-7.3199,-7.3199,-7.3229,-7.3353,-7.326,-7.3076,-7.2798,-7.2398,-7.2152,-7.2152,-7.1783,-7.1536,-7.1536,-7.1536,-7.1075,-7.012,-6.9967,-6.9843,-6.972,-6.932,-7.0028,-7.1752,-7.1629,-7.1629,-7.1752,-7.1752,-7.1536,-7.1105,-7.1304,-7.1541,-7.2058,-7.2935,-7.3588,-7.4123,-7.4739,-7.4897,-7.4897,0.0,0.0,-2.1797,-2.1797,0.0,0.0,0.0,0.0,-2.1797,-2.1797,-2.2427,-2.3189,0.0,0.0,0.0,0.0,0.0,0.0,0.0,-2.7964,-2.8986,-3.0344,-3.1371,-3.3557,-3.7036,-3.9553,-4.0216,-3.899,-4.121,-4.1905,-4.1177,-4.3429,-4.4125,-4.3529,-4.5649,-4.4953,-4.217,-4.1375,-3.9421,-3.697,-3.7798,-3.7235,-3.5843,-3.5214,0.0,0.0,0.0,0.0,0.0,0.0,0.0,0.0,-3.4018,-3.3745,-3.3256,-3.2633,-3.214,-3.2133,-3.3366,0.0,0.0,0.0,-4.6142,0.0,-5.7094,-6.1117,-6.4015,-6.5541,0.0,-6.5054,-6.659,-6.5472,-6.5257,-6.8212,-6.8858,-6.9843,-7.2368,-7.166,-7.1136,-7.1813,-7.1875,-7.1629,-7.0982,-7.1444,-7.1536,-7.0952,-7.0798,-7.0767,-7.089,-7.0798,-7.0705,-7.0705,-7.0675,-6.9997,-6.8705,-6.932,-6.9012,-6.7843,-6.7843,-6.8458,-6.9659,-7.0367,-7.0459,-6.9997,-6.9936,-6.9905,-6.9905,-7.0199,-7.0689,-7.1309,-7.2113,-7.3163,-7.4325,-7.4747,-7.4897,-7.4897,0.0,0.0,-2.1797,-2.1797,0.0,0.0,0.0,0.0,0.0,0.0,0.0,0.0,0.0,0.0,0.0,0.0,0.0,0.0,0.0,-2.7661,-2.8754,-2.9615,-3.2564,-3.5114,-3.7069,-3.6572,-3.6439,-3.6704,-3.9487,-4.0183,-3.8957,-4.1707,-4.2601,-4.1972,-4.3595,-4.27,-3.9885,-3.8593,-3.7003,-3.5479,-3.6804,-3.6439,-3.5181,-3.5611,-3.5413,0.0,0.0,0.0,0.0,0.0,0.0,0.0,-3.3367,-3.3379,-3.3284,-3.2592,-3.2387,-3.2766,-3.4562,-3.6028,0.0,0.0,-5.2306,-5.8201,-6.0685,-6.257,-6.397,-6.4304,-6.5535,-6.6473,-6.6836,-6.7381,-6.7689,-6.7381,-6.8643,-6.9874,-7.0459,-7.0767,-7.0952,-7.1105,-7.1136,-7.1075,-7.0921,-7.0551,-7.049,-7.089,-6.9905,-6.9782,-7.0859,-6.9905,-6.932,-6.932,-6.8828,-6.8181,-6.735,-6.7473,-6.7412,-6.7135,-6.7135,-6.7289,-6.7596,-6.8766,-6.9813,-7.0644,-7.012,-6.9905,-6.9843,-6.9673,-7.0007,-7.0658,-7.169,-7.2526,-7.3339,-7.4231,-7.4539,-7.4539,0.0,0.0,0.0,0.0,0.0,0.0,0.0,0.0,0.0,0.0,0.0,0.0,0.0,0.0,0.0,0.0,0.0,0.0,0.0,0.0,-2.9152,-3.0907,-3.3491,-3.5081,-3.5512,-3.5114,-3.4916,-3.4949,-3.6473,-3.74,-3.7731,-4.0315,-4.164,-4.2038,-4.386,-4.2866,-3.9752,-3.899,-3.74,-3.5479,-3.6274,-3.6108,-3.5364,-3.5153,-3.502,-3.4688,-3.3128,0.0,0.0,0.0,0.0,0.0,0.0,0.0,-3.2788,-3.217,-3.2432,-3.3365,0.0,0.0,0.0,-4.9523,0.0,-6.0535,-6.2181,-6.3079,-6.379,-6.4334,-6.5541,-6.6625,-6.6866,-6.7473,-6.7812,-6.7473,-6.7997,-6.8705,-6.932,-6.9166,-6.9105,-6.9443,-6.9474,-6.9351,-6.9012,-6.8982,-6.8951,-6.8982,-6.8335,-6.8243,-6.8951,-6.8335,-6.7935,-6.7935,-6.7627,-6.7104,-6.6427,-6.6765,-6.6581,-6.5965,-6.6273,-6.6427,-6.6457,-6.7473,-6.8674,-6.9905,-6.9228,-6.9135,-6.9382,-6.9278,-6.9525,-7.0204,-7.1273,-7.2075,-7.2759,-7.3807,-7.4299,-7.4419,0.0,0.0,0.0,0.0,0.0,0.0,0.0,0.0,0.0,0.0,0.0,0.0,0.0,0.0,0.0,0.0,0.0,0.0,0.0,0.0,0.0,-3.2398,-3.3876,-3.4438,-3.3988,-3.4319,-3.4286,-3.3789,-3.3657,-3.4849,-3.7334,-3.9421,-4.1021,-4.2228,-4.4296,-4.3363,-4.0183,-3.9918,-3.8261,-3.581,-3.5844,-3.5762,-3.5548,-3.4507,-3.4348,-3.4399,-3.2755,-3.2851,-3.3655,-3.3235,0.0,0.0,0.0,0.0,-3.2135,-3.1625,-3.2317,-3.3484,0.0,0.0,-4.4466,-5.3054,-5.7663,0.0,-6.263,-6.3079,-6.3459,-6.4462,-6.5329,-6.6046,-6.6621,-6.6827,-6.7042,-6.7504,-6.7196,-6.7289,-6.8397,-6.7596,-6.7135,-6.7689,-6.775,-6.7535,-6.6981,-6.7319,-6.7381,-6.695,-6.6796,-6.6796,-6.6919,-6.6796,-6.6735,-6.6735,-6.6642,-6.6304,-6.575,-6.6273,-6.5996,-6.4918,-6.5472,-6.578,-6.5903,-6.6365,-6.7289,-6.852,-6.812,-6.8212,-6.8735,-6.8828,-6.9289,-6.9936,-7.076,-7.1529,-7.221,-7.3226,-7.387,-7.4142,0.0,0.0,0.0,0.0,0.0,0.0,0.0,0.0,0.0,0.0,-2.1797,-2.2096,0.0,0.0,0.0,0.0,0.0,0.0,-2.617,0.0,0.0,-3.1659,-3.276,-3.3776,-3.475,-3.3591,-3.3259,-3.3789,-3.316,-3.4618,0.0,0.0,-4.0499,-4.0821,-4.2301,-4.164,-3.9322,-3.8063,-3.6572,-3.5033,-3.5183,-3.4883,-3.4345,-3.4313,-3.3932,-3.3339,-3.264,-3.2351,-3.2372,-3.2493,-3.2091,0.0,0.0,0.0,-3.1567,-3.1539,-3.1601,-3.2198,0.0,0.0,-4.7908,0.0,-5.7663,-6.0625,0.0,0.0,-6.3224,0.0,-6.4432,-6.5346,-6.5914,-6.6519,-6.6765,-6.6273,-6.6581,-6.6981,-6.7165,-6.7012,-6.695,-6.7042,-6.7042,-6.7012,-6.6919,-6.6457,-6.6396,-6.6888,-6.6365,-6.6304,-6.6888,-6.6365,-6.6027,-6.6027,-6.5472,-6.5134,-6.5042,-6.5134,-6.5072,-6.4888,-6.498,-6.5349,-6.5903,-6.538,-6.5903,-6.7196,-6.772,-6.7966,-6.8089,-6.8643,-6.9289,-6.9905,-6.9997,-7.0548,-7.1257,-7.2179,-7.267,-7.2763,0.0,0.0,0.0,0.0,0.0,0.0,0.0,0.0,0.0,0.0,0.0,-2.2526,0.0,0.0,0.0,-2.4978,-2.511,-2.5469,-2.6367,-2.7127,-2.8336,-3.017,-3.094,-3.1589,-3.2255,-3.1903,-3.2073,-3.2793,-3.2107,0.0,0.0,-3.9634,-4.1369,0.0,-4.1802,-4.0656,-3.9247,-3.6615,-3.4904,-3.3935,-3.3534,-3.3515,-3.3559,-3.3347,-3.3199,-3.3077,-3.2216,-3.2222,-3.2646,-3.2069,-3.1921,-3.1873,-3.1931,0.0,0.0,0.0,-3.1809,-3.2916,-3.6746,-4.1354,-4.6531,0.0,-5.5987,-5.8501,-6.0864,0.0,-6.2085,-6.2281,-6.2859,-6.365,-6.483,-6.531,-6.5433,-6.538,-6.5596,-6.578,-6.578,-6.578,-6.578,-6.578,-6.578,-6.578,-6.578,-6.5503,-6.5472,-6.578,-6.5503,-6.5472,-6.578,-6.5503,-6.5349,-6.5349,-6.5042,-6.4888,-6.4888,-6.4888,-6.4888,-6.4888,-6.4888,-6.5042,-6.5319,-6.5042,-6.5626,-6.6919,-6.7227,-6.7566,-6.7966,-6.8612,-6.9043,-6.9382,-6.9751,-7.0059,-7.0459,-7.1689,-7.2303,-7.2517,0.0,0.0,0.0,0.0,0.0,0.0,0.0,0.0,0.0,0.0,0.0,0.0,0.0,0.0,0.0,0.0,-2.5041,-2.5431,-2.627,-2.6294,-2.6987,-2.8564,-2.9042,-2.9457,-2.988,-3.0284,-3.0725,-3.1273,-3.1133,0.0,-3.7298,-3.9354,-4.1934,0.0,-4.2577,-4.0744,-3.9242,-3.626,0.0,-3.4108,-3.2719,-3.251,-3.2949,-3.2382,-3.2437,-3.268,-3.1796,-3.2048,-3.2625,-3.1796,-3.1796,-3.2079,-3.1625,-3.1482,0.0,0.0,0.0,-3.3245,0.0,0.0,-4.3329,-4.9613,-5.2935,-5.5478,0.0,0.0,-6.0505,0.0,-6.1509,-6.1971,-6.3457,-6.4015,-6.4298,-6.4395,-6.4672,-6.4826,-6.4641,-6.4764,-6.4888,-6.4888,-6.4888,-6.4888,-6.4888,-6.4888,-6.4888,-6.4888,-6.4888,-6.4888,-6.4888,-6.4888,-6.4888,-6.4888,-6.4888,-6.4888,-6.4888,-6.4888,-6.4888,-6.4888,-6.4888,-6.4888,-6.4888,-6.4888,-6.5442,-6.6427,-6.6765,-6.7196,-6.772,-6.8366,-6.8735,-6.892,-6.9259,-6.9505,-6.9782,-7.1013,-7.1658,-7.2148,0.0,0.0,0.0,0.0,0.0,0.0,0.0,0.0,0.0,0.0,0.0,0.0,-2.3918,-2.3586,-2.3705,-2.4454,-2.487,-2.5234,-2.5556,-2.5444,-2.5901,-2.7051,-2.7314,0.0,-2.9106,-2.9183,-2.9183,-2.9247,-3.0464,-3.3245,-3.7385,-3.8776,-4.1686,-4.5619,-4.4777,-4.2462,-3.9125,0.0,0.0,-3.6676,-3.3593,-3.2407,-3.2382,-3.1796,-3.1597,-3.1597,-3.1539,-3.1539,-3.1597,-3.1539,-3.1539,-3.1539,-3.1539,-3.1482,-3.1482,0.0,0.0,0.0,0.0,-3.6207,0.0,-4.4377,-4.8147,0.0,0.0,0.0,-5.883,-6.0715,-6.0595,-6.0466,-6.1489,-6.2896,-6.3687,-6.3041,-6.4026,-6.4672,-6.3964,-6.4457,-6.4888,-6.4888,-6.4888,-6.4888,-6.4888,-6.4888,-6.4888,-6.4888,-6.4888,-6.4888,-6.4888,-6.4888,-6.4888,-6.4888,-6.4888,-6.4888,-6.4888,-6.4888,-6.4888,-6.4888,-6.4888,-6.4888,-6.4888,-6.4888,-6.4949,-6.5072,-6.6365,-6.695,-6.7012,-6.7689,-6.8335,-6.8828,-6.8243,-6.8397,-6.9012,-6.9751,-7.0398,-7.1044,0.0,0.0,0.0,0.0,0.0,0.0,0.0,0.0,0.0,0.0,0.0,0.0,0.0,-2.3032,-2.3247,-2.3984,-2.4644,-2.4882,-2.4744,-2.4668,-2.4879,-2.5465,-2.6273,-2.6949,-2.7483,-2.8247,-2.8793,-2.9308,-2.9838,-3.1927,-3.5478,-3.7405,-3.9048,-4.0423,-4.1554,-4.1064,-3.9271,-3.6199,0.0,-3.4088,-3.2455,-3.1796,-3.1796,-3.1597,-3.1482,-3.1541,-3.2018,-3.2168,-3.2228,-3.2647,-3.2527,-3.2168,-3.2168,-3.1869,-3.1482,-3.1482,-3.1482,-3.1958,0.0,0.0,0.0,-4.1564,-4.4616,-4.7309,-5.0661,-5.3264,-5.5269,-5.6436,-5.7258,-5.8098,-5.8866,-6.1018,-6.2591,-6.2317,-6.3009,-6.3363,-6.2979,-6.3302,-6.3564,-6.3564,-6.3933,-6.421,-6.421,-6.421,-6.4395,-6.4857,-6.4457,-6.4426,-6.4857,-6.4888,-6.4888,-6.4888,-6.4888,-6.4888,-6.4888,-6.4888,-6.4888,-6.4888,-6.4888,-6.4888,-6.4888,-6.4888,-6.4888,-6.4949,-6.5873,-6.6273,-6.6334,-6.7012,-6.7658,-6.8243,-6.8027,-6.8304,-6.8951,-6.9628,-7.0305,-7.1013,0.0,0.0,0.0,0.0,0.0,-2.5329,-2.5329,-2.5329,-2.5022,-2.427,0.0,0.0,0.0,0.0,-2.3474,-2.4137,-2.4342,-2.442,-2.4317,-2.412,-2.4212,-2.4597,-2.5576,-2.6289,-2.6572,-2.7788,-2.8534,-2.8797,-2.9539,-3.1196,-3.3724,-3.5707,-3.6888,-3.7434,-3.8402,-3.9253,0.0,0.0,0.0,-3.4322,-3.2587,-3.2138,-3.2557,-3.2766,-3.3006,-3.3245,-3.3694,-3.3694,-3.3514,-3.3514,-3.3066,-3.2527,-3.2527,-3.2048,-3.1482,-3.1482,-3.1482,-3.1809,-3.3125,0.0,0.0,0.0,-4.1175,-4.3,-4.677,-4.9134,-5.105,-5.2845,-5.4449,-5.5812,-5.6925,-5.8972,-6.0714,-6.1004,-6.1676,-6.1997,-6.2242,-6.2273,-6.2441,-6.2794,-6.3195,-6.3472,-6.3472,-6.3472,-6.3687,-6.418,-6.3749,-6.381,-6.4487,-6.4334,-6.4303,-6.4518,-6.4303,-6.4426,-6.4888,-6.4641,-6.4672,-6.4888,-6.4888,-6.4888,-6.4888,-6.4888,-6.4764,-6.458,-6.5257,-6.5688,-6.5934,-6.6396,-6.6981,-6.7566,-6.735,-6.7781,-6.8612,-6.9074,-6.9936,-7.0982,0.0,0.0,-2.4902,-2.4902,-2.4902,-2.4863,-2.4863,-2.4863,-2.4863,-2.4863,0.0,0.0,0.0,0.0,0.0,-2.4918,-2.4181,-2.3842,-2.4337,-2.3927,-2.3969,-2.4582,-2.5285,-2.5944,-2.6572,-2.7889,-2.8248,-2.761,-2.9535,-3.115,-3.2467,-3.3784,-3.5459,-3.7255,-3.6028,-3.7255,-4.0127,0.0,-3.7674,-3.8003,-3.4083,-3.3335,-3.4592,-3.525,-3.5908,-3.6477,-3.6537,-3.6148,-3.5429,-3.4083,-3.3215,-3.2647,-3.2557,-3.2048,-3.1482,-3.1482,-3.1482,-3.1482,0.0,0.0,0.0,-3.7255,-3.7764,-3.8841,-4.4706,-4.5574,-4.6262,-5.0212,-5.2067,-5.3593,-5.5658,-5.6865,-5.7837,-5.9021,-5.9827,-6.0665,-6.152,-6.1506,-6.1645,-6.2503,-6.2733,-6.2733,-6.2733,-6.2764,-6.2794,-6.2794,-6.2794,-6.3071,-6.3749,-6.3164,-6.3133,-6.3779,-6.3164,-6.3472,-6.4826,-6.4149,-6.4149,-6.4857,-6.4857,-6.4888,-6.4888,-6.4888,-6.4518,-6.3872,-6.458,-6.5226,-6.5842,-6.5873,-6.6273,-6.6827,-6.618,-6.6765,-6.7935,-6.7966,-6.9228,-7.089,0.0,-2.4902,-2.4902,-2.4902,-2.4655,-2.4451,-2.4451,-2.4451,-2.4328,0.0,0.0,0.0,-2.4724,-2.547,-2.5998,-2.6107,-2.5905,-2.5601,-2.5259,-2.5092,-2.5136,-2.5345,-2.5974,-2.6393,-2.6602,-2.741,-2.7769,-2.761,-2.9086,-3.0013,-3.0432,-3.2228,-3.3604,-3.4592,-3.4711,-3.5549,-3.6716,-3.4711,0.0,-3.6746,-3.3724,-3.3873,-3.5848,-3.507,-3.5489,-3.6596,-3.7524,-3.8063,-3.8212,-3.7315,-3.6596,-3.5639,-3.3275,-3.2048,-3.1482,-3.1482,-3.1482,-3.1482,-3.1482,0.0,0.0,0.0,0.0,0.0,-3.8601,-4.0157,-4.2162,-4.6112,-4.7608,-4.9134,-5.2037,-5.3308,-5.4262,-5.5024,-5.7334,-5.8899,-5.8772,-5.9009,-5.9379,-5.9563,-6.0451,-6.0954,-6.0671,-6.1502,-6.2086,-6.2086,-6.2086,-6.2394,-6.3071,-6.2918,-6.2918,-6.3102,-6.2918,-6.301,-6.3379,-6.3195,-6.3441,-6.4118,-6.4118,-6.4395,-6.4888,-6.4888,-6.4518,-6.3841,-6.4026,-6.4241,-6.4426,-6.4949,-6.5565,-6.6211,-6.6519,-6.7165,-6.8027,-6.9012,-6.9997,-7.0982,-2.4297,-2.4379,-2.4431,-2.474,-2.4805,-2.4846,-2.4846,-2.5089,-2.5061,0.0,0.0,0.0,-2.5405,-2.6632,-2.72,-2.6632,-2.6602,-2.6303,-2.5644,-2.5615,-2.5615,-2.5615,-2.6243,-2.6602,-2.6602,-2.753,-2.7859,-2.761,-2.9175,-2.9834,-2.9624,-3.13,-3.2317,-3.2677,-3.2766,-3.3365,-3.4143,-3.2407,-3.3395,-3.5968,-3.4681,-3.5579,-3.7704,-3.7764,-3.8601,-3.9858,-4.0576,-4.1115,-4.1265,-4.0068,-3.8631,-3.6776,-3.3215,-3.2228,-3.2228,-3.1631,-3.1928,-3.2287,-3.2018,-3.2138,-3.2647,-3.3873,0.0,0.0,-3.6058,-3.6926,-3.8392,-4.2073,-4.3599,-4.5185,-4.8177,-4.9374,-5.0306,-5.1269,-5.3451,-5.5614,-5.7111,-5.7659,-5.7953,-5.8227,-5.9062,-5.9399,-5.9103,-6.0126,-6.077,-6.077,-6.112,-6.1563,-6.1963,-6.224,-6.2394,-6.2394,-6.184,-6.1963,-6.2794,-6.2271,-6.2456,-6.341,-6.341,-6.3626,-6.4026,-6.4303,-6.4057,-6.341,-6.3718,-6.3656,-6.3472,-6.418,-6.4857,-6.5565,-6.6242,-6.7073,-6.8058,-6.9105,-7.0274,-7.1413,0.0,-2.367,-2.3939,-2.4582,-2.5285,-2.5764,-2.5914,-2.6303,-2.6452,0.0,-2.6123,-2.6422,-2.7171,-2.8248,-2.8397,-2.7141,-2.6961,-2.6602,-2.5884,-2.5824,-2.5824,-2.5824,-2.6452,-2.6811,-2.6811,-2.8068,-2.8368,-2.7679,-2.9505,-3.0073,-2.9505,-3.0731,-3.133,-3.13,-3.0761,-3.118,-3.2228,-3.124,-3.2557,-3.534,-3.6148,-3.7764,-3.9828,-4.1654,-4.318,-4.4317,-4.4407,-4.4466,-4.4227,-4.2252,-3.9768,-3.6896,-3.3305,-3.2826,-3.3365,-3.2198,-3.2647,-3.3365,-3.2766,-3.3095,-3.4023,-3.5729,-3.4532,0.0,-3.5669,-3.528,-3.537,-3.8542,-4.0008,-4.1564,-4.4257,-4.5364,-4.6232,-4.7339,-4.9104,-5.1816,-5.588,-5.6586,-5.6859,-5.7466,-5.7791,-5.7922,-5.7628,-5.8563,-5.9226,-5.9062,-5.9942,-6.0578,-6.0578,-6.1132,-6.1471,-6.1471,-6.024,-6.0455,-6.2364,-6.1163,-6.1225,-6.2487,-6.2641,-6.2702,-6.2733,-6.3472,-6.3441,-6.2856,-6.3533,-6.3472,-6.2979,-6.3564,-6.421,-6.4857,-6.5688,-6.6796,-6.8027,-6.8828,-7.0336,-7.1998,-2.361,-2.4029,-2.4627,-2.5315,-2.5974,-2.6752,-2.7859,-2.72,-2.7111,-2.8607,-2.9235,-3.0013,-3.124,-3.112,-3.0642,-2.9804,-2.9295,-2.8487,-2.726,-2.72,-2.72,-2.72,-2.7829,-2.8218,-2.8218,-2.8996,-2.9056,-2.8397,-2.9325,-2.9415,-2.8816,-2.9594,-2.9953,-2.9983,-3.0342,-3.0642,-3.1001,-3.2347,-3.3275,-3.4053,-3.5789,-3.8302,-4.1085,-4.2013,-4.318,-4.4377,-4.4915,-4.5454,-4.5633,-4.3629,-4.0846,-3.7973,-3.6656,-3.534,-3.4233,-3.3963,-3.3694,-3.3455,-3.3335,-3.3784,-3.4262,-3.4113,-3.4891,0.0,-3.4322,-3.4292,-3.51,-3.7345,-3.7195,-3.7614,-4.0756,-4.2342,-4.306,-4.2761,-4.6137,-4.9764,-5.2768,-5.3833,-5.4322,-5.4443,-5.5152,-5.5536,-5.5114,-5.6935,-5.7832,-5.6984,-5.8185,-5.896,-5.9162,-5.9285,-5.9378,-5.9378,-5.8577,-5.8608,-5.9562,-5.9316,-5.9562,-6.0393,-6.1471,-6.2025,-6.2056,-6.3256,-6.3441,-6.2856,-6.3533,-6.3749,-6.3656,-6.3779,-6.3903,-6.421,-6.6027,-6.7227,-6.812,-6.9874,-7.1136,-7.206,-2.4597,-2.4866,-2.5435,-2.6422,-2.7141,-2.8038,-2.9355,-2.9265,-2.9535,-3.0881,-3.1898,-3.2377,-3.2048,-3.2317,-3.1958,-3.0612,-2.9953,-2.9146,-2.8158,-2.7769,-2.761,-2.761,-2.8218,-2.8757,-2.9086,-2.9086,-2.9086,-2.9086,-2.9086,-2.8936,-2.8607,-2.9265,-2.9744,-3.0043,-3.0043,-3.0402,-3.1091,-3.2078,-3.2886,-3.3754,-3.6746,-3.932,-4.1564,-4.321,-4.4646,-4.5903,-4.6561,-4.701,-4.683,-4.3868,-4.1983,-4.0427,-3.7793,-3.6716,-3.6237,-3.528,-3.522,-3.531,-3.4681,-3.519,-3.5848,-3.5519,-3.5729,0.0,0.0,-3.4233,-3.4562,-3.6537,-3.5639,-3.531,-3.7973,-3.8721,-3.914,-3.9798,-4.2402,-4.5155,-4.7489,-5.0545,-5.2597,-5.2407,-5.2993,-5.327,-5.327,-5.5171,-5.6623,-5.7027,-5.8009,-5.8539,-5.83,-5.8608,-5.8639,-5.83,-5.7623,-5.7592,-5.827,-5.7931,-5.8454,-5.9809,-6.0486,-6.0978,-6.1348,-6.2364,-6.2641,-6.2364,-6.3041,-6.3133,-6.2856,-6.3195,-6.3318,-6.3564,-6.5965,-6.7319,-6.8089,-6.9413,-7.0767,-7.1967,-2.5644,-2.5704,-2.6183,-2.74,-2.8248,-2.9235,-3.0522,-3.1061,-3.1629,-3.2407,-3.3784,-3.4113,-3.2647,-3.3095,-3.3006,-3.1749,-3.0499,-2.9724,-2.9564,-2.8442,-2.7846,-2.7949,-2.8607,-2.9205,-2.9744,-2.9355,-2.9415,-2.9953,-2.9056,-2.8667,-2.8786,-2.9205,-2.9714,-3.0313,-2.9924,-3.0492,-3.1661,-3.1869,-3.2826,-3.4562,-3.8033,-3.9978,-4.1145,-4.4137,-4.5903,-4.686,-4.7758,-4.8087,-4.7578,-4.4257,-4.3389,-4.306,-3.908,-3.8332,-3.8631,-3.6956,-3.7075,-3.7584,-3.6537,-3.7195,-3.8093,-3.7704,-3.7195,-3.6626,0.0,0.0,0.0,-3.5998,-3.4801,-3.4023,-3.5789,-3.5759,-3.6028,-3.7584,-3.917,-4.0786,-4.2402,-4.6671,-4.9764,-5.0002,-5.0035,-5.0426,-5.1413,-5.2993,-5.4866,-5.6874,-5.7463,-5.7525,-5.7192,-5.7962,-5.8023,-5.7223,-5.6761,-5.6761,-5.7192,-5.6915,-5.75,-5.9008,-5.9408,-5.987,-6.0424,-6.1255,-6.1686,-6.184,-6.2671,-6.2641,-6.2056,-6.2733,-6.2948,-6.3071,-6.5565,-6.7104,-6.7997,-6.8643,-7.0213,-7.1875,-2.5824,-2.6063,-2.6722,-2.744,-2.8637,-2.9924,-3.121,-3.0971,-3.1091,-3.2347,-3.4203,-3.5519,-3.5878,-3.4472,-3.4113,-3.5669,-3.2456,-3.1071,-3.2796,-3.0016,-2.8642,-2.9355,-2.9953,-3.0313,-3.0402,-3.0941,-3.1183,-3.1243,-2.9505,-2.8906,-2.9475,-2.8936,-2.9056,-2.9714,-3.0193,-3.115,-3.2437,-3.3036,-3.4711,-3.7105,-3.8751,-3.914,-3.92,-4.3629,-4.5035,-4.4885,-4.677,-4.7429,-4.7249,-4.6232,-4.5514,-4.4796,-4.312,-4.1893,-4.0876,-4.0068,-3.9529,-3.917,-3.902,-3.9918,-4.0516,-3.8721,-3.9948,-4.0666,-3.7165,0.0,-3.6716,-3.5818,0.0,-3.3754,-3.4562,0.0,0.0,-3.5789,-3.7913,-3.9619,-3.9828,-4.1384,-4.3438,-4.5693,-4.5191,-4.5725,-4.8681,-4.9733,-5.1394,-5.4222,-5.3918,-5.4046,-5.4786,-5.6203,-5.6392,-5.5099,-5.5561,-5.5592,-5.5068,-5.6207,-5.6546,-5.6176,-5.8023,-5.8947,-5.907,-6.0332,-6.1255,-6.1871,-6.3164,-6.3318,-6.2764,-6.3441,-6.3349,-6.2979,-6.4518,-6.6273,-6.7997,-6.8643,-7.0213,-7.1967,-2.6871,-2.6961,-2.75,-2.8547,-2.9205,-3.0163,-3.1839,-3.3484,-3.4442,-3.4262,-3.5968,-3.7285,-3.7554,-3.6178,-3.5502,-3.6281,-3.4522,-3.3343,-3.3299,-3.172,-3.1072,-3.1839,-3.1719,-3.2018,-3.2796,-3.2347,-3.2108,-3.2108,-3.0492,-2.9654,-2.9564,-2.9295,-2.9714,-3.0731,-3.1001,-3.1839,-3.3185,-3.4622,-3.5429,-3.5968,-3.8841,-3.9349,-3.8901,-4.3539,-4.5843,-4.6681,-4.713,-4.7549,-4.7728,-4.6681,-4.6142,-4.5663,-4.4347,-4.3269,-4.2312,-4.1265,-4.0756,-4.0546,-4.0546,-4.1534,-4.2252,-4.0995,-4.1235,-4.1145,-3.8751,-3.7793,-3.7375,-3.7195,0.0,0.0,0.0,0.0,0.0,0.0,-3.6417,-3.7285,-3.7674,-3.7853,-3.923,-4.2611,-4.2599,-4.3416,-4.6056,-4.7262,-4.8551,-4.9934,-5.0906,-5.1695,-5.2091,-5.3744,-5.4696,-5.473,-5.4913,-5.4819,-5.473,-5.5653,-5.6207,-5.633,-5.7592,-5.8393,-5.8824,-5.9778,-6.0363,-6.0701,-6.2086,-6.2271,-6.1686,-6.2364,-6.2487,-6.2302,-6.2887,-6.4364,-6.6304,-6.735,-6.8766,-7.012,-2.7829,-2.776,-2.7949,-2.9116,-2.9475,-3.0253,-3.2198,-3.4681,-3.6148,-3.5579,-3.6896,-3.8212,-3.911,-3.7823,-3.7311,-3.8463,-3.6809,-3.5478,-3.4953,-3.347,-3.2805,-3.3069,-3.303,-3.3333,-3.3921,-3.3393,-3.3066,-3.3066,-3.1539,-3.0731,-3.0642,-3.0283,-3.0821,-3.2078,-3.2258,-3.3185,-3.4681,-3.6507,-3.7135,-3.7165,-4.0038,-4.0935,-4.0876,-4.3898,-4.6262,-4.7967,-4.7489,-4.7608,-4.7908,-4.713,-4.686,-4.6651,-4.5514,-4.4796,-4.4137,-4.2611,-4.2312,-4.2402,-4.2222,-4.303,-4.3718,-4.2851,-4.2252,-4.1564,-4.0247,-3.9349,-3.8811,-3.8931,-3.8212,0.0,0.0,0.0,-3.6297,-3.6297,0.0,-3.6118,-3.6447,-3.5908,-3.6686,-3.9918,-4.0935,-4.2,-4.3596,-4.47,-4.5514,-4.6304,-4.7684,-4.8797,-4.9377,-5.1573,-5.3071,-5.3776,-5.442,-5.4543,-5.4176,-5.5191,-5.5869,-5.6207,-5.6884,-5.7746,-5.8793,-5.9285,-5.9716,-6.0116,-6.1317,-6.144,-6.0855,-6.1532,-6.1686,-6.1594,-6.2148,-6.3164,-6.4518,-6.6057,-6.7596,-6.8858,-2.8427,-2.8038,-2.7799,-2.8517,-2.9175,-3.0253,-3.2198,-3.3155,-3.4083,-3.534,-3.6118,-3.7764,-4.0935,-3.9145,-3.9563,-4.4008,-3.9479,-3.7153,-3.9201,-3.5339,-3.2737,-3.215,-3.3615,-3.3799,-3.2513,-3.3769,-3.4412,-3.4412,-3.2467,-3.2138,-3.3335,-3.2078,-3.2168,-3.3455,-3.4083,-3.5459,-3.7375,-3.8751,-4.0756,-4.306,-4.318,-4.4377,-4.5933,-4.4796,-4.5603,-4.7339,-4.7309,-4.7309,-4.7429,-4.8027,-4.8237,-4.8117,-4.7429,-4.7189,-4.68,-4.4796,-4.4676,-4.5035,-4.4377,-4.4706,-4.4915,-4.3629,-4.3269,-4.294,-4.1624,-4.1773,-4.1863,-4.0606,-4.0307,-4.0098,-3.9439,-3.8751,-3.8302,-3.8302,-3.7764,0.0,0.0,-3.5908,-3.5998,-3.7375,-3.9828,-4.1414,-4.1474,-4.1504,-4.2342,-4.4227,-4.4078,-4.475,-4.6713,-4.9748,-5.1478,-5.1389,-5.4206,-5.473,-5.279,-5.473,-5.5407,-5.4791,-5.5468,-5.6823,-5.8793,-5.8793,-5.9532,-6.0824,-6.1502,-6.144,-6.0855,-6.1532,-6.1409,-6.104,-6.301,-6.341,-6.3133,-6.5195,-6.7196,-6.9074,-3.0402,-3.0342,-3.0253,-3.0492,-3.0731,-3.139,-3.2916,-3.4472,-3.5971,-3.7361,-3.8888,-4.0943,-4.3995,-4.3178,-4.3006,-4.4442,-4.2592,-4.1058,-4.0404,-3.8974,-3.7792,-3.7046,-3.7463,-3.702,-3.5578,-3.5718,-3.516,-3.3814,-3.3155,-3.2617,-3.2198,-3.2198,-3.2407,-3.2886,-3.3993,-3.51,-3.6357,-3.9409,-4.0726,-4.0935,-4.312,-4.5693,-4.8117,-4.68,-4.6711,-4.7309,-4.7309,-4.7578,-4.8057,-4.8716,-4.8925,-4.8895,-4.8686,-4.8297,-4.7728,-4.6621,-4.6441,-4.677,-4.7429,-4.8057,-4.8147,-4.6381,-4.5963,-4.5274,-4.2641,-4.288,-4.315,-4.1414,-4.1743,-4.1863,-4.0337,-3.9529,-3.8781,-3.7883,-3.7554,-3.7045,0.0,-3.5639,-3.5818,-3.6686,-3.7943,-3.8601,-3.8182,-3.8901,-3.9499,-3.9738,-4.0979,-4.2244,-4.3283,-4.6433,-4.8992,-5.0682,-5.2642,-5.3465,-5.3071,-5.5092,-5.5647,-5.4573,-5.5773,-5.7008,-5.8116,-5.8116,-5.8854,-6.0147,-6.0363,-6.0609,-6.0824,-6.104,-6.1009,-6.0917,-6.2056,-6.2641,-6.3133,-6.5657,-6.7012,-6.7904,-3.145,-3.1719,-3.1869,-3.1869,-3.2078,-3.2587,-3.3694,-3.5577,-3.7389,-3.8773,-4.0941,-4.3342,-4.6125,-4.5879,-4.5622,-4.6102,-4.5071,-4.3633,-4.1599,-4.1162,-4.0432,-3.9142,-3.9276,-3.863,-3.6929,-3.7172,-3.6339,-3.4056,-3.4644,-3.4203,-3.2946,-3.2886,-3.2976,-3.3275,-3.4592,-3.5549,-3.6447,-4.0636,-4.1923,-4.1384,-4.3988,-4.6322,-4.8117,-4.7279,-4.7519,-4.8297,-4.7818,-4.7938,-4.8416,-4.9314,-4.9613,-4.9613,-4.9613,-4.9494,-4.9164,-4.8267,-4.8327,-4.8895,-4.9733,-5.0272,-5.0331,-4.9314,-4.8686,-4.7668,-4.5065,-4.5304,-4.5514,-4.3539,-4.3629,-4.3658,-4.2372,-4.1025,-3.9768,-3.8661,-3.8063,-3.7225,0.0,-3.5519,-3.5669,-3.6088,-3.6686,-3.7015,-3.6836,-3.7375,-3.7554,-3.7105,-3.8622,-3.9926,-4.0828,-4.3886,-4.6645,-4.9017,-5.1213,-5.2395,-5.2521,-5.4535,-5.4992,-5.3988,-5.5309,-5.6541,-5.7777,-5.7777,-5.8639,-6.0116,-5.9901,-6.0178,-6.0794,-6.0794,-6.0794,-6.0886,-6.1809,-6.2425,-6.3133,-6.5626,-6.7319,-6.8581,-3.1661,-3.2228,-3.2647,-3.2647,-3.3185,-3.3814,-3.4442,-3.6383,-3.8265,-3.9613,-4.2116,-4.4816,-4.7457,-4.7401,-4.7593,-4.8892,-4.7092,-4.4941,-4.3094,-4.2285,-4.0911,-3.8769,-3.9333,-3.8697,-3.6628,-3.8173,-3.7837,-3.5247,-3.6635,-3.6656,-3.537,-3.4113,-3.3844,-3.4442,-3.5848,-3.6806,-3.7674,-4.2282,-4.4287,-4.4526,-4.5843,-4.6441,-4.6501,-4.6441,-4.8027,-5.0122,-4.8775,-4.8327,-4.8566,-4.9853,-5.0301,-5.0331,-5.0361,-5.081,-5.1079,-4.9883,-5.0361,-5.1349,-5.1439,-5.1439,-5.1558,-5.2187,-5.1349,-5.0032,-4.8716,-4.8925,-4.8835,-4.683,-4.5933,-4.5454,-4.5304,-4.318,-4.1205,-4.0516,-3.923,-3.7704,-3.5848,-3.5609,-3.5609,-3.5609,-3.6118,-3.6716,-3.7255,-3.6806,-3.6477,-3.6447,-3.7015,-3.7943,-3.926,-4.2032,-4.4539,-4.6562,-5.0001,-5.1547,-5.1,-5.2943,-5.3705,-5.3315,-5.4049,-5.5647,-5.7777,-5.7746,-5.8854,-6.0763,-6.0055,-6.0147,-6.0794,-6.0824,-6.0824,-6.0948,-6.2333,-6.2918,-6.3256,-6.5257,-6.8089,-7.0921,-3.4382,-3.4622,-3.4741,-3.4741,-3.4861,-3.504,-3.522,-3.7054,-3.9178,-4.1607,-4.4272,-4.676,-4.9037,-4.9561,-4.9732,-4.9719,-4.8825,-4.7791,-4.681,-4.6009,-4.4831,-4.3227,-4.3423,-4.2288,-3.9644,-3.9645,-3.8582,-3.6476,-3.6123,-3.531,-3.4023,-3.4143,-3.3784,-3.3125,-3.5459,-3.6567,-3.6985,-4.1115,-4.3988,-4.5873,-4.6711,-4.7938,-4.9134,-4.8147,-4.9105,-5.072,-4.8925,-4.8895,-4.9853,-5.069,-5.1289,-5.1768,-5.2276,-5.2546,-5.2725,-5.2905,-5.2815,-5.2995,-5.4491,-5.4551,-5.4221,-5.4371,-5.3414,-5.2067,-5.078,-5.096,-5.075,-4.8297,-4.8027,-4.7638,-4.5663,-4.3539,-4.1743,-4.0576,-3.8871,-3.7494,-3.6985,-3.6926,-3.6926,-3.6926,-3.6656,-3.6357,-3.6028,-3.6297,-3.6267,-3.5789,-3.6357,-3.7075,-3.7883,-4.0501,-4.3025,-4.5173,-4.7809,-4.9704,-5.0698,-5.2178,-5.2937,-5.2786,-5.4157,-5.5816,-5.745,-5.696,-5.8193,-6.0732,-5.9562,-5.9716,-6.0824,-6.1348,-6.1255,-6.0978,-6.2825,-6.4518,-6.5996,-6.7042,-6.8889,-7.0982,-3.504,-3.5759,-3.6327,-3.6327,-3.6941,-3.7239,-3.6916,-3.8591,-4.0686,-4.2898,-4.5744,-4.8016,-4.9239,-5.0427,-5.0995,-5.0655,-5.0132,-4.9587,-4.8806,-4.8292,-4.7256,-4.5819,-4.5146,-4.3741,-4.1409,-4.0371,-3.8887,-3.677,-3.6137,-3.5311,-3.4382,-3.4143,-3.3814,-3.3455,-3.5549,-3.6626,-3.7165,-4.1003,-4.405,-4.6296,-4.602,-4.7286,0.0,-4.8089,-4.8951,-5.0661,-4.9523,-4.9613,-5.0391,-5.1319,-5.1887,-5.2306,-5.2965,-5.3384,-5.3773,-5.4431,-5.4581,-5.485,-5.6555,-5.6765,-5.6555,-5.6825,-5.6107,-5.491,-5.3324,-5.3025,-5.2426,-5.0062,-4.9164,-4.8297,-4.6501,-4.4077,-4.1743,-3.9828,-3.8571,-3.7734,-3.7434,-3.7404,-3.7404,-3.7404,-3.7105,-3.6626,-3.5998,-3.5998,-3.5908,-3.5519,-3.6357,-3.7045,-3.7375,-3.9649,-4.179,-4.3657,-4.6976,-4.9014,-4.9554,-5.2017,-5.2923,-5.2145,-5.3693,-5.5098,-5.6494,-5.6403,-5.7886,-6.0301,-5.9224,-5.9716,-6.1255,-6.1656,-6.1594,-6.1409,-6.3133,-6.4918,-6.6642,-6.7873,-6.9413,-7.1013,-3.4951,-3.6297,-3.7524,-3.7524,-3.8898,-3.9808,-3.9567,-4.0941,-4.2584,-4.4137,-4.6998,-4.9013,-4.9174,-5.0669,-5.1753,-5.1831,-5.1413,-5.0838,-5.0104,-4.9666,-4.8837,-4.7645,-4.6024,-4.4408,-4.2762,-4.1245,-3.9311,-3.7163,-3.6613,-3.6054,-3.5489,-3.4322,-3.4023,-3.4532,-3.5878,-3.6888,-3.7853,-4.1259,-4.3943,-4.5838,-4.479,-4.5844,-4.7941,-4.7182,-4.8155,-4.9991,-5.0359,-5.0481,-5.069,-5.1917,-5.2396,-5.2576,-5.3234,-5.3862,-5.4491,-5.5209,-5.5777,-5.6466,-5.7872,-5.8201,-5.8184,-5.8703,-5.8316,-5.7332,-5.5603,-5.4547,-5.3407,-5.1882,-5.0,-4.8358,-4.7728,-4.4684,-4.1577,-3.917,-3.862,-3.8311,-3.7883,-3.7734,-3.7674,-3.7674,-3.7584,0.0,-3.6723,-3.6028,-3.5609,-3.5519,-3.6626,-3.7315,-3.7404,-3.923,-4.0905,-4.2312,-4.6441,-4.8596,-4.8536,-5.1887,-5.2942,-5.1843,-5.2863,-5.4056,-5.5298,-5.5975,-5.748,-5.9645,-5.907,-5.9932,-6.1704,-6.1902,-6.2056,-6.2333,-6.3502,-6.4826,-6.6273,-6.8181,-6.9751,-7.1013,-3.6836,-3.7614,-3.8212,-3.8212,-3.9466,-4.1311,-4.3864,-4.4343,-4.4969,-4.6758,-4.901,-5.0769,-5.1714,-5.2166,-5.2537,-5.3034,-5.2981,-5.2926,-5.2739,-5.1773,-5.1092,-5.0795,-4.876,-4.6996,-4.5741,-4.3419,-4.1295,-3.9619,-3.7825,-3.6453,-3.5489,-3.528,-3.4921,-3.4532,-3.5878,-3.7286,-3.883,-4.1134,-4.274,-4.3862,-4.4715,-4.5627,-4.6509,-4.7817,-4.8287,-4.861,-5.0951,-5.1858,-5.1977,-5.2755,-5.3384,-5.3982,-5.464,-5.491,-5.5239,-5.6406,-5.6466,-5.6585,-5.8441,-5.853,-5.8047,-5.7628,-5.6705,-5.5771,-5.5313,-5.3683,-5.2378,-5.3436,-5.1807,-4.989,-4.9044,-4.5132,-4.1821,-4.101,-3.974,-3.9103,-3.9815,-3.9409,-3.908,-3.908,-3.8571,-3.8042,-3.7549,-3.6753,-3.6088,-3.5549,-3.6207,-3.6866,-3.7375,-3.8781,-4.0427,-4.2312,-4.4197,-4.6711,-4.9883,-5.0062,-5.1143,-5.2942,-5.2612,-5.3284,-5.4752,-5.5098,-5.6655,-5.9131,-5.8868,-5.9829,-6.1523,-6.2319,-6.3318,-6.4395,-6.4611,-6.5534,-6.6919,-6.8366,-6.9751,-7.1013,-3.9709,-3.9948,-4.0308,-4.1351,-4.274,-4.4573,-4.7097,-4.7989,-4.8524,-4.9013,-5.0164,-5.1228,-5.1785,-5.2476,-5.3191,-5.3766,-5.3556,-5.3504,-5.3792,-5.3008,-5.225,-5.1622,-4.9976,-4.825,-4.6525,-4.3491,-4.1369,-4.0173,-3.736,-3.5941,-3.5998,-3.531,-3.4981,-3.51,-3.6596,-3.7725,-3.8546,-4.0604,-4.2368,-4.3789,-4.3955,-4.5293,-4.7051,-4.7668,-4.7892,-4.8207,-5.0184,-5.0933,-5.1249,-5.305,-5.3733,-5.4052,-5.5275,-5.5927,-5.6376,-5.7334,-5.7423,-5.7348,-5.7921,-5.793,-5.7423,-5.6451,-5.5594,-5.4823,-5.4398,-5.327,-5.2226,-5.2347,-5.1628,-5.0377,-4.8374,-4.4909,-4.21,-4.1381,-4.0278,-3.9634,-3.9902,-3.9122,-3.8591,-3.8591,-3.8413,-3.806,-3.7482,-3.7575,-3.7211,-3.622,-3.6663,-3.7255,-3.7883,-3.8871,-4.0157,-4.1803,-4.4137,-4.6441,-4.8686,-5.0092,-5.1259,-5.2157,-5.2187,-5.2918,-5.4074,-5.4994,-5.6486,-5.8541,-5.8879,-6.0145,-6.1936,-6.2564,-6.341,-6.4334,-6.4334,-6.498,-6.6027,-6.7381,-6.8705,-7.0059,-4.2684,-4.2743,-4.296,-4.4604,-4.6098,-4.7718,-4.9724,-5.116,-5.1741,-5.107,-5.1403,-5.1723,-5.1857,-5.2939,-5.3792,-5.4341,-5.4001,-5.3896,-5.4184,-5.3687,-5.2981,-5.2014,-5.076,-4.9191,-4.7231,-4.3807,-4.1488,-4.0493,-3.7038,-3.5776,-3.6594,-3.5377,-3.5198,-3.5874,-3.7215,-3.7792,-3.8086,-4.0131,-4.207,-4.3863,-4.3326,-4.4885,-4.7501,-4.7155,-4.7315,-4.8076,-4.9225,-4.9565,-4.9844,-5.2719,-5.3642,-5.378,-5.4952,-5.5916,-5.6869,-5.7404,-5.7672,-5.7695,-5.7628,-5.744,-5.6849,-5.5732,-5.4674,-5.3971,-5.3382,-5.26,-5.1794,-5.1257,-5.11,-5.0227,-4.7318,-4.4743,-4.2789,-4.1871,-4.0801,-4.0,-3.9815,-3.8833,-3.805,-3.7798,-3.8274,-3.8231,-3.7375,-3.8109,-3.828,-3.7292,-3.7549,-3.7922,-3.8362,-3.905,-4.0081,-4.1324,-4.4047,-4.6142,-4.7489,-5.0092,-5.1379,-5.1439,-5.1798,-5.2522,-5.3525,-5.4677,-5.6073,-5.7698,-5.8674,-6.0316,-6.2181,-6.281,-6.3349,-6.3841,-6.3995,-6.4487,-6.5257,-6.6457,-6.775,-6.9135,-4.4937,-4.557,-4.5981,-4.6252,-4.7425,-4.9239,-5.1519,-5.2668,-5.3164,-5.3136,-5.3162,-5.3372,-5.387,-5.4001,-5.4367,-5.4968,-5.4968,-5.4733,-5.4236,-5.3687,-5.3347,-5.3243,-5.1622,-5.0342,-4.9584,-4.6186,-4.3412,-4.1518,-3.8553,-3.709,-3.7041,-3.6344,-3.6344,-3.6939,-3.6892,-3.7315,0.0,-4.0032,-4.1486,-4.2466,-4.3441,-4.4594,-4.5893,-4.6328,-4.6812,-4.7562,-4.9245,-4.9146,-4.8683,-5.1153,-5.2988,-5.4062,-5.2579,-5.3697,-5.5467,-5.5663,-5.6071,-5.6793,-5.8456,-5.8026,-5.6849,-5.5732,-5.4117,-5.2706,-5.2652,-5.0987,-4.9924,-5.1905,-5.1056,-4.9258,-4.7263,-4.5437,-4.4098,-4.3541,-4.1491,-4.0217,-4.0785,-4.0006,-3.8921,-3.791,-3.8939,-3.9112,-3.7551,-3.815,-3.8711,-3.8758,-3.8857,-3.875,-3.8392,-3.9163,-4.0227,-4.1324,-4.2252,-4.4496,-4.8147,-4.8506,-4.9823,-5.2097,-5.1558,-5.1977,-5.3301,-5.3615,-5.4759,-5.6389,-5.7668,-5.9405,-6.1569,-6.3117,-6.3779,-6.3903,-6.4549,-6.5226,-6.5903,-6.6642,-6.775,-6.9012,-4.756,-4.7715,-4.7987,-4.9255,-5.0378,-5.1844,-5.362,-5.4814,-5.5308,-5.4942,-5.4916,-5.4994,-5.5203,-5.5229,-5.5334,-5.5569,-5.5282,-5.5125,-5.5229,-5.4393,-5.3739,-5.34,-5.238,-5.1073,-4.9453,-4.7022,-4.4758,-4.269,-3.9725,-3.8416,-3.8427,-3.7119,-3.6578,-3.6674,-3.7318,-3.7898,-3.8568,-4.0341,-4.1913,-4.3232,-4.3676,-4.4774,-4.6107,-4.6398,-4.6631,-4.6979,-4.8391,-4.8319,-4.7896,-4.9595,-5.1336,-5.2771,-5.2743,-5.3979,-5.5367,-5.5339,-5.5538,-5.5766,-5.5763,-5.5355,-5.4651,-5.3362,-5.2084,-5.1016,-5.1387,-5.0232,-4.9298,-5.03,-4.926,-4.8271,-4.8187,-4.6447,-4.4699,-4.3949,-4.2276,-4.0827,-4.0259,-3.9168,-3.8101,-3.6891,-3.7401,-3.7446,-3.6487,-3.7812,-3.8674,-3.8674,-3.8883,-3.9061,-3.9174,-3.9907,-4.0648,-4.1354,-4.2402,-4.4287,-4.707,-4.7908,-4.9194,-5.102,-5.1558,-5.2276,-5.3204,-5.4141,-5.5681,-5.7707,-5.858,-5.9622,-6.0866,-6.189,-6.2641,-6.3256,-6.3533,-6.4334,-6.5349,-6.5596,-6.655,-6.7812,-5.0271,-5.0161,-5.0378,-5.1991,-5.3058,-5.4039,-5.5442,-5.6275,-5.6909,-5.7188,-5.6783,-5.6301,-5.5935,-5.6288,-5.6501,-5.617,-5.5674,-5.5438,-5.5647,-5.4916,-5.421,-5.3661,-5.2903,-5.1753,-5.0132,-4.8224,-4.631,-4.43,-4.1363,-3.9978,-4.0023,-3.8228,-3.7538,-3.7736,-3.8309,-3.9004,-3.9808,-4.1219,-4.2709,-4.4121,-4.4121,-4.5166,-4.6682,-4.6369,-4.6656,-4.7336,-4.7963,-4.8146,-4.8198,-4.9035,-5.0261,-5.1583,-5.202,-5.3453,-5.4741,-5.4497,-5.4519,-5.4679,-5.4204,-5.3724,-5.3214,-5.2226,-5.111,-5.0472,-5.0734,-5.0159,-4.9479,-4.9165,-4.8277,-4.7748,-4.8471,-4.7053,-4.5475,-4.4494,-4.3158,-4.1656,-4.0208,-3.9081,-3.7913,-3.663,-3.7061,-3.7099,-3.6138,-3.7663,-3.8487,-3.8115,-3.8614,-3.9154,-3.9666,-4.0402,-4.0992,-4.1354,-4.2641,-4.4197,-4.5992,-4.7519,-4.8835,-4.9972,-5.1468,-5.2546,-5.3234,-5.476,-5.6449,-5.8219,-5.9168,-5.9849,-6.0228,-6.1111,-6.189,-6.2718,-6.2825,-6.3656,-6.4888,-6.4888,-6.575,-6.7042,-5.313,-5.3241,-5.3439,-5.4104,-5.4654,-5.5438,-5.6615,-5.6798,-5.7742,-6.0183,-5.8897,-5.719,-5.604,-5.7197,-5.7703,-5.6883,-5.6249,-5.5674,-5.5151,-5.5099,-5.4811,-5.421,-5.3112,-5.2485,-5.2459,-5.0211,-4.8198,-4.6421,-4.352,-4.1981,-4.1626,0.0,-3.9654,-4.0695,-3.9928,-4.0514,-4.216,-4.2762,-4.3676,-4.4748,-4.4722,-4.5767,-4.7205,-4.6081,-4.7048,-4.8982,-4.8381,-4.8904,-4.9871,-4.9871,-5.0289,-5.0577,-4.9453,-5.1176,-5.3266,-5.2217,-5.2706,-5.3724,-5.5032,-5.4442,-5.3347,-5.2778,-5.2109,-5.1439,-5.0917,-5.0786,-5.0446,-4.9322,-4.859,-4.7989,-4.744,-4.731,-4.6863,-4.5469,-4.3963,-4.2466,-4.1167,-4.0213,-3.8991,-3.7601,-3.881,-3.8999,-3.7063,-3.7965,-3.8264,-3.7281,-3.8115,-3.8957,-3.9666,-4.0546,-4.114,-4.1354,-4.2641,-4.3958,-4.5304,-4.7279,-4.8626,-4.9284,-5.1259,-5.2546,-5.3264,-5.5239,-5.6496,-5.7184,-5.8851,-5.9529,-5.959,-6.0898,-6.1783,-6.2395,-6.2718,-6.3656,-6.4888,-6.4888,-6.575,-6.7104,-5.5014,-5.6007,-5.6995,-5.8054,-5.9118,-5.9522,-5.8886,-5.9941,-6.0348,-5.8844,-6.0104,-6.0185,-5.744,-5.7499,-5.7557,-5.6824,-5.6249,-5.583,-5.5674,-5.4916,-5.4393,-5.421,-5.3844,-5.3295,-5.2511,-5.1779,-5.0368,-4.825,-4.6525,-4.4778,-4.3148,-4.2198,-4.196,-4.2277,-4.1607,-4.2082,-4.3337,-4.352,-4.4513,-4.595,-4.5924,-4.6708,-4.7911,-4.7963,-4.8433,-4.9113,-4.9296,-4.9584,-4.9949,-5.0368,-5.0629,-5.0734,-5.0368,-5.111,-5.2112,-5.1742,-5.1901,-5.2315,-5.2658,-5.2269,-5.1583,-5.1398,-5.068,-5.0054,-5.0655,-5.0786,-5.0681,-5.0315,-4.9479,-4.8747,-4.8564,-4.7885,-4.6821,-4.5206,-4.3861,-4.2315,-4.0271,-3.9423,-3.8516,-3.7263,-3.7563,-3.7558,-3.6734,-3.7591,-3.8229,-3.8196,-3.9542,-4.0234,-3.9743,-4.0845,-4.1897,-4.2934,-4.3807,-4.5049,-4.6651,-4.7902,-4.9014,-4.9942,-5.1917,-5.3683,-5.5239,-5.5897,-5.6765,-5.7812,-5.8368,-5.8894,-5.9529,-5.9955,-6.1034,-6.2395,-6.2503,-6.3439,-6.4888,-6.4888,-6.5165,-6.578,-5.6183,-5.7536,-5.8631,-5.9112,-6.0663,-6.1295,-5.9345,-6.0992,-6.1552,-5.9238,-6.0481,-6.0886,-5.9076,-5.817,-5.7529,-5.7163,-5.6379,-5.5909,-5.5909,-5.5229,-5.4759,-5.455,-5.4314,-5.387,-5.3138,-5.2929,0.0,-5.0368,-4.8773,-4.6917,-4.4853,-4.4487,-4.4434,-4.4617,-4.4278,-4.4617,-4.548,-4.548,-4.6264,-4.744,-4.7205,-4.7806,-4.8852,-4.9008,-4.9348,-4.9766,-5.0106,-5.0368,-5.0603,-5.0969,-5.11,-5.11,-5.11,-5.1335,-5.157,-5.1361,-5.1439,-5.1596,-5.1596,-5.1361,-5.0995,-5.0551,-5.008,-4.9897,-5.0629,-5.0786,-5.0786,-5.0786,-4.9871,-4.9008,-4.8773,-4.7963,-4.6761,-4.5036,-4.3781,-4.2291,-4.02,-3.9233,-3.8385,-3.7563,-3.7581,-3.7517,-3.7043,-3.7699,-3.8117,-3.8053,-3.9247,-3.9865,-3.9642,-4.156,-4.3061,-4.3801,-4.5223,-4.6471,-4.7538,-4.904,-5.0065,-5.0723,-5.2606,-5.4491,-5.6196,-5.6406,-5.7094,-5.8141,-5.8381,-5.8817,-5.9315,-5.9422,-6.053,-6.2038,-6.2286,-6.3329,-6.4777,-6.4888,-6.5072,-6.5565,-5.683,-5.816,-5.9021,-5.8276,-6.045,-6.1351,-5.8493,-6.0316,-6.1779,-6.0903,-6.0144,-6.0043,-6.083,-5.8913,-5.766,-5.766,-5.6588,-5.5883,-5.5857,-5.5857,-5.5621,-5.5125,-5.455,-5.4262,-5.4262,-5.3766,-5.3217,-5.2616,-5.0394,-4.846,-4.6839,-4.6761,-4.697,-4.744,-4.7414,-4.7675,-4.8172,-4.8172,-4.8538,-4.9035,-4.8512,-4.893,-4.9845,-4.9427,-4.9897,-5.0786,-5.0838,-5.1178,-5.1596,-5.1596,-5.1622,-5.1648,-5.1648,-5.1675,-5.1596,-5.1021,-5.123,-5.1648,-5.1648,-5.1648,-5.1413,-5.0342,-5.0472,-5.0864,-5.089,-5.089,-5.0838,-5.0838,-4.9976,-4.8982,-4.8303,-4.7754,-4.6787,-4.4905,-4.3676,-4.2343,-4.054,-3.9337,-3.8543,-3.8351,-3.8624,-3.869,-3.8027,-3.8255,-3.8143,-3.7289,-3.7945,-3.8727,-3.9536,-4.2693,-4.4386,-4.4122,-4.6629,-4.811,-4.8177,-5.0517,-5.1755,-5.1813,-5.3421,-5.491,-5.6256,-5.6825,-5.7483,-5.8231,-5.883,-5.9099,-5.9099,-5.9422,-6.0283,-6.1539,-6.2147,-6.3159,-6.432,-6.4746,-6.5288,-6.6119,-5.8188,-6.0258,-6.2117,-6.3045,-6.4648,-6.4774,-6.2019,-6.3578,-6.3738,-6.0364,-6.0297,-6.0643,-6.0645,-5.8876,-5.766,-5.766,-5.6588,-5.5726,-5.5308,-5.5282,-5.5229,-5.5125,-5.4968,-5.4889,-5.4889,-5.4759,-5.4393,-5.3792,-5.238,-5.123,-5.0368,-4.9505,-4.893,-4.8643,-4.8198,-4.8068,-4.8172,-4.8172,-4.8538,-4.9113,-4.9374,-4.9636,-4.9976,-5.0707,-5.0917,-5.0838,-5.1256,-5.1492,-5.1596,-5.1596,-5.191,-5.2276,-5.2276,-5.2589,-5.2772,-5.1727,-5.1831,-5.2276,-5.2276,-5.2276,-5.2223,-5.1936,-5.1648,-5.1518,-5.1988,-5.1727,-5.1413,-5.1413,-5.0864,-4.9949,-4.846,-4.8068,-4.697,-4.3912,-4.284,-4.1611,-3.9416,-3.8527,-3.8227,-3.8543,-3.8819,-3.9226,-3.9666,-3.9536,-3.9714,-4.0304,-4.0566,-4.083,-4.1219,-4.4566,-4.6221,-4.5574,-4.7273,-4.8865,-5.0272,-5.1576,-5.273,-5.3893,-5.4081,-5.5149,-5.6885,-5.7034,-5.7752,-5.889,-5.9039,-5.9099,-5.9099,-5.9207,-5.9795,-6.0826,-6.1418,-6.2445,-6.3678,-6.4309,-6.4758,-6.5503,-6.0496,-6.1796,-6.3037,-6.3822,-6.5134,-6.5173,-6.2773,-6.4406,-6.4858,-6.1582,-6.1883,-6.1868,-6.0822,-5.9751,-5.8487,-5.7459,-5.6693,-5.5987,-5.5151,-5.5099,-5.5099,-5.5099,-5.5099,-5.5099,-5.5099,-5.5099,-5.4811,-5.421,-5.3583,-5.2981,-5.2406,-5.1779,-5.1335,-5.1047,-5.0707,-5.0577,-5.0551,-5.0263,-5.0342,-5.0655,-5.0655,-5.0681,-5.0734,-5.1361,-5.1596,-5.1622,-5.191,-5.2171,-5.2406,-5.2406,-5.2642,-5.2903,-5.2903,-5.3138,-5.3269,-5.2616,-5.2642,-5.2851,-5.2563,-5.2694,-5.2851,-5.2563,-5.225,-5.2093,-5.2433,-5.225,-5.2014,-5.2014,-5.1361,-5.0263,-4.8512,-4.7754,-4.6342,-4.3154,-4.1925,-4.0749,-3.8972,-3.8542,-3.8661,-3.9239,-3.9906,-4.0467,-4.1271,-4.0979,-4.1001,-4.1617,-4.146,-4.1446,-4.1896,-4.4407,-4.5726,-4.5461,-4.8309,-5.0262,-5.0999,-5.267,-5.4101,-5.5236,-5.527,-5.6113,-5.754,-5.7842,-5.8429,-5.9315,-5.9315,-5.9207,-5.9099,-5.9099,-5.9597,-6.0396,-6.1248,-6.2133,-6.3133,-6.4026,-6.4524,-6.5034,-6.2408,-6.2981,-6.3037,-6.2773,-6.3952,-6.4294,-6.2304,-6.4106,-6.5014,-6.3043,-6.3236,-6.2749,-6.1071,-6.0535,-5.9445,-5.7276,-5.7137,-5.6641,-5.5308,-5.5151,-5.5099,-5.5099,-5.5099,-5.5099,-5.5099,-5.5099,-5.4863,-5.4341,-5.4341,-5.4053,-5.353,-5.353,-5.3478,-5.34,-5.34,-5.34,-5.3373,-5.2851,-5.2642,-5.2589,-5.1962,-5.1779,-5.1858,-5.1779,-5.2119,-5.2642,-5.2642,-5.2955,-5.34,-5.34,-5.3452,-5.353,-5.353,-5.3583,-5.3635,-5.3556,-5.353,-5.34,-5.2903,-5.3138,-5.3426,-5.2981,-5.2746,-5.2642,-5.2746,-5.2616,-5.2485,-5.2485,-5.1596,-5.0263,-4.8512,-4.7257,-4.5506,-4.2526,-4.1115,-4.0017,-3.8961,-3.9043,-3.9453,-4.0235,-4.1202,-4.2081,-4.2673,-4.2506,-4.2304,-4.2412,-4.1869,-4.1734,-4.2249,-4.3887,-4.4874,-4.4891,-4.9284,-5.1667,-5.1747,-5.394,-5.5408,-5.6229,-5.6506,-5.7172,-5.8134,-5.8711,-5.9213,-5.9529,-5.9529,-5.9422,-5.9207,-5.9207,-5.9537,-6.0106,-6.0987,-6.176,-6.2535,-6.3762,-6.429,-6.4891,-6.18,-6.3451,-6.421,-6.3037,-6.3952,-6.4438,-6.2896,-6.3479,-6.3641,-6.2223,-6.157,-6.1137,-6.0647,-5.9462,-5.8701,-5.8261,-5.8679,-5.8052,-5.5935,-5.536,-5.5099,-5.5099,-5.5099,-5.5099,-5.5099,-5.5099,-5.5046,-5.4968,-5.4968,-5.4654,-5.4079,-5.4079,-5.3844,-5.34,-5.34,-5.34,-5.34,-5.3295,-5.3243,-5.3217,-5.2589,-5.2668,-5.306,-5.2537,-5.272,-5.3243,-5.3243,-5.3321,-5.34,-5.34,-5.3687,-5.4079,-5.4079,-5.4419,-5.4733,-5.4236,-5.4079,-5.4053,-5.3949,-5.4001,-5.4184,-5.4602,-5.3975,-5.3373,-5.3844,-5.3191,-5.2485,-5.2485,-5.1596,-5.0263,-4.8512,-4.7257,-4.5375,-4.2004,-4.0853,-4.0114,-3.9149,-3.9506,-4.0314,-4.1568,-4.2529,-4.3345,-4.3936,-4.3751,-4.3715,-4.4257,-4.3715,-4.3389,-4.3497,-4.5968,-4.6779,-4.5523,-4.923,-5.2392,-5.5003,-5.5149,-5.5847,-5.7228,-5.702,-5.7618,-5.8802,-5.8923,-5.9348,-5.988,-5.988,-5.988,-5.988,-5.9529,-5.9482,-5.9633,-6.0404,-6.1286,-6.2172,-6.2839,-6.3812,-6.5176,-6.2212,-6.3102,-6.3822,-6.3952,-6.4756,-6.5245,-6.4467,-6.4756,-6.4682,-6.4037,-6.3465,-6.2778,-6.1785,-6.1466,-6.058,-5.911,-5.9202,-5.8915,-5.7843,-5.6667,-5.5752,-5.5125,-5.5099,-5.5099,-5.5099,-5.5099,-5.5099,-5.5099,-5.5099,-5.4968,-5.468,-5.468,-5.455,-5.4314,-5.4314,-5.4314,-5.4288,-5.3975,-5.3818,-5.3792,-5.3217,-5.3138,-5.3373,-5.3086,-5.3347,-5.3818,-5.3818,-5.4053,-5.4314,-5.4314,-5.4262,-5.421,-5.421,-5.4184,-5.4131,-5.3844,-5.353,-5.3347,-5.3687,-5.3766,-5.3896,-5.4471,-5.421,-5.3896,-5.4158,-5.3321,-5.2485,-5.2485,-5.1831,-5.0786,-4.9374,-4.7911,-4.6212,-4.399,-4.2184,-4.0992,-4.0562,-4.101,-4.1817,-4.3091,-4.4361,-4.538,-4.6299,-4.5944,-4.5831,-4.6102,-4.5587,-4.537,-4.5695,-4.6977,-4.7895,-4.8387,-5.0991,-5.3208,-5.4789,-5.6305,-5.7205,-5.758,-5.8115,-5.8685,-5.9502,-5.9838,-6.0102,-6.0197,-6.0197,-6.0092,-6.0016,-5.988,-5.9878,-6.0132,-6.0795,-6.1459,-6.2152,-6.3152,-6.3944,-6.4718,-6.3232,-6.3562,-6.4009,-6.454,-6.4972,-6.5274,-6.5136,-6.5079,-6.5022,-6.5165,-6.465,-6.3725,-6.2391,-6.2535,-6.2011,-5.983,-5.9699,-5.9647,-5.9385,-5.8131,-5.6824,-5.5543,-5.5255,-5.5099,-5.5099,-5.5099,-5.5099,-5.5099,-5.5099,-5.5099,-5.5099,-5.5099,-5.5099,-5.5099,-5.5099,-5.5099,-5.5072,-5.4445,-5.421,-5.4131,-5.3452,-5.3269,-5.3373,-5.3243,-5.353,-5.4027,-5.4158,-5.4497,-5.4916,-5.5046,-5.4707,-5.4236,-5.4367,-5.4027,-5.3583,-5.3583,-5.3164,-5.2825,-5.3426,-5.3504,-5.3556,-5.4236,-5.4314,-5.421,-5.421,-5.3426,-5.2694,-5.2694,-5.2014,-5.1152,-5.0263,-4.859,-4.6917,-4.5747,-4.3651,-4.2192,-4.2292,-4.2797,-4.3633,-4.4846,-4.6134,-4.7242,-4.8165,-4.7839,-4.7568,-4.7568,-4.7134,-4.7079,-4.7541,-4.7812,-4.8927,-5.0849,-5.2673,-5.4068,-5.479,-5.693,-5.8176,-5.8239,-5.9083,-5.9666,-6.0055,-6.0578,-6.069,-6.0481,-6.0481,-6.0407,-6.0197,-6.0092,-6.0259,-6.056,-6.1225,-6.181,-6.2281,-6.3395,-6.3954,-6.4432,-6.4467,-6.5794,-6.6125,-6.4065,-6.3807,-6.366,-6.3433,-6.2992,-6.2828,-6.3259,-6.2937,-6.202,-6.05,-6.0408,-6.0434,-6.0169,-6.0666,-6.0535,-5.9437,-5.9255,-5.8444,-5.6745,-5.5674,-5.5099,-5.5099,-5.5099,-5.5099,-5.5099,-5.5099,-5.5099,-5.5099,-5.5099,-5.5099,-5.5099,-5.5099,-5.5099,-5.5072,-5.4445,-5.421,-5.4105,-5.3008,-5.2903,-5.3347,-5.2772,-5.2929,-5.353,-5.4027,-5.4236,-5.4367,-5.4916,-5.4707,-5.4314,-5.4863,-5.4628,-5.4131,-5.4131,-5.3766,-5.3452,-5.4001,-5.3792,-5.3661,-5.4759,-5.4602,-5.421,-5.421,-5.3739,-5.3321,-5.3321,-5.2014,-5.0812,-5.0734,-4.8852,-4.69,-4.5415,-4.4177,-4.3539,-4.4023,-4.4609,-4.5597,-4.7025,-4.7731,-4.8138,-4.8246,-4.8192,-4.8192,-4.8192,-4.8138,-4.8138,-4.8165,-4.9223,-5.0363,-5.17,-5.327,-5.4972,-5.6825,-5.6974,-5.7958,-5.9624,-5.9747,-6.0116,-6.0732,-6.0763,-6.0794,-6.0794,-6.0794,-6.0794,-6.069,-6.0481,-6.0407,-6.0499,-6.1202,-6.1767,-6.2439,-6.2859,-6.3751,-6.5053,-6.0401,-6.183,-6.283,-6.1847,-6.2748,-6.3301,-6.2279,-6.2356,-6.2655,-6.3109,-6.2676,-6.229,-6.2121,-6.1827,-6.1342,-6.0744,-6.064,-6.0692,-6.0953,-5.996,-5.8444,-5.6327,-5.583,-5.5438,-5.5125,-5.5099,-5.5099,-5.5099,-5.5438,-5.5438,-5.5125,-5.5438,-5.5412,-5.5099,-5.5099,-5.5099,-5.5072,-5.4863,-5.455,-5.4184,-5.4131,-5.4027,-5.3922,-5.4053,-5.4262,-5.4471,-5.468,-5.4759,-5.4785,-5.502,-5.4707,-5.4236,-5.4471,-5.4158,-5.3687,-5.3687,-5.3556,-5.3504,-5.4053,-5.4053,-5.4001,-5.4445,-5.4367,-5.421,-5.421,-5.3792,-5.34,-5.34,-5.2877,-5.2302,-5.191,-5.0551,-4.9363,-4.9059,-4.7595,-4.6834,-4.8023,-4.7893,-4.811,-4.9413,-4.9739,-5.0037,-5.0417,-5.0471,-5.0471,-5.0471,-5.0471,-5.0471,-5.0471,-5.1231,-5.1909,-5.2371,-5.3275,-5.4091,-5.4864,-5.7065,-5.8384,-5.8684,-5.9869,-6.0547,-6.0794,-6.0794,-6.0794,-6.0794,-6.0794,-6.0794,-6.0794,-6.069,-6.0862,-6.1111,-6.1783,-6.2317,-6.2737,-6.3518,-6.4168,-6.4758,-5.8525,-5.9967,-6.122,-6.0891,-6.2206,-6.2867,-6.179,-6.2051,-6.2534,-6.2951,-6.2668,-6.2453,-6.271,-6.256,-6.1992,-6.1084,-6.0744,-6.0771,-6.1372,-6.0143,-5.8497,-5.6536,-5.6275,-5.6013,-5.5647,-5.5647,-5.5647,-5.5647,-5.6013,-5.5987,-5.5647,-5.583,-5.57,-5.5334,-5.5177,-5.5099,-5.5099,-5.4916,-5.4576,-5.421,-5.4471,-5.4314,-5.4001,-5.4419,-5.4576,-5.4602,-5.4759,-5.4811,-5.4863,-5.5046,-5.4707,-5.4236,-5.4419,-5.4236,-5.3922,-5.3922,-5.3922,-5.4001,-5.4393,-5.4471,-5.4471,-5.4471,-5.4471,-5.4471,-5.4471,-5.4053,-5.3635,-5.3635,-5.3504,-5.3269,-5.2851,-5.1988,-5.1328,-5.1451,-5.01,-4.9373,-5.0505,-5.0086,-5.0064,-5.1068,-5.1177,-5.1367,-5.1801,-5.1828,-5.1828,-5.1828,-5.1828,-5.1909,-5.2099,-5.2506,-5.2805,-5.2995,-5.3375,-5.3544,-5.3486,-5.6416,-5.7871,-5.7784,-5.9441,-6.0241,-6.0241,-6.0586,-6.0794,-6.0794,-6.0794,-6.0917,-6.1101,-6.0886,-6.1243,-6.189,-6.235,-6.2792,-6.3244,-6.4137,-6.4493,-6.4554,-5.986,-6.1425,-6.2437,-6.16,-6.2058,-6.2274,-6.2062,-6.1973,-6.2182,-6.2731,-6.2313,-6.1973,-6.1973,-6.1973,-6.1738,-6.1163,-6.111,-6.0875,-6.0248,-5.9673,-5.8862,-5.7712,-5.7111,-5.6798,-5.6798,-5.6798,-5.6798,-5.6798,-5.6798,-5.6798,-5.6798,-5.6196,-5.5909,-5.5883,-5.536,-5.5125,-5.5072,-5.4471,-5.421,-5.4158,-5.3635,-5.34,-5.34,-5.34,-5.34,-5.3478,-5.4027,-5.421,-5.4314,-5.4916,-5.4707,-5.4314,-5.4916,-5.5099,-5.5099,-5.5099,-5.5099,-5.5099,-5.5125,-5.5125,-5.5125,-5.5125,-5.5099,-5.5099,-5.5125,-5.4654,-5.421,-5.421,-5.3792,-5.34,-5.34,-5.2903,-5.2371,-5.1827,-5.1256,-5.0789,-5.0898,-5.0932,-5.115,-5.1774,-5.1855,-5.1828,-5.1828,-5.1828,-5.1828,-5.1828,-5.1828,-5.2099,-5.2696,-5.2723,-5.2995,-5.3565,-5.3592,-5.3592,-5.3592,-5.4852,-5.5964,-5.7187,-5.8436,-5.9009,-5.9009,-6.0241,-6.0794,-6.0794,-6.0794,-6.1194,-6.1748,-6.1101,-6.1594,-6.2825,-6.2825,-6.3225,-6.3794,-6.4248,-6.4635,-6.4869,-5.8355,-5.903,-5.9888,-6.0471,-6.0471,-6.0434,-6.0614,-6.111,-6.1581,-6.2156,-6.2077,-6.1973,-6.1973,-6.1973,-6.1738,-6.1163,-6.111,-6.0875,-6.0248,-5.9673,-5.9202,-5.8862,-5.7921,-5.7216,-5.6824,-5.6798,-5.6798,-5.6798,-5.7216,-5.719,-5.6824,-5.7033,-5.6928,-5.6536,-5.6379,-5.6066,-5.5674,-5.5935,-5.5334,-5.4262,-5.4916,-5.468,-5.4001,-5.4419,-5.4602,-5.4602,-5.4785,-5.4837,-5.4863,-5.5046,-5.4994,-5.4863,-5.5046,-5.5099,-5.5099,-5.5099,-5.5099,-5.5177,-5.5569,-5.5674,-5.5674,-5.5674,-5.5386,-5.5203,-5.5569,-5.5229,-5.4837,-5.4837,-5.4707,-5.4471,-5.4053,-5.4078,-5.3942,-5.3581,-5.3342,-5.3294,-5.3904,-5.332,-5.3022,-5.3619,-5.332,-5.3076,-5.3076,-5.3076,-5.3076,-5.3076,-5.3076,-5.3158,-5.332,-5.332,-5.3402,-5.3592,-5.3592,-5.3592,-5.3592,-5.4852,-5.5616,-5.5964,-5.7996,-5.9009,-5.9009,-6.0241,-6.0794,-6.0824,-6.1317,-6.1625,-6.184,-6.2086,-6.2456,-6.2856,-6.3349,-6.3656,-6.3903,-6.45,-6.4777,-6.498,-5.8,-5.8287,-5.8862,-6.0013,-5.9934,-5.983,-6.0169,-6.0927,-6.1502,-6.1633,-6.1842,-6.1973,-6.1973,-6.1973,-6.1738,-6.1163,-6.0901,-6.0614,-6.0248,-5.9908,-5.9699,-5.9699,-5.9045,-5.8287,-5.7503,-5.7712,-5.7817,-5.7817,-5.8392,-5.8366,-5.7817,-5.7948,-5.7686,-5.7137,-5.6902,-5.6615,-5.6275,-5.6667,-5.6066,-5.4968,-5.5883,-5.57,-5.4942,-5.5543,-5.5621,-5.5465,-5.57,-5.5491,-5.5125,-5.536,-5.5282,-5.5151,-5.536,-5.5412,-5.5412,-5.5412,-5.5412,-5.5491,-5.583,-5.5909,-5.6013,-5.6484,-5.6196,-5.5857,-5.6196,-5.6013,-5.5778,-5.5778,-5.5595,-5.5308,-5.4942,-5.4945,-5.4996,-5.4698,-5.4681,-5.4871,-5.541,-5.4786,-5.4351,-5.446,-5.4162,-5.3863,-5.3619,-5.3592,-5.3592,-5.3592,-5.3592,-5.3592,-5.3592,-5.3592,-5.3592,-5.3592,-5.3592,-5.3592,-5.3592,-5.4259,-5.4734,-5.4734,-5.7075,-5.8445,-5.8711,-6.0122,-6.1101,-6.1594,-6.1748,-6.1963,-6.224,-6.2641,-6.2979,-6.3256,-6.3656,-6.3995,-6.4303,-6.4734,-6.4888,-6.498,-5.8523,-5.8523,-5.8889,-6.0091,-6.0248,-6.0248,-6.0352,-6.1267,-6.179,-6.1267,-6.1659,-6.1947,-6.1894,-6.1947,-6.1738,-6.1163,-6.0614,-6.03,-6.03,-6.0248,-6.0222,-6.0222,-6.0222,-5.9725,-5.8679,-5.9124,-5.9359,-5.9359,-5.9882,-5.9882,-5.9359,-5.8889,-5.8366,-5.7791,-5.7268,-5.6981,-5.6876,-5.6928,-5.6588,-5.604,-5.6693,-5.6562,-5.6066,-5.6667,-5.651,-5.6066,-5.6615,-5.6144,-5.5308,-5.5752,-5.5569,-5.5255,-5.57,-5.5883,-5.5909,-5.5909,-5.5935,-5.5987,-5.6066,-5.6066,-5.6327,-5.7451,-5.7346,-5.6954,-5.6902,-5.685,-5.6798,-5.6798,-5.6327,-5.5909,-5.5909,-5.5733,-5.5578,-5.5282,-5.5564,-5.5734,-5.5573,-5.541,-5.5111,-5.4541,-5.4433,-5.4189,-5.3646,-5.3592,-5.3592,-5.3592,-5.3592,-5.3619,-5.3673,-5.3673,-5.37,-5.3754,-5.37,-5.37,-5.3754,-5.37,-5.3673,-5.3673,-5.6049,-5.7509,-5.8317,-5.9999,-6.155,-6.2794,-6.224,-6.2333,-6.2918,-6.2979,-6.3379,-6.3933,-6.3933,-6.4334,-6.4888,-6.4888,-6.4888,-6.5011,-5.8523,-5.8523,-5.9019,-6.064,-6.0535,-6.0535,-6.145,-6.1816,-6.1921,-6.179,-6.1894,-6.179,-6.1346,-6.1711,-6.1738,-6.1163,-6.1006,-6.0927,-6.0927,-6.0483,-6.0222,-6.0222,-6.0222,-6.0091,-5.9856,-5.9542,-5.9359,-5.9359,-5.949,-5.949,-5.9385,-5.9699,-5.9542,-5.8993,-5.8862,-5.8314,-5.7503,-5.7948,-5.7556,-5.6693,-5.7739,-5.7529,-5.6667,-5.7268,-5.7111,-5.6641,-5.6771,-5.6641,-5.6379,-5.604,-5.583,-5.5674,-5.536,-5.5569,-5.5909,-5.5909,-5.6249,-5.6719,-5.7163,-5.7268,-5.7451,-5.8157,-5.8235,-5.8026,-5.7582,-5.7137,-5.6798,-5.6798,-5.6327,-5.5909,-5.5909,-5.5974,-5.5947,-5.5945,-5.609,-5.6124,-5.6115,-5.5301,-5.4623,-5.4514,-5.408,-5.3727,-5.3619,-5.3592,-5.3592,-5.3592,-5.3592,-5.3809,-5.427,-5.4297,-5.4514,-5.5003,-5.4541,-5.4514,-5.503,-5.4541,-5.4297,-5.4297,-5.5758,-5.7365,-5.9015,-6.0231,-6.1595,-6.2825,-6.3225,-6.3472,-6.3656,-6.421,-6.4518,-6.4672,-6.4672,-6.4764,-6.4888,-6.4888,-6.4888,-6.5072,-5.9228,-5.9098,-5.9464,-6.1215,-6.1032,-6.0849,-6.1476,-6.179,-6.1868,-6.1607,-6.179,-6.1868,-6.1555,-6.2051,-6.2365,-6.2339,-6.2104,-6.1947,-6.1947,-6.1398,-6.1058,-6.1058,-6.1058,-6.1058,-6.1058,-6.0483,-6.0065,-5.9777,-6.0065,-5.9908,-5.9385,-5.9673,-5.9516,-5.8967,-5.8967,-5.8627,-5.8104,-5.8679,-5.8418,-5.7686,-5.8575,-5.8549,-5.8052,-5.8366,-5.8131,-5.766,-5.7921,-5.7686,-5.7137,-5.6536,-5.6144,-5.5909,-5.5909,-5.6118,-5.6327,-5.6327,-5.6745,-5.7268,-5.7582,-5.7869,-5.8131,-5.8444,-5.9084,-5.941,-5.8261,-5.7843,-5.7634,-5.7634,-5.7276,-5.702,-5.702,-5.7062,-5.7116,-5.6822,-5.6946,-5.7038,-5.6766,-5.617,-5.5654,-5.5383,-5.5084,-5.4758,-5.4487,-5.446,-5.446,-5.446,-5.446,-5.4596,-5.4921,-5.4921,-5.5084,-5.541,-5.5084,-5.5084,-5.541,-5.5084,-5.5057,-5.5355,-5.6354,-5.7457,-5.8742,-5.9596,-6.1058,-6.2839,-6.287,-6.3232,-6.3872,-6.4611,-6.4703,-6.4426,-6.4764,-6.4888,-6.4888,-6.4888,-6.5103,-6.5472,-6.0039,-5.983,-6.0013,-6.1555,-6.1424,-6.1136,-6.1241,-6.1659,-6.179,-6.1319,-6.1685,-6.1999,-6.2104,-6.2626,-6.3123,-6.3489,-6.3175,-6.294,-6.2835,-6.2391,-6.2077,-6.1973,-6.1973,-6.1973,-6.1973,-6.1502,-6.098,-6.0378,-6.0771,-6.0457,-5.9516,-5.9516,-5.9202,-5.8653,-5.8653,-5.8653,-5.8706,-5.9176,-5.915,-5.8862,-5.9437,-5.9594,-5.9516,-5.962,-5.9255,-5.8732,-5.9202,-5.8679,-5.7712,-5.7137,-5.6615,-5.6275,-5.6693,-5.6876,-5.6954,-5.6954,-5.7346,-5.7817,-5.7817,-5.8157,-5.8523,-5.8523,-5.9515,-6.0132,-5.9016,-5.8743,-5.8769,-5.8664,-5.8473,-5.8329,-5.8329,-5.8292,-5.808,-5.7569,-5.7698,-5.7743,-5.7255,-5.7092,-5.6848,-5.6359,-5.6224,-5.5952,-5.5464,-5.541,-5.541,-5.541,-5.541,-5.5464,-5.5573,-5.5573,-5.56,-5.5708,-5.5627,-5.56,-5.5708,-5.5627,-5.5871,-5.6441,-5.7024,-5.764,-5.8334,-5.8765,-6.0501,-6.2869,-6.2331,-6.2829,-6.4057,-6.4641,-6.4549,-6.4057,-6.4672,-6.4888,-6.4888,-6.4888,-6.5257,-6.575,-6.0195,-6.0169,-6.0352,-6.111,-6.1163,-6.1293,-6.179,-6.1921,-6.1947,-6.1868,-6.1921,-6.2156,-6.2652,-6.3227,-6.3384,-6.2966,-6.3306,-6.3358,-6.2862,-6.2757,-6.2496,-6.1999,-6.1973,-6.1973,-6.1973,-6.1894,-6.1581,-6.1006,-6.0561,-6.0248,-6.0091,-6.0091,-5.9803,-5.9255,-5.9255,-5.9255,-5.9255,-5.9333,-5.962,-6.0039,-6.064,-6.0561,-6.0169,-6.0692,-6.0195,-5.9255,-5.9333,-5.8941,-5.8314,-5.7739,-5.7477,-5.7346,-5.6928,-5.7137,-5.7556,-5.7556,-5.7948,-5.8392,-5.8392,-5.8444,-5.8523,-5.8947,-5.922,-5.9299,-5.9395,-5.988,-6.012,-5.9615,-5.903,-5.8769,-5.8769,-5.8107,-5.7596,-5.7515,-5.7347,-5.7282,-5.7201,-5.6739,-5.6387,-5.6305,-5.5844,-5.5491,-5.5437,-5.541,-5.541,-5.541,-5.541,-5.5654,-5.6142,-5.617,-5.6414,-5.6929,-5.6441,-5.6441,-5.6929,-5.6441,-5.6468,-5.7065,-5.7085,-5.7823,-5.898,-5.902,-6.0485,-6.2899,-6.281,-6.3524,-6.4764,-6.4857,-6.4826,-6.4764,-6.4857,-6.4888,-6.4888,-6.4888,-6.4949,-6.5103,-6.0666,-6.0718,-6.0901,-6.1502,-6.1581,-6.1685,-6.1921,-6.1973,-6.1973,-6.1973,-6.1973,-6.2182,-6.2757,-6.362,-6.4195,-6.4247,-6.3907,-6.3567,-6.3306,-6.2705,-6.2234,-6.1973,-6.2287,-6.2287,-6.1973,-6.2287,-6.2156,-6.1581,-6.0666,-5.9882,-5.9281,-5.9281,-5.9124,-5.8889,-5.8889,-5.8889,-5.8915,-5.9228,-5.9699,-6.0248,-6.0509,-6.0849,-6.1163,-6.0771,-6.03,-5.9751,-5.9124,-5.8732,-5.847,-5.8235,-5.7921,-5.7608,-5.7373,-5.7451,-5.766,-5.766,-5.8052,-5.8523,-5.8806,-5.9042,-5.9342,-5.9308,-5.9987,-6.0589,-6.006,-6.0495,-6.0903,-5.9755,-5.9574,-5.9525,-5.9525,-5.9507,-5.9184,-5.886,-5.8452,-5.8069,-5.7716,-5.7174,-5.6794,-5.6794,-5.6577,-5.6414,-5.6414,-5.6414,-5.6414,-5.6414,-5.6414,-5.6522,-5.6794,-5.6794,-5.6902,-5.7174,-5.6929,-5.6929,-5.7174,-5.6929,-5.6929,-5.7174,-5.7174,-5.7532,-5.8016,-5.8016,-5.9465,-6.1821,-6.1821,-6.3044,-6.4888,-6.4888,-6.4888,-6.4888,-6.4888,-6.4888,-6.4888,-6.4888,-6.4888,-6.4949]}]]